<?xml version="1.0" encoding="UTF-8" standalone="no" ?>
<gpx xmlns="http://www.topografix.com/GPX/1/1" xmlns:xsi="http://www.w3.org/2001/XMLSchema-instance" xsi:schemaLocation="http://www.topografix.com/GPX/1/1 http://www.topografix.com/GPX/1/1/gpx.xsd" version="1.1" creator="VisuGPX - https://www.visugpx.com">
  <metadata>
    <name>GR5/GTA thononbioge/chevenoz</name>
    <desc><![CDATA[Départ pour la GTA/GR5 Thonon-Bioge-chevenoz]]></desc>
  </metadata>
  <trk>
    <name><![CDATA[07-JUIL-17 18:20:29]]></name>
    <trkseg>
      <trkpt lat="46.36644" lon="6.48316">
        <ele>383.7</ele>
        <time>2017-07-07T06:32:34Z</time>
      </trkpt>
      <trkpt lat="46.36644" lon="6.48317">
        <ele>383.7</ele>
        <time>2017-07-07T06:32:35Z</time>
      </trkpt>
      <trkpt lat="46.36622" lon="6.48333">
        <ele>383.22</ele>
        <time>2017-07-07T06:32:52Z</time>
      </trkpt>
      <trkpt lat="46.36621" lon="6.48333">
        <ele>383.22</ele>
        <time>2017-07-07T06:32:53Z</time>
      </trkpt>
      <trkpt lat="46.36607" lon="6.48338">
        <ele>383.7</ele>
        <time>2017-07-07T06:33:05Z</time>
      </trkpt>
      <trkpt lat="46.36604" lon="6.48339">
        <ele>383.22</ele>
        <time>2017-07-07T06:33:08Z</time>
      </trkpt>
      <trkpt lat="46.36586" lon="6.48348">
        <ele>383.22</ele>
        <time>2017-07-07T06:33:22Z</time>
      </trkpt>
      <trkpt lat="46.3657" lon="6.48355">
        <ele>383.22</ele>
        <time>2017-07-07T06:33:34Z</time>
      </trkpt>
      <trkpt lat="46.36553" lon="6.4836">
        <ele>382.74</ele>
        <time>2017-07-07T06:33:48Z</time>
      </trkpt>
      <trkpt lat="46.36542" lon="6.48364">
        <ele>382.74</ele>
        <time>2017-07-07T06:33:59Z</time>
      </trkpt>
      <trkpt lat="46.36533" lon="6.48369">
        <ele>382.26</ele>
        <time>2017-07-07T06:34:06Z</time>
      </trkpt>
      <trkpt lat="46.36526" lon="6.48378">
        <ele>382.74</ele>
        <time>2017-07-07T06:34:15Z</time>
      </trkpt>
      <trkpt lat="46.36523" lon="6.48382">
        <ele>382.26</ele>
        <time>2017-07-07T06:34:19Z</time>
      </trkpt>
      <trkpt lat="46.36517" lon="6.48395">
        <ele>382.74</ele>
        <time>2017-07-07T06:34:27Z</time>
      </trkpt>
      <trkpt lat="46.36516" lon="6.48407">
        <ele>383.22</ele>
        <time>2017-07-07T06:34:35Z</time>
      </trkpt>
      <trkpt lat="46.36514" lon="6.48414">
        <ele>382.74</ele>
        <time>2017-07-07T06:34:39Z</time>
      </trkpt>
      <trkpt lat="46.36512" lon="6.48421">
        <ele>383.7</ele>
        <time>2017-07-07T06:34:44Z</time>
      </trkpt>
      <trkpt lat="46.36509" lon="6.4845">
        <ele>385.15</ele>
        <time>2017-07-07T06:35:03Z</time>
      </trkpt>
      <trkpt lat="46.36507" lon="6.48473">
        <ele>386.59</ele>
        <time>2017-07-07T06:35:17Z</time>
      </trkpt>
      <trkpt lat="46.36498" lon="6.48492">
        <ele>387.07</ele>
        <time>2017-07-07T06:35:30Z</time>
      </trkpt>
      <trkpt lat="46.36483" lon="6.48506">
        <ele>386.59</ele>
        <time>2017-07-07T06:35:45Z</time>
      </trkpt>
      <trkpt lat="46.36475" lon="6.48513">
        <ele>387.07</ele>
        <time>2017-07-07T06:35:53Z</time>
      </trkpt>
      <trkpt lat="46.3647" lon="6.48515">
        <ele>387.07</ele>
        <time>2017-07-07T06:35:57Z</time>
      </trkpt>
      <trkpt lat="46.36457" lon="6.48525">
        <ele>388.03</ele>
        <time>2017-07-07T06:36:10Z</time>
      </trkpt>
      <trkpt lat="46.36444" lon="6.48535">
        <ele>388.03</ele>
        <time>2017-07-07T06:36:25Z</time>
      </trkpt>
      <trkpt lat="46.36434" lon="6.4854">
        <ele>388.99</ele>
        <time>2017-07-07T06:36:36Z</time>
      </trkpt>
      <trkpt lat="46.36418" lon="6.48548">
        <ele>389.95</ele>
        <time>2017-07-07T06:36:51Z</time>
      </trkpt>
      <trkpt lat="46.36413" lon="6.48551">
        <ele>389.95</ele>
        <time>2017-07-07T06:36:56Z</time>
      </trkpt>
      <trkpt lat="46.36411" lon="6.48551">
        <ele>390.43</ele>
        <time>2017-07-07T06:36:57Z</time>
      </trkpt>
      <trkpt lat="46.36396" lon="6.48537">
        <ele>390.43</ele>
        <time>2017-07-07T06:37:11Z</time>
      </trkpt>
      <trkpt lat="46.36391" lon="6.48532">
        <ele>391.39</ele>
        <time>2017-07-07T06:37:17Z</time>
      </trkpt>
      <trkpt lat="46.36374" lon="6.48525">
        <ele>391.87</ele>
        <time>2017-07-07T06:37:31Z</time>
      </trkpt>
      <trkpt lat="46.36365" lon="6.48518">
        <ele>393.32</ele>
        <time>2017-07-07T06:37:39Z</time>
      </trkpt>
      <trkpt lat="46.36362" lon="6.48515">
        <ele>393.32</ele>
        <time>2017-07-07T06:37:43Z</time>
      </trkpt>
      <trkpt lat="46.36346" lon="6.48504">
        <ele>394.28</ele>
        <time>2017-07-07T06:37:58Z</time>
      </trkpt>
      <trkpt lat="46.36335" lon="6.48489">
        <ele>394.76</ele>
        <time>2017-07-07T06:38:11Z</time>
      </trkpt>
      <trkpt lat="46.36328" lon="6.48478">
        <ele>395.24</ele>
        <time>2017-07-07T06:38:19Z</time>
      </trkpt>
      <trkpt lat="46.36319" lon="6.48457">
        <ele>395.24</ele>
        <time>2017-07-07T06:38:34Z</time>
      </trkpt>
      <trkpt lat="46.36319" lon="6.4845">
        <ele>395.72</ele>
        <time>2017-07-07T06:38:38Z</time>
      </trkpt>
      <trkpt lat="46.36318" lon="6.48447">
        <ele>395.72</ele>
        <time>2017-07-07T06:38:40Z</time>
      </trkpt>
      <trkpt lat="46.36317" lon="6.48444">
        <ele>395.72</ele>
        <time>2017-07-07T06:38:42Z</time>
      </trkpt>
      <trkpt lat="46.36313" lon="6.48418">
        <ele>395.72</ele>
        <time>2017-07-07T06:38:57Z</time>
      </trkpt>
      <trkpt lat="46.3631" lon="6.48388">
        <ele>395.72</ele>
        <time>2017-07-07T06:39:14Z</time>
      </trkpt>
      <trkpt lat="46.36307" lon="6.48363">
        <ele>395.72</ele>
        <time>2017-07-07T06:39:29Z</time>
      </trkpt>
      <trkpt lat="46.36303" lon="6.48334">
        <ele>395.72</ele>
        <time>2017-07-07T06:39:44Z</time>
      </trkpt>
      <trkpt lat="46.36297" lon="6.48311">
        <ele>395.72</ele>
        <time>2017-07-07T06:39:58Z</time>
      </trkpt>
      <trkpt lat="46.36293" lon="6.483">
        <ele>396.2</ele>
        <time>2017-07-07T06:40:04Z</time>
      </trkpt>
      <trkpt lat="46.3628" lon="6.48281">
        <ele>396.2</ele>
        <time>2017-07-07T06:40:19Z</time>
      </trkpt>
      <trkpt lat="46.36267" lon="6.48264">
        <ele>397.16</ele>
        <time>2017-07-07T06:40:36Z</time>
      </trkpt>
      <trkpt lat="46.36265" lon="6.48262">
        <ele>397.16</ele>
        <time>2017-07-07T06:40:38Z</time>
      </trkpt>
      <trkpt lat="46.36243" lon="6.48256">
        <ele>398.12</ele>
        <time>2017-07-07T06:40:55Z</time>
      </trkpt>
      <trkpt lat="46.36239" lon="6.48255">
        <ele>398.12</ele>
        <time>2017-07-07T06:40:58Z</time>
      </trkpt>
      <trkpt lat="46.36222" lon="6.48255">
        <ele>398.6</ele>
        <time>2017-07-07T06:41:13Z</time>
      </trkpt>
      <trkpt lat="46.3621" lon="6.48272">
        <ele>401.01</ele>
        <time>2017-07-07T06:41:29Z</time>
      </trkpt>
      <trkpt lat="46.36201" lon="6.48291">
        <ele>401.97</ele>
        <time>2017-07-07T06:41:45Z</time>
      </trkpt>
      <trkpt lat="46.3619" lon="6.48307">
        <ele>403.41</ele>
        <time>2017-07-07T06:42:01Z</time>
      </trkpt>
      <trkpt lat="46.36179" lon="6.48324">
        <ele>404.37</ele>
        <time>2017-07-07T06:42:15Z</time>
      </trkpt>
      <trkpt lat="46.36168" lon="6.48349">
        <ele>404.37</ele>
        <time>2017-07-07T06:42:32Z</time>
      </trkpt>
      <trkpt lat="46.36157" lon="6.48376">
        <ele>404.85</ele>
        <time>2017-07-07T06:42:49Z</time>
      </trkpt>
      <trkpt lat="46.36144" lon="6.48395">
        <ele>405.81</ele>
        <time>2017-07-07T06:43:04Z</time>
      </trkpt>
      <trkpt lat="46.36131" lon="6.48406">
        <ele>406.77</ele>
        <time>2017-07-07T06:43:16Z</time>
      </trkpt>
      <trkpt lat="46.36114" lon="6.48417">
        <ele>409.18</ele>
        <time>2017-07-07T06:43:30Z</time>
      </trkpt>
      <trkpt lat="46.36099" lon="6.48422">
        <ele>409.66</ele>
        <time>2017-07-07T06:43:44Z</time>
      </trkpt>
      <trkpt lat="46.36082" lon="6.48434">
        <ele>412.06</ele>
        <time>2017-07-07T06:44:02Z</time>
      </trkpt>
      <trkpt lat="46.36066" lon="6.48442">
        <ele>413.98</ele>
        <time>2017-07-07T06:44:20Z</time>
      </trkpt>
      <trkpt lat="46.36052" lon="6.48464">
        <ele>415.43</ele>
        <time>2017-07-07T06:44:38Z</time>
      </trkpt>
      <trkpt lat="46.36037" lon="6.48462">
        <ele>416.87</ele>
        <time>2017-07-07T06:44:52Z</time>
      </trkpt>
      <trkpt lat="46.36024" lon="6.4847">
        <ele>419.27</ele>
        <time>2017-07-07T06:45:09Z</time>
      </trkpt>
      <trkpt lat="46.3601" lon="6.48477">
        <ele>421.68</ele>
        <time>2017-07-07T06:45:26Z</time>
      </trkpt>
      <trkpt lat="46.35992" lon="6.4849">
        <ele>424.08</ele>
        <time>2017-07-07T06:45:45Z</time>
      </trkpt>
      <trkpt lat="46.35979" lon="6.48505">
        <ele>426</ele>
        <time>2017-07-07T06:46:02Z</time>
      </trkpt>
      <trkpt lat="46.35967" lon="6.4852">
        <ele>427.44</ele>
        <time>2017-07-07T06:46:18Z</time>
      </trkpt>
      <trkpt lat="46.35957" lon="6.48536">
        <ele>429.85</ele>
        <time>2017-07-07T06:46:34Z</time>
      </trkpt>
      <trkpt lat="46.35952" lon="6.48542">
        <ele>430.81</ele>
        <time>2017-07-07T06:46:42Z</time>
      </trkpt>
      <trkpt lat="46.35941" lon="6.48561">
        <ele>433.21</ele>
        <time>2017-07-07T06:47:00Z</time>
      </trkpt>
      <trkpt lat="46.35926" lon="6.48576">
        <ele>436.58</ele>
        <time>2017-07-07T06:47:19Z</time>
      </trkpt>
      <trkpt lat="46.35914" lon="6.48587">
        <ele>438.98</ele>
        <time>2017-07-07T06:47:36Z</time>
      </trkpt>
      <trkpt lat="46.35912" lon="6.48589">
        <ele>438.5</ele>
        <time>2017-07-07T06:47:39Z</time>
      </trkpt>
      <trkpt lat="46.35897" lon="6.48604">
        <ele>440.42</ele>
        <time>2017-07-07T06:47:57Z</time>
      </trkpt>
      <trkpt lat="46.35885" lon="6.48618">
        <ele>441.38</ele>
        <time>2017-07-07T06:48:11Z</time>
      </trkpt>
      <trkpt lat="46.35875" lon="6.48628">
        <ele>441.86</ele>
        <time>2017-07-07T06:48:25Z</time>
      </trkpt>
      <trkpt lat="46.35861" lon="6.48643">
        <ele>442.82</ele>
        <time>2017-07-07T06:48:41Z</time>
      </trkpt>
      <trkpt lat="46.35857" lon="6.48653">
        <ele>443.31</ele>
        <time>2017-07-07T06:48:55Z</time>
      </trkpt>
      <trkpt lat="46.35857" lon="6.48654">
        <ele>443.31</ele>
        <time>2017-07-07T06:49:01Z</time>
      </trkpt>
      <trkpt lat="46.35853" lon="6.48659">
        <ele>442.82</ele>
        <time>2017-07-07T06:49:05Z</time>
      </trkpt>
      <trkpt lat="46.35849" lon="6.48661">
        <ele>443.31</ele>
        <time>2017-07-07T06:49:09Z</time>
      </trkpt>
      <trkpt lat="46.35833" lon="6.48678">
        <ele>444.27</ele>
        <time>2017-07-07T06:49:25Z</time>
      </trkpt>
      <trkpt lat="46.35817" lon="6.48698">
        <ele>445.23</ele>
        <time>2017-07-07T06:49:42Z</time>
      </trkpt>
      <trkpt lat="46.35804" lon="6.48716">
        <ele>445.23</ele>
        <time>2017-07-07T06:49:57Z</time>
      </trkpt>
      <trkpt lat="46.35789" lon="6.48732">
        <ele>445.23</ele>
        <time>2017-07-07T06:50:14Z</time>
      </trkpt>
      <trkpt lat="46.35773" lon="6.48749">
        <ele>445.71</ele>
        <time>2017-07-07T06:50:31Z</time>
      </trkpt>
      <trkpt lat="46.35756" lon="6.48769">
        <ele>445.71</ele>
        <time>2017-07-07T06:50:49Z</time>
      </trkpt>
      <trkpt lat="46.35739" lon="6.48786">
        <ele>446.67</ele>
        <time>2017-07-07T06:51:07Z</time>
      </trkpt>
      <trkpt lat="46.35726" lon="6.48806">
        <ele>447.15</ele>
        <time>2017-07-07T06:51:23Z</time>
      </trkpt>
      <trkpt lat="46.35712" lon="6.48822">
        <ele>447.63</ele>
        <time>2017-07-07T06:51:38Z</time>
      </trkpt>
      <trkpt lat="46.35699" lon="6.48837">
        <ele>448.11</ele>
        <time>2017-07-07T06:51:53Z</time>
      </trkpt>
      <trkpt lat="46.35684" lon="6.4885">
        <ele>448.11</ele>
        <time>2017-07-07T06:52:09Z</time>
      </trkpt>
      <trkpt lat="46.35667" lon="6.48863">
        <ele>449.07</ele>
        <time>2017-07-07T06:52:25Z</time>
      </trkpt>
      <trkpt lat="46.35652" lon="6.4888">
        <ele>450.03</ele>
        <time>2017-07-07T06:52:41Z</time>
      </trkpt>
      <trkpt lat="46.35647" lon="6.48884">
        <ele>449.55</ele>
        <time>2017-07-07T06:52:46Z</time>
      </trkpt>
      <trkpt lat="46.35634" lon="6.48896">
        <ele>451</ele>
        <time>2017-07-07T06:53:04Z</time>
      </trkpt>
      <trkpt lat="46.35629" lon="6.48902">
        <ele>451.96</ele>
        <time>2017-07-07T06:53:09Z</time>
      </trkpt>
      <trkpt lat="46.35623" lon="6.48909">
        <ele>452.92</ele>
        <time>2017-07-07T06:53:17Z</time>
      </trkpt>
      <trkpt lat="46.35622" lon="6.48905">
        <ele>453.4</ele>
        <time>2017-07-07T06:53:44Z</time>
      </trkpt>
      <trkpt lat="46.35621" lon="6.48909">
        <ele>453.88</ele>
        <time>2017-07-07T06:53:56Z</time>
      </trkpt>
      <trkpt lat="46.35616" lon="6.48926">
        <ele>454.84</ele>
        <time>2017-07-07T06:54:13Z</time>
      </trkpt>
      <trkpt lat="46.35613" lon="6.48927">
        <ele>454.36</ele>
        <time>2017-07-07T06:54:18Z</time>
      </trkpt>
      <trkpt lat="46.35611" lon="6.48928">
        <ele>453.88</ele>
        <time>2017-07-07T06:54:20Z</time>
      </trkpt>
      <trkpt lat="46.35605" lon="6.48935">
        <ele>454.36</ele>
        <time>2017-07-07T06:54:25Z</time>
      </trkpt>
      <trkpt lat="46.35587" lon="6.48953">
        <ele>454.36</ele>
        <time>2017-07-07T06:54:41Z</time>
      </trkpt>
      <trkpt lat="46.35584" lon="6.48954">
        <ele>454.36</ele>
        <time>2017-07-07T06:54:46Z</time>
      </trkpt>
      <trkpt lat="46.35576" lon="6.48961">
        <ele>454.36</ele>
        <time>2017-07-07T06:54:58Z</time>
      </trkpt>
      <trkpt lat="46.35564" lon="6.48977">
        <ele>455.32</ele>
        <time>2017-07-07T06:55:12Z</time>
      </trkpt>
      <trkpt lat="46.35553" lon="6.48992">
        <ele>455.32</ele>
        <time>2017-07-07T06:55:23Z</time>
      </trkpt>
      <trkpt lat="46.35549" lon="6.48998">
        <ele>455.32</ele>
        <time>2017-07-07T06:55:28Z</time>
      </trkpt>
      <trkpt lat="46.35548" lon="6.49004">
        <ele>455.8</ele>
        <time>2017-07-07T06:55:32Z</time>
      </trkpt>
      <trkpt lat="46.35539" lon="6.49032">
        <ele>455.8</ele>
        <time>2017-07-07T06:55:48Z</time>
      </trkpt>
      <trkpt lat="46.35538" lon="6.49059">
        <ele>456.76</ele>
        <time>2017-07-07T06:56:03Z</time>
      </trkpt>
      <trkpt lat="46.35538" lon="6.49064">
        <ele>457.72</ele>
        <time>2017-07-07T06:56:23Z</time>
      </trkpt>
      <trkpt lat="46.35536" lon="6.49071">
        <ele>459.17</ele>
        <time>2017-07-07T06:56:31Z</time>
      </trkpt>
      <trkpt lat="46.35545" lon="6.49091">
        <ele>460.61</ele>
        <time>2017-07-07T06:56:43Z</time>
      </trkpt>
      <trkpt lat="46.35545" lon="6.4911">
        <ele>462.53</ele>
        <time>2017-07-07T06:56:59Z</time>
      </trkpt>
      <trkpt lat="46.35539" lon="6.49125">
        <ele>464.93</ele>
        <time>2017-07-07T06:57:16Z</time>
      </trkpt>
      <trkpt lat="46.35527" lon="6.4914">
        <ele>465.42</ele>
        <time>2017-07-07T06:57:33Z</time>
      </trkpt>
      <trkpt lat="46.35516" lon="6.49154">
        <ele>466.86</ele>
        <time>2017-07-07T06:57:49Z</time>
      </trkpt>
      <trkpt lat="46.35495" lon="6.49174">
        <ele>466.86</ele>
        <time>2017-07-07T06:58:01Z</time>
      </trkpt>
      <trkpt lat="46.35487" lon="6.49179">
        <ele>467.34</ele>
        <time>2017-07-07T06:58:08Z</time>
      </trkpt>
      <trkpt lat="46.35484" lon="6.4918">
        <ele>467.34</ele>
        <time>2017-07-07T06:58:11Z</time>
      </trkpt>
      <trkpt lat="46.35478" lon="6.49181">
        <ele>467.34</ele>
        <time>2017-07-07T06:58:19Z</time>
      </trkpt>
      <trkpt lat="46.35473" lon="6.49183">
        <ele>467.34</ele>
        <time>2017-07-07T06:58:22Z</time>
      </trkpt>
      <trkpt lat="46.35456" lon="6.4919">
        <ele>467.82</ele>
        <time>2017-07-07T06:58:36Z</time>
      </trkpt>
      <trkpt lat="46.35455" lon="6.4919">
        <ele>468.78</ele>
        <time>2017-07-07T06:58:38Z</time>
      </trkpt>
      <trkpt lat="46.35453" lon="6.4919">
        <ele>468.3</ele>
        <time>2017-07-07T06:58:40Z</time>
      </trkpt>
      <trkpt lat="46.35449" lon="6.49193">
        <ele>468.78</ele>
        <time>2017-07-07T06:58:43Z</time>
      </trkpt>
      <trkpt lat="46.35448" lon="6.49194">
        <ele>468.78</ele>
        <time>2017-07-07T06:58:45Z</time>
      </trkpt>
      <trkpt lat="46.35445" lon="6.49192">
        <ele>468.78</ele>
        <time>2017-07-07T06:58:48Z</time>
      </trkpt>
      <trkpt lat="46.35442" lon="6.49195">
        <ele>469.26</ele>
        <time>2017-07-07T06:58:52Z</time>
      </trkpt>
      <trkpt lat="46.35439" lon="6.49196">
        <ele>469.26</ele>
        <time>2017-07-07T06:58:54Z</time>
      </trkpt>
      <trkpt lat="46.35428" lon="6.49202">
        <ele>470.22</ele>
        <time>2017-07-07T06:59:01Z</time>
      </trkpt>
      <trkpt lat="46.35415" lon="6.4921">
        <ele>470.7</ele>
        <time>2017-07-07T06:59:10Z</time>
      </trkpt>
      <trkpt lat="46.35407" lon="6.49218">
        <ele>471.18</ele>
        <time>2017-07-07T06:59:16Z</time>
      </trkpt>
      <trkpt lat="46.35395" lon="6.49231">
        <ele>472.14</ele>
        <time>2017-07-07T06:59:31Z</time>
      </trkpt>
      <trkpt lat="46.35394" lon="6.49231">
        <ele>472.63</ele>
        <time>2017-07-07T06:59:47Z</time>
      </trkpt>
      <trkpt lat="46.35392" lon="6.49236">
        <ele>473.11</ele>
        <time>2017-07-07T07:00:02Z</time>
      </trkpt>
      <trkpt lat="46.35378" lon="6.49249">
        <ele>474.07</ele>
        <time>2017-07-07T07:00:16Z</time>
      </trkpt>
      <trkpt lat="46.35376" lon="6.4925">
        <ele>473.59</ele>
        <time>2017-07-07T07:00:20Z</time>
      </trkpt>
      <trkpt lat="46.35373" lon="6.49251">
        <ele>474.55</ele>
        <time>2017-07-07T07:00:23Z</time>
      </trkpt>
      <trkpt lat="46.3537" lon="6.49253">
        <ele>475.03</ele>
        <time>2017-07-07T07:00:35Z</time>
      </trkpt>
      <trkpt lat="46.35341" lon="6.4928">
        <ele>475.51</ele>
        <time>2017-07-07T07:00:55Z</time>
      </trkpt>
      <trkpt lat="46.35331" lon="6.49288">
        <ele>475.99</ele>
        <time>2017-07-07T07:01:04Z</time>
      </trkpt>
      <trkpt lat="46.35328" lon="6.49288">
        <ele>476.47</ele>
        <time>2017-07-07T07:01:08Z</time>
      </trkpt>
      <trkpt lat="46.35321" lon="6.4929">
        <ele>476.47</ele>
        <time>2017-07-07T07:01:14Z</time>
      </trkpt>
      <trkpt lat="46.35316" lon="6.49291">
        <ele>476.95</ele>
        <time>2017-07-07T07:01:21Z</time>
      </trkpt>
      <trkpt lat="46.35314" lon="6.4929">
        <ele>477.43</ele>
        <time>2017-07-07T07:01:23Z</time>
      </trkpt>
      <trkpt lat="46.35313" lon="6.4929">
        <ele>477.43</ele>
        <time>2017-07-07T07:01:27Z</time>
      </trkpt>
      <trkpt lat="46.35298" lon="6.49299">
        <ele>478.39</ele>
        <time>2017-07-07T07:01:37Z</time>
      </trkpt>
      <trkpt lat="46.35293" lon="6.49303">
        <ele>479.35</ele>
        <time>2017-07-07T07:01:42Z</time>
      </trkpt>
      <trkpt lat="46.35282" lon="6.49307">
        <ele>480.32</ele>
        <time>2017-07-07T07:01:52Z</time>
      </trkpt>
      <trkpt lat="46.35276" lon="6.49314">
        <ele>480.8</ele>
        <time>2017-07-07T07:01:57Z</time>
      </trkpt>
      <trkpt lat="46.35267" lon="6.49319">
        <ele>483.2</ele>
        <time>2017-07-07T07:02:14Z</time>
      </trkpt>
      <trkpt lat="46.35264" lon="6.49321">
        <ele>483.2</ele>
        <time>2017-07-07T07:02:17Z</time>
      </trkpt>
      <trkpt lat="46.35257" lon="6.49323">
        <ele>484.64</ele>
        <time>2017-07-07T07:02:31Z</time>
      </trkpt>
      <trkpt lat="46.35251" lon="6.49321">
        <ele>486.08</ele>
        <time>2017-07-07T07:02:42Z</time>
      </trkpt>
      <trkpt lat="46.35248" lon="6.49316">
        <ele>486.56</ele>
        <time>2017-07-07T07:02:47Z</time>
      </trkpt>
      <trkpt lat="46.35244" lon="6.49316">
        <ele>487.05</ele>
        <time>2017-07-07T07:02:50Z</time>
      </trkpt>
      <trkpt lat="46.35239" lon="6.49315">
        <ele>488.97</ele>
        <time>2017-07-07T07:03:08Z</time>
      </trkpt>
      <trkpt lat="46.35234" lon="6.49312">
        <ele>491.37</ele>
        <time>2017-07-07T07:03:28Z</time>
      </trkpt>
      <trkpt lat="46.35221" lon="6.49307">
        <ele>493.77</ele>
        <time>2017-07-07T07:03:48Z</time>
      </trkpt>
      <trkpt lat="46.35196" lon="6.49298">
        <ele>496.18</ele>
        <time>2017-07-07T07:04:11Z</time>
      </trkpt>
      <trkpt lat="46.35194" lon="6.49298">
        <ele>498.1</ele>
        <time>2017-07-07T07:04:29Z</time>
      </trkpt>
      <trkpt lat="46.35174" lon="6.49282">
        <ele>500.02</ele>
        <time>2017-07-07T07:04:48Z</time>
      </trkpt>
      <trkpt lat="46.3516" lon="6.49272">
        <ele>502.91</ele>
        <time>2017-07-07T07:05:09Z</time>
      </trkpt>
      <trkpt lat="46.35136" lon="6.49271">
        <ele>504.83</ele>
        <time>2017-07-07T07:05:26Z</time>
      </trkpt>
      <trkpt lat="46.3513" lon="6.4926">
        <ele>505.31</ele>
        <time>2017-07-07T07:05:32Z</time>
      </trkpt>
      <trkpt lat="46.35128" lon="6.49258">
        <ele>505.31</ele>
        <time>2017-07-07T07:05:34Z</time>
      </trkpt>
      <trkpt lat="46.35123" lon="6.49256">
        <ele>506.75</ele>
        <time>2017-07-07T07:05:41Z</time>
      </trkpt>
      <trkpt lat="46.35116" lon="6.49249">
        <ele>507.71</ele>
        <time>2017-07-07T07:05:54Z</time>
      </trkpt>
      <trkpt lat="46.35112" lon="6.49243">
        <ele>508.67</ele>
        <time>2017-07-07T07:06:03Z</time>
      </trkpt>
      <trkpt lat="46.35109" lon="6.49241">
        <ele>510.12</ele>
        <time>2017-07-07T07:06:11Z</time>
      </trkpt>
      <trkpt lat="46.35107" lon="6.49239">
        <ele>510.12</ele>
        <time>2017-07-07T07:06:13Z</time>
      </trkpt>
      <trkpt lat="46.35095" lon="6.49232">
        <ele>512.52</ele>
        <time>2017-07-07T07:06:30Z</time>
      </trkpt>
      <trkpt lat="46.35092" lon="6.4923">
        <ele>513</ele>
        <time>2017-07-07T07:06:35Z</time>
      </trkpt>
      <trkpt lat="46.35088" lon="6.49224">
        <ele>513.48</ele>
        <time>2017-07-07T07:06:39Z</time>
      </trkpt>
      <trkpt lat="46.35085" lon="6.49219">
        <ele>513.48</ele>
        <time>2017-07-07T07:06:43Z</time>
      </trkpt>
      <trkpt lat="46.35075" lon="6.4921">
        <ele>515.4</ele>
        <time>2017-07-07T07:06:55Z</time>
      </trkpt>
      <trkpt lat="46.35074" lon="6.49208">
        <ele>515.4</ele>
        <time>2017-07-07T07:07:00Z</time>
      </trkpt>
      <trkpt lat="46.35064" lon="6.49189">
        <ele>517.33</ele>
        <time>2017-07-07T07:07:15Z</time>
      </trkpt>
      <trkpt lat="46.3506" lon="6.49177">
        <ele>518.29</ele>
        <time>2017-07-07T07:07:29Z</time>
      </trkpt>
      <trkpt lat="46.35057" lon="6.49172">
        <ele>518.77</ele>
        <time>2017-07-07T07:07:46Z</time>
      </trkpt>
      <trkpt lat="46.35058" lon="6.49174">
        <ele>518.77</ele>
        <time>2017-07-07T07:07:51Z</time>
      </trkpt>
      <trkpt lat="46.35057" lon="6.49182">
        <ele>518.77</ele>
        <time>2017-07-07T07:08:01Z</time>
      </trkpt>
      <trkpt lat="46.35058" lon="6.49178">
        <ele>519.25</ele>
        <time>2017-07-07T07:08:17Z</time>
      </trkpt>
      <trkpt lat="46.35058" lon="6.49177">
        <ele>519.25</ele>
        <time>2017-07-07T07:08:36Z</time>
      </trkpt>
      <trkpt lat="46.35058" lon="6.49177">
        <ele>519.73</ele>
        <time>2017-07-07T07:09:01Z</time>
      </trkpt>
      <trkpt lat="46.35058" lon="6.49178">
        <ele>519.25</ele>
        <time>2017-07-07T07:09:23Z</time>
      </trkpt>
      <trkpt lat="46.35058" lon="6.49178">
        <ele>514.92</ele>
        <time>2017-07-07T07:09:25Z</time>
      </trkpt>
      <trkpt lat="46.35058" lon="6.49178">
        <ele>523.58</ele>
        <time>2017-07-07T07:09:26Z</time>
      </trkpt>
      <trkpt lat="46.35058" lon="6.49178">
        <ele>518.29</ele>
        <time>2017-07-07T07:09:27Z</time>
      </trkpt>
      <trkpt lat="46.35058" lon="6.49178">
        <ele>514.92</ele>
        <time>2017-07-07T07:09:33Z</time>
      </trkpt>
      <trkpt lat="46.35058" lon="6.49178">
        <ele>520.21</ele>
        <time>2017-07-07T07:09:34Z</time>
      </trkpt>
      <trkpt lat="46.35058" lon="6.49178">
        <ele>523.09</ele>
        <time>2017-07-07T07:09:48Z</time>
      </trkpt>
      <trkpt lat="46.35058" lon="6.49178">
        <ele>518.29</ele>
        <time>2017-07-07T07:09:49Z</time>
      </trkpt>
      <trkpt lat="46.35058" lon="6.49177">
        <ele>521.65</ele>
        <time>2017-07-07T07:10:10Z</time>
      </trkpt>
      <trkpt lat="46.35056" lon="6.49174">
        <ele>521.17</ele>
        <time>2017-07-07T07:10:15Z</time>
      </trkpt>
      <trkpt lat="46.35054" lon="6.4917">
        <ele>521.17</ele>
        <time>2017-07-07T07:10:18Z</time>
      </trkpt>
      <trkpt lat="46.35052" lon="6.49167">
        <ele>521.65</ele>
        <time>2017-07-07T07:10:35Z</time>
      </trkpt>
      <trkpt lat="46.35052" lon="6.49167">
        <ele>522.61</ele>
        <time>2017-07-07T07:10:55Z</time>
      </trkpt>
      <trkpt lat="46.35052" lon="6.49167">
        <ele>522.61</ele>
        <time>2017-07-07T07:11:25Z</time>
      </trkpt>
      <trkpt lat="46.35052" lon="6.49167">
        <ele>523.09</ele>
        <time>2017-07-07T07:11:50Z</time>
      </trkpt>
      <trkpt lat="46.35052" lon="6.49166">
        <ele>523.58</ele>
        <time>2017-07-07T07:12:09Z</time>
      </trkpt>
      <trkpt lat="46.35053" lon="6.49168">
        <ele>523.58</ele>
        <time>2017-07-07T07:12:22Z</time>
      </trkpt>
      <trkpt lat="46.35059" lon="6.49169">
        <ele>523.58</ele>
        <time>2017-07-07T07:12:26Z</time>
      </trkpt>
      <trkpt lat="46.35063" lon="6.49179">
        <ele>523.09</ele>
        <time>2017-07-07T07:12:35Z</time>
      </trkpt>
      <trkpt lat="46.35063" lon="6.49181">
        <ele>523.09</ele>
        <time>2017-07-07T07:12:38Z</time>
      </trkpt>
      <trkpt lat="46.35065" lon="6.49181">
        <ele>519.73</ele>
        <time>2017-07-07T07:12:40Z</time>
      </trkpt>
      <trkpt lat="46.35065" lon="6.49181">
        <ele>523.09</ele>
        <time>2017-07-07T07:12:41Z</time>
      </trkpt>
      <trkpt lat="46.35065" lon="6.49181">
        <ele>523.09</ele>
        <time>2017-07-07T07:12:46Z</time>
      </trkpt>
      <trkpt lat="46.35065" lon="6.49181">
        <ele>523.58</ele>
        <time>2017-07-07T07:13:12Z</time>
      </trkpt>
      <trkpt lat="46.35058" lon="6.49175">
        <ele>524.06</ele>
        <time>2017-07-07T07:13:44Z</time>
      </trkpt>
      <trkpt lat="46.35057" lon="6.4917">
        <ele>524.54</ele>
        <time>2017-07-07T07:13:48Z</time>
      </trkpt>
      <trkpt lat="46.3505" lon="6.49166">
        <ele>525.02</ele>
        <time>2017-07-07T07:13:55Z</time>
      </trkpt>
      <trkpt lat="46.35045" lon="6.49161">
        <ele>525.02</ele>
        <time>2017-07-07T07:14:00Z</time>
      </trkpt>
      <trkpt lat="46.35038" lon="6.49151">
        <ele>525.98</ele>
        <time>2017-07-07T07:14:12Z</time>
      </trkpt>
      <trkpt lat="46.35036" lon="6.49149">
        <ele>525.98</ele>
        <time>2017-07-07T07:14:14Z</time>
      </trkpt>
      <trkpt lat="46.35024" lon="6.49132">
        <ele>526.46</ele>
        <time>2017-07-07T07:14:30Z</time>
      </trkpt>
      <trkpt lat="46.35017" lon="6.49118">
        <ele>526.46</ele>
        <time>2017-07-07T07:14:40Z</time>
      </trkpt>
      <trkpt lat="46.35014" lon="6.49108">
        <ele>526.94</ele>
        <time>2017-07-07T07:14:55Z</time>
      </trkpt>
      <trkpt lat="46.35015" lon="6.49109">
        <ele>531.27</ele>
        <time>2017-07-07T07:15:16Z</time>
      </trkpt>
      <trkpt lat="46.35016" lon="6.49111">
        <ele>525.02</ele>
        <time>2017-07-07T07:15:17Z</time>
      </trkpt>
      <trkpt lat="46.35016" lon="6.49112">
        <ele>530.3</ele>
        <time>2017-07-07T07:15:18Z</time>
      </trkpt>
      <trkpt lat="46.35017" lon="6.49113">
        <ele>523.09</ele>
        <time>2017-07-07T07:15:19Z</time>
      </trkpt>
      <trkpt lat="46.35018" lon="6.49115">
        <ele>526.46</ele>
        <time>2017-07-07T07:15:20Z</time>
      </trkpt>
      <trkpt lat="46.35018" lon="6.49117">
        <ele>527.42</ele>
        <time>2017-07-07T07:15:22Z</time>
      </trkpt>
      <trkpt lat="46.35018" lon="6.49119">
        <ele>526.94</ele>
        <time>2017-07-07T07:15:23Z</time>
      </trkpt>
      <trkpt lat="46.35027" lon="6.49123">
        <ele>526.94</ele>
        <time>2017-07-07T07:15:28Z</time>
      </trkpt>
      <trkpt lat="46.35031" lon="6.49128">
        <ele>526.94</ele>
        <time>2017-07-07T07:15:33Z</time>
      </trkpt>
      <trkpt lat="46.35034" lon="6.49132">
        <ele>522.13</ele>
        <time>2017-07-07T07:15:37Z</time>
      </trkpt>
      <trkpt lat="46.35035" lon="6.49134">
        <ele>527.9</ele>
        <time>2017-07-07T07:15:38Z</time>
      </trkpt>
      <trkpt lat="46.35036" lon="6.49138">
        <ele>526.46</ele>
        <time>2017-07-07T07:15:47Z</time>
      </trkpt>
      <trkpt lat="46.3504" lon="6.49145">
        <ele>525.98</ele>
        <time>2017-07-07T07:15:54Z</time>
      </trkpt>
      <trkpt lat="46.35049" lon="6.4916">
        <ele>528.86</ele>
        <time>2017-07-07T07:16:07Z</time>
      </trkpt>
      <trkpt lat="46.35049" lon="6.49161">
        <ele>526.46</ele>
        <time>2017-07-07T07:16:09Z</time>
      </trkpt>
      <trkpt lat="46.35049" lon="6.49164">
        <ele>526.46</ele>
        <time>2017-07-07T07:16:11Z</time>
      </trkpt>
      <trkpt lat="46.35061" lon="6.49171">
        <ele>526.94</ele>
        <time>2017-07-07T07:16:20Z</time>
      </trkpt>
      <trkpt lat="46.35066" lon="6.49185">
        <ele>525.5</ele>
        <time>2017-07-07T07:16:36Z</time>
      </trkpt>
      <trkpt lat="46.3508" lon="6.49203">
        <ele>524.54</ele>
        <time>2017-07-07T07:16:53Z</time>
      </trkpt>
      <trkpt lat="46.35098" lon="6.49221">
        <ele>523.09</ele>
        <time>2017-07-07T07:17:08Z</time>
      </trkpt>
      <trkpt lat="46.35102" lon="6.49226">
        <ele>521.65</ele>
        <time>2017-07-07T07:17:14Z</time>
      </trkpt>
      <trkpt lat="46.3511" lon="6.49228">
        <ele>520.21</ele>
        <time>2017-07-07T07:17:22Z</time>
      </trkpt>
      <trkpt lat="46.35116" lon="6.49235">
        <ele>518.77</ele>
        <time>2017-07-07T07:17:32Z</time>
      </trkpt>
      <trkpt lat="46.35137" lon="6.49248">
        <ele>516.85</ele>
        <time>2017-07-07T07:17:48Z</time>
      </trkpt>
      <trkpt lat="46.35149" lon="6.49259">
        <ele>514.44</ele>
        <time>2017-07-07T07:18:01Z</time>
      </trkpt>
      <trkpt lat="46.35158" lon="6.49268">
        <ele>512.52</ele>
        <time>2017-07-07T07:18:10Z</time>
      </trkpt>
      <trkpt lat="46.35172" lon="6.49283">
        <ele>510.12</ele>
        <time>2017-07-07T07:18:26Z</time>
      </trkpt>
      <trkpt lat="46.35189" lon="6.49281">
        <ele>508.19</ele>
        <time>2017-07-07T07:18:42Z</time>
      </trkpt>
      <trkpt lat="46.35192" lon="6.49282">
        <ele>508.19</ele>
        <time>2017-07-07T07:18:45Z</time>
      </trkpt>
      <trkpt lat="46.35203" lon="6.49283">
        <ele>506.27</ele>
        <time>2017-07-07T07:18:56Z</time>
      </trkpt>
      <trkpt lat="46.35212" lon="6.49292">
        <ele>505.31</ele>
        <time>2017-07-07T07:19:07Z</time>
      </trkpt>
      <trkpt lat="46.35215" lon="6.49297">
        <ele>504.35</ele>
        <time>2017-07-07T07:19:10Z</time>
      </trkpt>
      <trkpt lat="46.35223" lon="6.49301">
        <ele>503.39</ele>
        <time>2017-07-07T07:19:21Z</time>
      </trkpt>
      <trkpt lat="46.35235" lon="6.49308">
        <ele>501.95</ele>
        <time>2017-07-07T07:19:32Z</time>
      </trkpt>
      <trkpt lat="46.35239" lon="6.49309">
        <ele>501.95</ele>
        <time>2017-07-07T07:19:36Z</time>
      </trkpt>
      <trkpt lat="46.3525" lon="6.49312">
        <ele>500.5</ele>
        <time>2017-07-07T07:19:46Z</time>
      </trkpt>
      <trkpt lat="46.35255" lon="6.49314">
        <ele>500.02</ele>
        <time>2017-07-07T07:19:52Z</time>
      </trkpt>
      <trkpt lat="46.35262" lon="6.49312">
        <ele>498.58</ele>
        <time>2017-07-07T07:20:00Z</time>
      </trkpt>
      <trkpt lat="46.35277" lon="6.49306">
        <ele>497.14</ele>
        <time>2017-07-07T07:20:07Z</time>
      </trkpt>
      <trkpt lat="46.35283" lon="6.49303">
        <ele>497.14</ele>
        <time>2017-07-07T07:20:13Z</time>
      </trkpt>
      <trkpt lat="46.35292" lon="6.49294">
        <ele>496.66</ele>
        <time>2017-07-07T07:20:29Z</time>
      </trkpt>
      <trkpt lat="46.35294" lon="6.49293">
        <ele>496.18</ele>
        <time>2017-07-07T07:20:31Z</time>
      </trkpt>
      <trkpt lat="46.35298" lon="6.49289">
        <ele>497.14</ele>
        <time>2017-07-07T07:20:35Z</time>
      </trkpt>
      <trkpt lat="46.35312" lon="6.49282">
        <ele>494.74</ele>
        <time>2017-07-07T07:20:52Z</time>
      </trkpt>
      <trkpt lat="46.35316" lon="6.49278">
        <ele>494.26</ele>
        <time>2017-07-07T07:20:58Z</time>
      </trkpt>
      <trkpt lat="46.35325" lon="6.49275">
        <ele>494.26</ele>
        <time>2017-07-07T07:21:02Z</time>
      </trkpt>
      <trkpt lat="46.35338" lon="6.49269">
        <ele>493.77</ele>
        <time>2017-07-07T07:21:09Z</time>
      </trkpt>
      <trkpt lat="46.35345" lon="6.49265">
        <ele>493.77</ele>
        <time>2017-07-07T07:21:13Z</time>
      </trkpt>
      <trkpt lat="46.3535" lon="6.49262">
        <ele>493.77</ele>
        <time>2017-07-07T07:21:21Z</time>
      </trkpt>
      <trkpt lat="46.3536" lon="6.4925">
        <ele>493.77</ele>
        <time>2017-07-07T07:21:28Z</time>
      </trkpt>
      <trkpt lat="46.3537" lon="6.49242">
        <ele>487.53</ele>
        <time>2017-07-07T07:21:36Z</time>
      </trkpt>
      <trkpt lat="46.3537" lon="6.49242">
        <ele>495.22</ele>
        <time>2017-07-07T07:21:37Z</time>
      </trkpt>
      <trkpt lat="46.35373" lon="6.49241">
        <ele>494.74</ele>
        <time>2017-07-07T07:21:45Z</time>
      </trkpt>
      <trkpt lat="46.35381" lon="6.49239">
        <ele>494.26</ele>
        <time>2017-07-07T07:21:52Z</time>
      </trkpt>
      <trkpt lat="46.35402" lon="6.49233">
        <ele>495.22</ele>
        <time>2017-07-07T07:22:08Z</time>
      </trkpt>
      <trkpt lat="46.35414" lon="6.49231">
        <ele>496.18</ele>
        <time>2017-07-07T07:22:25Z</time>
      </trkpt>
      <trkpt lat="46.35413" lon="6.49231">
        <ele>496.18</ele>
        <time>2017-07-07T07:22:27Z</time>
      </trkpt>
      <trkpt lat="46.3541" lon="6.49227">
        <ele>495.7</ele>
        <time>2017-07-07T07:22:43Z</time>
      </trkpt>
      <trkpt lat="46.35414" lon="6.49227">
        <ele>495.7</ele>
        <time>2017-07-07T07:22:48Z</time>
      </trkpt>
      <trkpt lat="46.35417" lon="6.4923">
        <ele>495.7</ele>
        <time>2017-07-07T07:23:02Z</time>
      </trkpt>
      <trkpt lat="46.35423" lon="6.49235">
        <ele>495.22</ele>
        <time>2017-07-07T07:23:09Z</time>
      </trkpt>
      <trkpt lat="46.35427" lon="6.49236">
        <ele>495.22</ele>
        <time>2017-07-07T07:23:24Z</time>
      </trkpt>
      <trkpt lat="46.35448" lon="6.49242">
        <ele>493.29</ele>
        <time>2017-07-07T07:23:40Z</time>
      </trkpt>
      <trkpt lat="46.35455" lon="6.49247">
        <ele>493.29</ele>
        <time>2017-07-07T07:23:47Z</time>
      </trkpt>
      <trkpt lat="46.35471" lon="6.49262">
        <ele>491.85</ele>
        <time>2017-07-07T07:24:02Z</time>
      </trkpt>
      <trkpt lat="46.35482" lon="6.49267">
        <ele>490.89</ele>
        <time>2017-07-07T07:24:12Z</time>
      </trkpt>
      <trkpt lat="46.35503" lon="6.49273">
        <ele>490.89</ele>
        <time>2017-07-07T07:24:29Z</time>
      </trkpt>
      <trkpt lat="46.35508" lon="6.49271">
        <ele>490.41</ele>
        <time>2017-07-07T07:24:35Z</time>
      </trkpt>
      <trkpt lat="46.35514" lon="6.49273">
        <ele>489.93</ele>
        <time>2017-07-07T07:24:42Z</time>
      </trkpt>
      <trkpt lat="46.35518" lon="6.49271">
        <ele>490.41</ele>
        <time>2017-07-07T07:24:46Z</time>
      </trkpt>
      <trkpt lat="46.35542" lon="6.49275">
        <ele>489.45</ele>
        <time>2017-07-07T07:25:05Z</time>
      </trkpt>
      <trkpt lat="46.35543" lon="6.49276">
        <ele>488.97</ele>
        <time>2017-07-07T07:25:06Z</time>
      </trkpt>
      <trkpt lat="46.35545" lon="6.49285">
        <ele>488.97</ele>
        <time>2017-07-07T07:25:16Z</time>
      </trkpt>
      <trkpt lat="46.35555" lon="6.49284">
        <ele>488.49</ele>
        <time>2017-07-07T07:25:21Z</time>
      </trkpt>
      <trkpt lat="46.35558" lon="6.49286">
        <ele>488.97</ele>
        <time>2017-07-07T07:25:24Z</time>
      </trkpt>
      <trkpt lat="46.35561" lon="6.49289">
        <ele>488.49</ele>
        <time>2017-07-07T07:25:28Z</time>
      </trkpt>
      <trkpt lat="46.35566" lon="6.4929">
        <ele>488.01</ele>
        <time>2017-07-07T07:25:31Z</time>
      </trkpt>
      <trkpt lat="46.35572" lon="6.49294">
        <ele>488.01</ele>
        <time>2017-07-07T07:25:39Z</time>
      </trkpt>
      <trkpt lat="46.35576" lon="6.49298">
        <ele>488.01</ele>
        <time>2017-07-07T07:25:43Z</time>
      </trkpt>
      <trkpt lat="46.3558" lon="6.49303">
        <ele>487.53</ele>
        <time>2017-07-07T07:25:47Z</time>
      </trkpt>
      <trkpt lat="46.35582" lon="6.49304">
        <ele>487.05</ele>
        <time>2017-07-07T07:25:50Z</time>
      </trkpt>
      <trkpt lat="46.35589" lon="6.49317">
        <ele>487.05</ele>
        <time>2017-07-07T07:25:58Z</time>
      </trkpt>
      <trkpt lat="46.35602" lon="6.49333">
        <ele>487.05</ele>
        <time>2017-07-07T07:26:15Z</time>
      </trkpt>
      <trkpt lat="46.35605" lon="6.49335">
        <ele>486.56</ele>
        <time>2017-07-07T07:26:18Z</time>
      </trkpt>
      <trkpt lat="46.35607" lon="6.49339">
        <ele>486.56</ele>
        <time>2017-07-07T07:26:20Z</time>
      </trkpt>
      <trkpt lat="46.35628" lon="6.49346">
        <ele>486.08</ele>
        <time>2017-07-07T07:26:32Z</time>
      </trkpt>
      <trkpt lat="46.35652" lon="6.49361">
        <ele>486.08</ele>
        <time>2017-07-07T07:26:50Z</time>
      </trkpt>
      <trkpt lat="46.35668" lon="6.49373">
        <ele>486.56</ele>
        <time>2017-07-07T07:27:06Z</time>
      </trkpt>
      <trkpt lat="46.35686" lon="6.4939">
        <ele>486.56</ele>
        <time>2017-07-07T07:27:24Z</time>
      </trkpt>
      <trkpt lat="46.35695" lon="6.49405">
        <ele>487.05</ele>
        <time>2017-07-07T07:27:40Z</time>
      </trkpt>
      <trkpt lat="46.35694" lon="6.49414">
        <ele>487.05</ele>
        <time>2017-07-07T07:27:49Z</time>
      </trkpt>
      <trkpt lat="46.3569" lon="6.49429">
        <ele>489.45</ele>
        <time>2017-07-07T07:28:04Z</time>
      </trkpt>
      <trkpt lat="46.35683" lon="6.49449">
        <ele>491.37</ele>
        <time>2017-07-07T07:28:19Z</time>
      </trkpt>
      <trkpt lat="46.35682" lon="6.4946">
        <ele>492.33</ele>
        <time>2017-07-07T07:28:28Z</time>
      </trkpt>
      <trkpt lat="46.35678" lon="6.49481">
        <ele>494.26</ele>
        <time>2017-07-07T07:28:46Z</time>
      </trkpt>
      <trkpt lat="46.35678" lon="6.4949">
        <ele>494.74</ele>
        <time>2017-07-07T07:28:55Z</time>
      </trkpt>
      <trkpt lat="46.35673" lon="6.49513">
        <ele>496.18</ele>
        <time>2017-07-07T07:29:12Z</time>
      </trkpt>
      <trkpt lat="46.35673" lon="6.49522">
        <ele>497.14</ele>
        <time>2017-07-07T07:29:20Z</time>
      </trkpt>
      <trkpt lat="46.35675" lon="6.49529">
        <ele>497.62</ele>
        <time>2017-07-07T07:29:27Z</time>
      </trkpt>
      <trkpt lat="46.35679" lon="6.49536">
        <ele>499.54</ele>
        <time>2017-07-07T07:29:36Z</time>
      </trkpt>
      <trkpt lat="46.35679" lon="6.49537">
        <ele>499.54</ele>
        <time>2017-07-07T07:29:39Z</time>
      </trkpt>
      <trkpt lat="46.35684" lon="6.49556">
        <ele>501.46</ele>
        <time>2017-07-07T07:29:57Z</time>
      </trkpt>
      <trkpt lat="46.35688" lon="6.49562">
        <ele>501.95</ele>
        <time>2017-07-07T07:30:00Z</time>
      </trkpt>
      <trkpt lat="46.35691" lon="6.49572">
        <ele>503.87</ele>
        <time>2017-07-07T07:30:11Z</time>
      </trkpt>
      <trkpt lat="46.35694" lon="6.49588">
        <ele>505.31</ele>
        <time>2017-07-07T07:30:29Z</time>
      </trkpt>
      <trkpt lat="46.35695" lon="6.49591">
        <ele>505.79</ele>
        <time>2017-07-07T07:30:32Z</time>
      </trkpt>
      <trkpt lat="46.35695" lon="6.49594">
        <ele>506.27</ele>
        <time>2017-07-07T07:30:38Z</time>
      </trkpt>
      <trkpt lat="46.35701" lon="6.49606">
        <ele>508.19</ele>
        <time>2017-07-07T07:30:54Z</time>
      </trkpt>
      <trkpt lat="46.3571" lon="6.49623">
        <ele>509.64</ele>
        <time>2017-07-07T07:31:11Z</time>
      </trkpt>
      <trkpt lat="46.35719" lon="6.49636">
        <ele>512.52</ele>
        <time>2017-07-07T07:31:29Z</time>
      </trkpt>
      <trkpt lat="46.35719" lon="6.49646">
        <ele>513.48</ele>
        <time>2017-07-07T07:31:45Z</time>
      </trkpt>
      <trkpt lat="46.3572" lon="6.49662">
        <ele>516.37</ele>
        <time>2017-07-07T07:32:01Z</time>
      </trkpt>
      <trkpt lat="46.35723" lon="6.49671">
        <ele>516.85</ele>
        <time>2017-07-07T07:32:09Z</time>
      </trkpt>
      <trkpt lat="46.35726" lon="6.49677">
        <ele>517.33</ele>
        <time>2017-07-07T07:32:14Z</time>
      </trkpt>
      <trkpt lat="46.35729" lon="6.49692">
        <ele>518.77</ele>
        <time>2017-07-07T07:32:25Z</time>
      </trkpt>
      <trkpt lat="46.35734" lon="6.49704">
        <ele>520.69</ele>
        <time>2017-07-07T07:32:43Z</time>
      </trkpt>
      <trkpt lat="46.35742" lon="6.49717">
        <ele>521.65</ele>
        <time>2017-07-07T07:32:52Z</time>
      </trkpt>
      <trkpt lat="46.35748" lon="6.49723">
        <ele>522.61</ele>
        <time>2017-07-07T07:33:00Z</time>
      </trkpt>
      <trkpt lat="46.35754" lon="6.49732">
        <ele>524.54</ele>
        <time>2017-07-07T07:33:13Z</time>
      </trkpt>
      <trkpt lat="46.35757" lon="6.49743">
        <ele>525.02</ele>
        <time>2017-07-07T07:33:29Z</time>
      </trkpt>
      <trkpt lat="46.35757" lon="6.49745">
        <ele>525.5</ele>
        <time>2017-07-07T07:33:33Z</time>
      </trkpt>
      <trkpt lat="46.35758" lon="6.49747">
        <ele>525.98</ele>
        <time>2017-07-07T07:33:36Z</time>
      </trkpt>
      <trkpt lat="46.3576" lon="6.49747">
        <ele>526.46</ele>
        <time>2017-07-07T07:33:39Z</time>
      </trkpt>
      <trkpt lat="46.35759" lon="6.4975">
        <ele>525.98</ele>
        <time>2017-07-07T07:33:57Z</time>
      </trkpt>
      <trkpt lat="46.35759" lon="6.4975">
        <ele>525.98</ele>
        <time>2017-07-07T07:34:27Z</time>
      </trkpt>
      <trkpt lat="46.35759" lon="6.4975">
        <ele>526.46</ele>
        <time>2017-07-07T07:34:56Z</time>
      </trkpt>
      <trkpt lat="46.35759" lon="6.4975">
        <ele>526.46</ele>
        <time>2017-07-07T07:35:26Z</time>
      </trkpt>
      <trkpt lat="46.35759" lon="6.49754">
        <ele>528.86</ele>
        <time>2017-07-07T07:35:37Z</time>
      </trkpt>
      <trkpt lat="46.35764" lon="6.49768">
        <ele>530.3</ele>
        <time>2017-07-07T07:35:48Z</time>
      </trkpt>
      <trkpt lat="46.35764" lon="6.4979">
        <ele>532.23</ele>
        <time>2017-07-07T07:36:04Z</time>
      </trkpt>
      <trkpt lat="46.35764" lon="6.49792">
        <ele>532.71</ele>
        <time>2017-07-07T07:36:05Z</time>
      </trkpt>
      <trkpt lat="46.35761" lon="6.49801">
        <ele>533.67</ele>
        <time>2017-07-07T07:36:13Z</time>
      </trkpt>
      <trkpt lat="46.35757" lon="6.49811">
        <ele>535.59</ele>
        <time>2017-07-07T07:36:25Z</time>
      </trkpt>
      <trkpt lat="46.3575" lon="6.49828">
        <ele>537.99</ele>
        <time>2017-07-07T07:36:42Z</time>
      </trkpt>
      <trkpt lat="46.35749" lon="6.4983">
        <ele>538.48</ele>
        <time>2017-07-07T07:36:47Z</time>
      </trkpt>
      <trkpt lat="46.35743" lon="6.49849">
        <ele>540.88</ele>
        <time>2017-07-07T07:37:03Z</time>
      </trkpt>
      <trkpt lat="46.35739" lon="6.49858">
        <ele>542.32</ele>
        <time>2017-07-07T07:37:18Z</time>
      </trkpt>
      <trkpt lat="46.35737" lon="6.49869">
        <ele>544.72</ele>
        <time>2017-07-07T07:37:37Z</time>
      </trkpt>
      <trkpt lat="46.35735" lon="6.49872">
        <ele>544.72</ele>
        <time>2017-07-07T07:37:39Z</time>
      </trkpt>
      <trkpt lat="46.35733" lon="6.4988">
        <ele>546.65</ele>
        <time>2017-07-07T07:37:54Z</time>
      </trkpt>
      <trkpt lat="46.35733" lon="6.49889">
        <ele>547.13</ele>
        <time>2017-07-07T07:38:00Z</time>
      </trkpt>
      <trkpt lat="46.35731" lon="6.49898">
        <ele>550.01</ele>
        <time>2017-07-07T07:38:20Z</time>
      </trkpt>
      <trkpt lat="46.35725" lon="6.49911">
        <ele>551.93</ele>
        <time>2017-07-07T07:38:37Z</time>
      </trkpt>
      <trkpt lat="46.35722" lon="6.49918">
        <ele>553.38</ele>
        <time>2017-07-07T07:38:45Z</time>
      </trkpt>
      <trkpt lat="46.35715" lon="6.49939">
        <ele>555.3</ele>
        <time>2017-07-07T07:39:00Z</time>
      </trkpt>
      <trkpt lat="46.35709" lon="6.49955">
        <ele>555.78</ele>
        <time>2017-07-07T07:39:16Z</time>
      </trkpt>
      <trkpt lat="46.35709" lon="6.49955">
        <ele>556.26</ele>
        <time>2017-07-07T07:39:23Z</time>
      </trkpt>
      <trkpt lat="46.35718" lon="6.49969">
        <ele>556.74</ele>
        <time>2017-07-07T07:39:39Z</time>
      </trkpt>
      <trkpt lat="46.3572" lon="6.49971">
        <ele>557.22</ele>
        <time>2017-07-07T07:39:41Z</time>
      </trkpt>
      <trkpt lat="46.35727" lon="6.49992">
        <ele>557.22</ele>
        <time>2017-07-07T07:39:57Z</time>
      </trkpt>
      <trkpt lat="46.35728" lon="6.49994">
        <ele>557.22</ele>
        <time>2017-07-07T07:39:58Z</time>
      </trkpt>
      <trkpt lat="46.35733" lon="6.50014">
        <ele>556.74</ele>
        <time>2017-07-07T07:40:14Z</time>
      </trkpt>
      <trkpt lat="46.35731" lon="6.50019">
        <ele>557.22</ele>
        <time>2017-07-07T07:40:18Z</time>
      </trkpt>
      <trkpt lat="46.35728" lon="6.50022">
        <ele>557.22</ele>
        <time>2017-07-07T07:40:22Z</time>
      </trkpt>
      <trkpt lat="46.35711" lon="6.50031">
        <ele>557.22</ele>
        <time>2017-07-07T07:40:38Z</time>
      </trkpt>
      <trkpt lat="46.35694" lon="6.50044">
        <ele>557.7</ele>
        <time>2017-07-07T07:40:53Z</time>
      </trkpt>
      <trkpt lat="46.35677" lon="6.50055">
        <ele>558.18</ele>
        <time>2017-07-07T07:41:09Z</time>
      </trkpt>
      <trkpt lat="46.35667" lon="6.50061">
        <ele>558.18</ele>
        <time>2017-07-07T07:41:18Z</time>
      </trkpt>
      <trkpt lat="46.35648" lon="6.50078">
        <ele>558.66</ele>
        <time>2017-07-07T07:41:34Z</time>
      </trkpt>
      <trkpt lat="46.35641" lon="6.50087">
        <ele>559.14</ele>
        <time>2017-07-07T07:41:40Z</time>
      </trkpt>
      <trkpt lat="46.35646" lon="6.50111">
        <ele>558.66</ele>
        <time>2017-07-07T07:41:56Z</time>
      </trkpt>
      <trkpt lat="46.35653" lon="6.50132">
        <ele>558.66</ele>
        <time>2017-07-07T07:42:14Z</time>
      </trkpt>
      <trkpt lat="46.35662" lon="6.50152">
        <ele>559.62</ele>
        <time>2017-07-07T07:42:29Z</time>
      </trkpt>
      <trkpt lat="46.35662" lon="6.50171">
        <ele>561.55</ele>
        <time>2017-07-07T07:42:44Z</time>
      </trkpt>
      <trkpt lat="46.35658" lon="6.50177">
        <ele>563.47</ele>
        <time>2017-07-07T07:42:53Z</time>
      </trkpt>
      <trkpt lat="46.35655" lon="6.50176">
        <ele>562.99</ele>
        <time>2017-07-07T07:42:56Z</time>
      </trkpt>
      <trkpt lat="46.35651" lon="6.50174">
        <ele>563.47</ele>
        <time>2017-07-07T07:42:59Z</time>
      </trkpt>
      <trkpt lat="46.35648" lon="6.50175">
        <ele>563.95</ele>
        <time>2017-07-07T07:43:02Z</time>
      </trkpt>
      <trkpt lat="46.35644" lon="6.50173">
        <ele>564.91</ele>
        <time>2017-07-07T07:43:07Z</time>
      </trkpt>
      <trkpt lat="46.35641" lon="6.50171">
        <ele>564.91</ele>
        <time>2017-07-07T07:43:09Z</time>
      </trkpt>
      <trkpt lat="46.35634" lon="6.50171">
        <ele>565.39</ele>
        <time>2017-07-07T07:43:16Z</time>
      </trkpt>
      <trkpt lat="46.3563" lon="6.50171">
        <ele>565.87</ele>
        <time>2017-07-07T07:43:19Z</time>
      </trkpt>
      <trkpt lat="46.35623" lon="6.5017">
        <ele>567.32</ele>
        <time>2017-07-07T07:43:36Z</time>
      </trkpt>
      <trkpt lat="46.35623" lon="6.5017">
        <ele>566.83</ele>
        <time>2017-07-07T07:44:04Z</time>
      </trkpt>
      <trkpt lat="46.35622" lon="6.50171">
        <ele>567.32</ele>
        <time>2017-07-07T07:44:29Z</time>
      </trkpt>
      <trkpt lat="46.35617" lon="6.50172">
        <ele>568.76</ele>
        <time>2017-07-07T07:44:41Z</time>
      </trkpt>
      <trkpt lat="46.35614" lon="6.50176">
        <ele>569.72</ele>
        <time>2017-07-07T07:44:48Z</time>
      </trkpt>
      <trkpt lat="46.35608" lon="6.50174">
        <ele>572.6</ele>
        <time>2017-07-07T07:45:01Z</time>
      </trkpt>
      <trkpt lat="46.35606" lon="6.50174">
        <ele>572.6</ele>
        <time>2017-07-07T07:45:02Z</time>
      </trkpt>
      <trkpt lat="46.35595" lon="6.5017">
        <ele>574.04</ele>
        <time>2017-07-07T07:45:14Z</time>
      </trkpt>
      <trkpt lat="46.35589" lon="6.50173">
        <ele>576.45</ele>
        <time>2017-07-07T07:45:31Z</time>
      </trkpt>
      <trkpt lat="46.35585" lon="6.50172">
        <ele>576.93</ele>
        <time>2017-07-07T07:45:41Z</time>
      </trkpt>
      <trkpt lat="46.3557" lon="6.50161">
        <ele>577.89</ele>
        <time>2017-07-07T07:45:51Z</time>
      </trkpt>
      <trkpt lat="46.35567" lon="6.50161">
        <ele>577.89</ele>
        <time>2017-07-07T07:45:55Z</time>
      </trkpt>
      <trkpt lat="46.35557" lon="6.50152">
        <ele>580.29</ele>
        <time>2017-07-07T07:46:11Z</time>
      </trkpt>
      <trkpt lat="46.35557" lon="6.50152">
        <ele>581.25</ele>
        <time>2017-07-07T07:46:15Z</time>
      </trkpt>
      <trkpt lat="46.35553" lon="6.50147">
        <ele>581.25</ele>
        <time>2017-07-07T07:46:18Z</time>
      </trkpt>
      <trkpt lat="46.3555" lon="6.50141">
        <ele>581.73</ele>
        <time>2017-07-07T07:46:23Z</time>
      </trkpt>
      <trkpt lat="46.35544" lon="6.50135">
        <ele>583.18</ele>
        <time>2017-07-07T07:46:32Z</time>
      </trkpt>
      <trkpt lat="46.35535" lon="6.50126">
        <ele>585.1</ele>
        <time>2017-07-07T07:46:48Z</time>
      </trkpt>
      <trkpt lat="46.35532" lon="6.5012">
        <ele>586.54</ele>
        <time>2017-07-07T07:46:58Z</time>
      </trkpt>
      <trkpt lat="46.35517" lon="6.50107">
        <ele>587.98</ele>
        <time>2017-07-07T07:47:13Z</time>
      </trkpt>
      <trkpt lat="46.35512" lon="6.50104">
        <ele>587.98</ele>
        <time>2017-07-07T07:47:18Z</time>
      </trkpt>
      <trkpt lat="46.35506" lon="6.50098">
        <ele>588.95</ele>
        <time>2017-07-07T07:47:26Z</time>
      </trkpt>
      <trkpt lat="46.35499" lon="6.50093">
        <ele>590.87</ele>
        <time>2017-07-07T07:47:42Z</time>
      </trkpt>
      <trkpt lat="46.35497" lon="6.50091">
        <ele>591.35</ele>
        <time>2017-07-07T07:47:45Z</time>
      </trkpt>
      <trkpt lat="46.35487" lon="6.50087">
        <ele>592.79</ele>
        <time>2017-07-07T07:47:59Z</time>
      </trkpt>
      <trkpt lat="46.35482" lon="6.50084">
        <ele>593.75</ele>
        <time>2017-07-07T07:48:04Z</time>
      </trkpt>
      <trkpt lat="46.35474" lon="6.50085">
        <ele>595.19</ele>
        <time>2017-07-07T07:48:20Z</time>
      </trkpt>
      <trkpt lat="46.35474" lon="6.50086">
        <ele>595.67</ele>
        <time>2017-07-07T07:48:21Z</time>
      </trkpt>
      <trkpt lat="46.35471" lon="6.50089">
        <ele>596.64</ele>
        <time>2017-07-07T07:48:40Z</time>
      </trkpt>
      <trkpt lat="46.3547" lon="6.50094">
        <ele>596.64</ele>
        <time>2017-07-07T07:48:55Z</time>
      </trkpt>
      <trkpt lat="46.35472" lon="6.50103">
        <ele>596.64</ele>
        <time>2017-07-07T07:49:05Z</time>
      </trkpt>
      <trkpt lat="46.35485" lon="6.50119">
        <ele>596.64</ele>
        <time>2017-07-07T07:49:20Z</time>
      </trkpt>
      <trkpt lat="46.35497" lon="6.50126">
        <ele>597.12</ele>
        <time>2017-07-07T07:49:33Z</time>
      </trkpt>
      <trkpt lat="46.35511" lon="6.50139">
        <ele>597.12</ele>
        <time>2017-07-07T07:49:48Z</time>
      </trkpt>
      <trkpt lat="46.35526" lon="6.50151">
        <ele>597.12</ele>
        <time>2017-07-07T07:50:01Z</time>
      </trkpt>
      <trkpt lat="46.35529" lon="6.50157">
        <ele>596.64</ele>
        <time>2017-07-07T07:50:09Z</time>
      </trkpt>
      <trkpt lat="46.3553" lon="6.50158">
        <ele>597.12</ele>
        <time>2017-07-07T07:50:37Z</time>
      </trkpt>
      <trkpt lat="46.3553" lon="6.50158">
        <ele>594.23</ele>
        <time>2017-07-07T07:50:43Z</time>
      </trkpt>
      <trkpt lat="46.3553" lon="6.50158">
        <ele>598.08</ele>
        <time>2017-07-07T07:50:44Z</time>
      </trkpt>
      <trkpt lat="46.35531" lon="6.50159">
        <ele>597.12</ele>
        <time>2017-07-07T07:50:49Z</time>
      </trkpt>
      <trkpt lat="46.35547" lon="6.50178">
        <ele>594.71</ele>
        <time>2017-07-07T07:51:05Z</time>
      </trkpt>
      <trkpt lat="46.35564" lon="6.50202">
        <ele>594.23</ele>
        <time>2017-07-07T07:51:22Z</time>
      </trkpt>
      <trkpt lat="46.3557" lon="6.50212">
        <ele>593.75</ele>
        <time>2017-07-07T07:51:30Z</time>
      </trkpt>
      <trkpt lat="46.35575" lon="6.5022">
        <ele>594.23</ele>
        <time>2017-07-07T07:51:37Z</time>
      </trkpt>
      <trkpt lat="46.35581" lon="6.50248">
        <ele>594.23</ele>
        <time>2017-07-07T07:51:53Z</time>
      </trkpt>
      <trkpt lat="46.35585" lon="6.50273">
        <ele>594.23</ele>
        <time>2017-07-07T07:52:10Z</time>
      </trkpt>
      <trkpt lat="46.35589" lon="6.5029">
        <ele>594.23</ele>
        <time>2017-07-07T07:52:20Z</time>
      </trkpt>
      <trkpt lat="46.35589" lon="6.50296">
        <ele>594.71</ele>
        <time>2017-07-07T07:52:25Z</time>
      </trkpt>
      <trkpt lat="46.3559" lon="6.503">
        <ele>595.19</ele>
        <time>2017-07-07T07:52:28Z</time>
      </trkpt>
      <trkpt lat="46.35592" lon="6.50305">
        <ele>595.19</ele>
        <time>2017-07-07T07:52:31Z</time>
      </trkpt>
      <trkpt lat="46.35595" lon="6.50311">
        <ele>594.71</ele>
        <time>2017-07-07T07:52:35Z</time>
      </trkpt>
      <trkpt lat="46.35605" lon="6.50334">
        <ele>595.19</ele>
        <time>2017-07-07T07:52:52Z</time>
      </trkpt>
      <trkpt lat="46.35606" lon="6.5034">
        <ele>595.67</ele>
        <time>2017-07-07T07:52:57Z</time>
      </trkpt>
      <trkpt lat="46.35614" lon="6.50364">
        <ele>594.71</ele>
        <time>2017-07-07T07:53:11Z</time>
      </trkpt>
      <trkpt lat="46.35618" lon="6.50376">
        <ele>592.79</ele>
        <time>2017-07-07T07:53:25Z</time>
      </trkpt>
      <trkpt lat="46.35618" lon="6.50391">
        <ele>591.83</ele>
        <time>2017-07-07T07:53:38Z</time>
      </trkpt>
      <trkpt lat="46.35619" lon="6.50397">
        <ele>591.35</ele>
        <time>2017-07-07T07:53:55Z</time>
      </trkpt>
      <trkpt lat="46.35621" lon="6.50398">
        <ele>590.87</ele>
        <time>2017-07-07T07:53:57Z</time>
      </trkpt>
      <trkpt lat="46.35629" lon="6.50406">
        <ele>590.39</ele>
        <time>2017-07-07T07:54:03Z</time>
      </trkpt>
      <trkpt lat="46.35629" lon="6.50416">
        <ele>589.91</ele>
        <time>2017-07-07T07:54:12Z</time>
      </trkpt>
      <trkpt lat="46.35626" lon="6.50431">
        <ele>589.43</ele>
        <time>2017-07-07T07:54:19Z</time>
      </trkpt>
      <trkpt lat="46.35629" lon="6.5044">
        <ele>587.98</ele>
        <time>2017-07-07T07:54:24Z</time>
      </trkpt>
      <trkpt lat="46.35629" lon="6.50454">
        <ele>588.46</ele>
        <time>2017-07-07T07:54:32Z</time>
      </trkpt>
      <trkpt lat="46.3563" lon="6.50469">
        <ele>587.98</ele>
        <time>2017-07-07T07:54:41Z</time>
      </trkpt>
      <trkpt lat="46.35631" lon="6.50474">
        <ele>587.98</ele>
        <time>2017-07-07T07:54:43Z</time>
      </trkpt>
      <trkpt lat="46.35631" lon="6.50476">
        <ele>588.46</ele>
        <time>2017-07-07T07:54:45Z</time>
      </trkpt>
      <trkpt lat="46.3563" lon="6.50484">
        <ele>587.98</ele>
        <time>2017-07-07T07:54:50Z</time>
      </trkpt>
      <trkpt lat="46.3563" lon="6.50489">
        <ele>587.98</ele>
        <time>2017-07-07T07:54:53Z</time>
      </trkpt>
      <trkpt lat="46.3563" lon="6.50492">
        <ele>587.98</ele>
        <time>2017-07-07T07:54:55Z</time>
      </trkpt>
      <trkpt lat="46.35626" lon="6.50509">
        <ele>587.98</ele>
        <time>2017-07-07T07:55:06Z</time>
      </trkpt>
      <trkpt lat="46.35619" lon="6.50522">
        <ele>588.46</ele>
        <time>2017-07-07T07:55:15Z</time>
      </trkpt>
      <trkpt lat="46.35608" lon="6.5054">
        <ele>588.95</ele>
        <time>2017-07-07T07:55:29Z</time>
      </trkpt>
      <trkpt lat="46.35601" lon="6.50562">
        <ele>588.95</ele>
        <time>2017-07-07T07:55:44Z</time>
      </trkpt>
      <trkpt lat="46.356" lon="6.50565">
        <ele>588.95</ele>
        <time>2017-07-07T07:55:46Z</time>
      </trkpt>
      <trkpt lat="46.35601" lon="6.50576">
        <ele>588.95</ele>
        <time>2017-07-07T07:55:52Z</time>
      </trkpt>
      <trkpt lat="46.35604" lon="6.50599">
        <ele>589.43</ele>
        <time>2017-07-07T07:56:04Z</time>
      </trkpt>
      <trkpt lat="46.35601" lon="6.50613">
        <ele>588.95</ele>
        <time>2017-07-07T07:56:12Z</time>
      </trkpt>
      <trkpt lat="46.356" lon="6.50616">
        <ele>588.95</ele>
        <time>2017-07-07T07:56:16Z</time>
      </trkpt>
      <trkpt lat="46.35597" lon="6.50629">
        <ele>589.43</ele>
        <time>2017-07-07T07:56:25Z</time>
      </trkpt>
      <trkpt lat="46.35598" lon="6.50632">
        <ele>588.95</ele>
        <time>2017-07-07T07:56:27Z</time>
      </trkpt>
      <trkpt lat="46.35598" lon="6.50639">
        <ele>589.43</ele>
        <time>2017-07-07T07:56:31Z</time>
      </trkpt>
      <trkpt lat="46.35596" lon="6.5066">
        <ele>589.91</ele>
        <time>2017-07-07T07:56:46Z</time>
      </trkpt>
      <trkpt lat="46.35596" lon="6.50662">
        <ele>589.43</ele>
        <time>2017-07-07T07:56:47Z</time>
      </trkpt>
      <trkpt lat="46.35594" lon="6.50686">
        <ele>589.91</ele>
        <time>2017-07-07T07:57:01Z</time>
      </trkpt>
      <trkpt lat="46.35594" lon="6.50706">
        <ele>589.91</ele>
        <time>2017-07-07T07:57:14Z</time>
      </trkpt>
      <trkpt lat="46.35596" lon="6.50711">
        <ele>589.43</ele>
        <time>2017-07-07T07:57:17Z</time>
      </trkpt>
      <trkpt lat="46.356" lon="6.50738">
        <ele>590.87</ele>
        <time>2017-07-07T07:57:33Z</time>
      </trkpt>
      <trkpt lat="46.35599" lon="6.50761">
        <ele>590.39</ele>
        <time>2017-07-07T07:57:47Z</time>
      </trkpt>
      <trkpt lat="46.35598" lon="6.50762">
        <ele>590.39</ele>
        <time>2017-07-07T07:57:48Z</time>
      </trkpt>
      <trkpt lat="46.35598" lon="6.50767">
        <ele>590.39</ele>
        <time>2017-07-07T07:57:54Z</time>
      </trkpt>
      <trkpt lat="46.35602" lon="6.50795">
        <ele>590.87</ele>
        <time>2017-07-07T07:58:08Z</time>
      </trkpt>
      <trkpt lat="46.35603" lon="6.50795">
        <ele>590.87</ele>
        <time>2017-07-07T07:58:24Z</time>
      </trkpt>
      <trkpt lat="46.35603" lon="6.50795">
        <ele>591.35</ele>
        <time>2017-07-07T07:58:43Z</time>
      </trkpt>
      <trkpt lat="46.35601" lon="6.50799">
        <ele>591.35</ele>
        <time>2017-07-07T07:59:03Z</time>
      </trkpt>
      <trkpt lat="46.35601" lon="6.50802">
        <ele>591.35</ele>
        <time>2017-07-07T07:59:05Z</time>
      </trkpt>
      <trkpt lat="46.35604" lon="6.50813">
        <ele>591.35</ele>
        <time>2017-07-07T07:59:11Z</time>
      </trkpt>
      <trkpt lat="46.35603" lon="6.50838">
        <ele>591.83</ele>
        <time>2017-07-07T07:59:27Z</time>
      </trkpt>
      <trkpt lat="46.35604" lon="6.50845">
        <ele>591.83</ele>
        <time>2017-07-07T07:59:33Z</time>
      </trkpt>
      <trkpt lat="46.35604" lon="6.50873">
        <ele>591.83</ele>
        <time>2017-07-07T07:59:48Z</time>
      </trkpt>
      <trkpt lat="46.35604" lon="6.50875">
        <ele>591.83</ele>
        <time>2017-07-07T07:59:49Z</time>
      </trkpt>
      <trkpt lat="46.356" lon="6.50889">
        <ele>591.35</ele>
        <time>2017-07-07T07:59:57Z</time>
      </trkpt>
      <trkpt lat="46.35601" lon="6.50913">
        <ele>591.35</ele>
        <time>2017-07-07T08:00:13Z</time>
      </trkpt>
      <trkpt lat="46.35608" lon="6.50928">
        <ele>591.35</ele>
        <time>2017-07-07T08:00:23Z</time>
      </trkpt>
      <trkpt lat="46.35626" lon="6.50947">
        <ele>590.87</ele>
        <time>2017-07-07T08:00:40Z</time>
      </trkpt>
      <trkpt lat="46.3564" lon="6.50962">
        <ele>591.35</ele>
        <time>2017-07-07T08:00:56Z</time>
      </trkpt>
      <trkpt lat="46.35657" lon="6.50976">
        <ele>590.87</ele>
        <time>2017-07-07T08:01:12Z</time>
      </trkpt>
      <trkpt lat="46.35667" lon="6.50985">
        <ele>590.87</ele>
        <time>2017-07-07T08:01:24Z</time>
      </trkpt>
      <trkpt lat="46.35678" lon="6.51008">
        <ele>590.39</ele>
        <time>2017-07-07T08:01:38Z</time>
      </trkpt>
      <trkpt lat="46.3568" lon="6.51014">
        <ele>590.39</ele>
        <time>2017-07-07T08:01:42Z</time>
      </trkpt>
      <trkpt lat="46.35685" lon="6.51043">
        <ele>590.39</ele>
        <time>2017-07-07T08:01:58Z</time>
      </trkpt>
      <trkpt lat="46.35685" lon="6.51048">
        <ele>590.87</ele>
        <time>2017-07-07T08:02:02Z</time>
      </trkpt>
      <trkpt lat="46.35687" lon="6.51072">
        <ele>590.39</ele>
        <time>2017-07-07T08:02:17Z</time>
      </trkpt>
      <trkpt lat="46.35687" lon="6.51075">
        <ele>590.39</ele>
        <time>2017-07-07T08:02:19Z</time>
      </trkpt>
      <trkpt lat="46.3569" lon="6.5109">
        <ele>590.87</ele>
        <time>2017-07-07T08:02:32Z</time>
      </trkpt>
      <trkpt lat="46.35692" lon="6.51095">
        <ele>590.39</ele>
        <time>2017-07-07T08:02:34Z</time>
      </trkpt>
      <trkpt lat="46.35693" lon="6.51102">
        <ele>590.87</ele>
        <time>2017-07-07T08:02:37Z</time>
      </trkpt>
      <trkpt lat="46.35698" lon="6.51113">
        <ele>591.35</ele>
        <time>2017-07-07T08:02:46Z</time>
      </trkpt>
      <trkpt lat="46.35699" lon="6.51117">
        <ele>591.83</ele>
        <time>2017-07-07T08:02:49Z</time>
      </trkpt>
      <trkpt lat="46.35703" lon="6.51125">
        <ele>592.31</ele>
        <time>2017-07-07T08:02:57Z</time>
      </trkpt>
      <trkpt lat="46.35704" lon="6.51131">
        <ele>592.31</ele>
        <time>2017-07-07T08:03:01Z</time>
      </trkpt>
      <trkpt lat="46.3571" lon="6.51143">
        <ele>593.27</ele>
        <time>2017-07-07T08:03:09Z</time>
      </trkpt>
      <trkpt lat="46.35715" lon="6.51151">
        <ele>593.75</ele>
        <time>2017-07-07T08:03:18Z</time>
      </trkpt>
      <trkpt lat="46.35726" lon="6.51174">
        <ele>594.23</ele>
        <time>2017-07-07T08:03:34Z</time>
      </trkpt>
      <trkpt lat="46.35735" lon="6.51188">
        <ele>595.19</ele>
        <time>2017-07-07T08:03:46Z</time>
      </trkpt>
      <trkpt lat="46.35754" lon="6.51189">
        <ele>595.67</ele>
        <time>2017-07-07T08:04:01Z</time>
      </trkpt>
      <trkpt lat="46.35756" lon="6.51189">
        <ele>595.67</ele>
        <time>2017-07-07T08:04:03Z</time>
      </trkpt>
      <trkpt lat="46.35774" lon="6.5118">
        <ele>597.12</ele>
        <time>2017-07-07T08:04:20Z</time>
      </trkpt>
      <trkpt lat="46.35786" lon="6.5117">
        <ele>597.12</ele>
        <time>2017-07-07T08:04:36Z</time>
      </trkpt>
      <trkpt lat="46.35788" lon="6.51165">
        <ele>597.6</ele>
        <time>2017-07-07T08:04:40Z</time>
      </trkpt>
      <trkpt lat="46.35794" lon="6.51143">
        <ele>598.56</ele>
        <time>2017-07-07T08:04:58Z</time>
      </trkpt>
      <trkpt lat="46.35794" lon="6.51141">
        <ele>599.04</ele>
        <time>2017-07-07T08:04:59Z</time>
      </trkpt>
      <trkpt lat="46.35795" lon="6.51136">
        <ele>599.52</ele>
        <time>2017-07-07T08:05:03Z</time>
      </trkpt>
      <trkpt lat="46.35794" lon="6.5113">
        <ele>600.48</ele>
        <time>2017-07-07T08:05:06Z</time>
      </trkpt>
      <trkpt lat="46.35796" lon="6.51117">
        <ele>600.96</ele>
        <time>2017-07-07T08:05:16Z</time>
      </trkpt>
      <trkpt lat="46.35798" lon="6.51112">
        <ele>601.44</ele>
        <time>2017-07-07T08:05:20Z</time>
      </trkpt>
      <trkpt lat="46.358" lon="6.51104">
        <ele>600.96</ele>
        <time>2017-07-07T08:05:26Z</time>
      </trkpt>
      <trkpt lat="46.35803" lon="6.5109">
        <ele>601.92</ele>
        <time>2017-07-07T08:05:33Z</time>
      </trkpt>
      <trkpt lat="46.35801" lon="6.51067">
        <ele>603.36</ele>
        <time>2017-07-07T08:05:48Z</time>
      </trkpt>
      <trkpt lat="46.35801" lon="6.51053">
        <ele>603.36</ele>
        <time>2017-07-07T08:05:56Z</time>
      </trkpt>
      <trkpt lat="46.35804" lon="6.51045">
        <ele>603.85</ele>
        <time>2017-07-07T08:06:03Z</time>
      </trkpt>
      <trkpt lat="46.35803" lon="6.51042">
        <ele>603.85</ele>
        <time>2017-07-07T08:06:05Z</time>
      </trkpt>
      <trkpt lat="46.35802" lon="6.51036">
        <ele>604.81</ele>
        <time>2017-07-07T08:06:09Z</time>
      </trkpt>
      <trkpt lat="46.35802" lon="6.51031">
        <ele>604.81</ele>
        <time>2017-07-07T08:06:12Z</time>
      </trkpt>
      <trkpt lat="46.35803" lon="6.51014">
        <ele>605.77</ele>
        <time>2017-07-07T08:06:26Z</time>
      </trkpt>
      <trkpt lat="46.35806" lon="6.5101">
        <ele>605.77</ele>
        <time>2017-07-07T08:06:30Z</time>
      </trkpt>
      <trkpt lat="46.35812" lon="6.50996">
        <ele>606.73</ele>
        <time>2017-07-07T08:06:44Z</time>
      </trkpt>
      <trkpt lat="46.35819" lon="6.50999">
        <ele>607.69</ele>
        <time>2017-07-07T08:06:50Z</time>
      </trkpt>
      <trkpt lat="46.35822" lon="6.51">
        <ele>607.69</ele>
        <time>2017-07-07T08:06:52Z</time>
      </trkpt>
      <trkpt lat="46.3583" lon="6.51023">
        <ele>607.69</ele>
        <time>2017-07-07T08:07:05Z</time>
      </trkpt>
      <trkpt lat="46.35828" lon="6.51035">
        <ele>608.17</ele>
        <time>2017-07-07T08:07:11Z</time>
      </trkpt>
      <trkpt lat="46.35824" lon="6.51043">
        <ele>608.17</ele>
        <time>2017-07-07T08:07:16Z</time>
      </trkpt>
      <trkpt lat="46.35825" lon="6.51047">
        <ele>607.69</ele>
        <time>2017-07-07T08:07:18Z</time>
      </trkpt>
      <trkpt lat="46.35822" lon="6.51058">
        <ele>608.17</ele>
        <time>2017-07-07T08:07:26Z</time>
      </trkpt>
      <trkpt lat="46.35822" lon="6.51062">
        <ele>607.69</ele>
        <time>2017-07-07T08:07:29Z</time>
      </trkpt>
      <trkpt lat="46.35823" lon="6.51073">
        <ele>608.65</ele>
        <time>2017-07-07T08:07:36Z</time>
      </trkpt>
      <trkpt lat="46.35822" lon="6.51082">
        <ele>608.65</ele>
        <time>2017-07-07T08:07:42Z</time>
      </trkpt>
      <trkpt lat="46.3582" lon="6.51096">
        <ele>608.65</ele>
        <time>2017-07-07T08:07:57Z</time>
      </trkpt>
      <trkpt lat="46.35821" lon="6.51098">
        <ele>609.13</ele>
        <time>2017-07-07T08:08:00Z</time>
      </trkpt>
      <trkpt lat="46.35822" lon="6.51101">
        <ele>608.17</ele>
        <time>2017-07-07T08:08:02Z</time>
      </trkpt>
      <trkpt lat="46.35823" lon="6.51108">
        <ele>609.13</ele>
        <time>2017-07-07T08:08:08Z</time>
      </trkpt>
      <trkpt lat="46.35826" lon="6.51121">
        <ele>608.65</ele>
        <time>2017-07-07T08:08:18Z</time>
      </trkpt>
      <trkpt lat="46.35825" lon="6.51145">
        <ele>610.09</ele>
        <time>2017-07-07T08:08:33Z</time>
      </trkpt>
      <trkpt lat="46.35827" lon="6.51161">
        <ele>609.61</ele>
        <time>2017-07-07T08:08:45Z</time>
      </trkpt>
      <trkpt lat="46.35826" lon="6.51167">
        <ele>609.61</ele>
        <time>2017-07-07T08:08:49Z</time>
      </trkpt>
      <trkpt lat="46.3582" lon="6.51193">
        <ele>609.61</ele>
        <time>2017-07-07T08:09:06Z</time>
      </trkpt>
      <trkpt lat="46.35814" lon="6.51209">
        <ele>610.09</ele>
        <time>2017-07-07T08:09:16Z</time>
      </trkpt>
      <trkpt lat="46.35803" lon="6.51231">
        <ele>610.09</ele>
        <time>2017-07-07T08:09:34Z</time>
      </trkpt>
      <trkpt lat="46.35793" lon="6.5125">
        <ele>610.57</ele>
        <time>2017-07-07T08:09:50Z</time>
      </trkpt>
      <trkpt lat="46.35783" lon="6.51265">
        <ele>611.06</ele>
        <time>2017-07-07T08:10:03Z</time>
      </trkpt>
      <trkpt lat="46.35778" lon="6.51273">
        <ele>611.06</ele>
        <time>2017-07-07T08:10:10Z</time>
      </trkpt>
      <trkpt lat="46.35777" lon="6.51276">
        <ele>611.06</ele>
        <time>2017-07-07T08:10:13Z</time>
      </trkpt>
      <trkpt lat="46.35765" lon="6.51286">
        <ele>611.54</ele>
        <time>2017-07-07T08:10:25Z</time>
      </trkpt>
      <trkpt lat="46.35762" lon="6.51289">
        <ele>611.54</ele>
        <time>2017-07-07T08:10:34Z</time>
      </trkpt>
      <trkpt lat="46.35754" lon="6.51309">
        <ele>611.54</ele>
        <time>2017-07-07T08:10:51Z</time>
      </trkpt>
      <trkpt lat="46.35749" lon="6.51321">
        <ele>612.5</ele>
        <time>2017-07-07T08:11:05Z</time>
      </trkpt>
      <trkpt lat="46.3574" lon="6.51339">
        <ele>612.02</ele>
        <time>2017-07-07T08:11:20Z</time>
      </trkpt>
      <trkpt lat="46.35732" lon="6.51357">
        <ele>612.02</ele>
        <time>2017-07-07T08:11:33Z</time>
      </trkpt>
      <trkpt lat="46.3572" lon="6.51377">
        <ele>611.06</ele>
        <time>2017-07-07T08:11:50Z</time>
      </trkpt>
      <trkpt lat="46.35708" lon="6.51399">
        <ele>610.09</ele>
        <time>2017-07-07T08:12:07Z</time>
      </trkpt>
      <trkpt lat="46.35698" lon="6.51418">
        <ele>609.13</ele>
        <time>2017-07-07T08:12:21Z</time>
      </trkpt>
      <trkpt lat="46.35693" lon="6.51434">
        <ele>608.65</ele>
        <time>2017-07-07T08:12:34Z</time>
      </trkpt>
      <trkpt lat="46.35684" lon="6.51445">
        <ele>608.17</ele>
        <time>2017-07-07T08:12:44Z</time>
      </trkpt>
      <trkpt lat="46.35684" lon="6.51448">
        <ele>608.17</ele>
        <time>2017-07-07T08:12:46Z</time>
      </trkpt>
      <trkpt lat="46.35678" lon="6.51455">
        <ele>609.13</ele>
        <time>2017-07-07T08:12:52Z</time>
      </trkpt>
      <trkpt lat="46.35674" lon="6.51458">
        <ele>609.13</ele>
        <time>2017-07-07T08:13:01Z</time>
      </trkpt>
      <trkpt lat="46.35673" lon="6.51463">
        <ele>608.65</ele>
        <time>2017-07-07T08:13:08Z</time>
      </trkpt>
      <trkpt lat="46.3569" lon="6.51462">
        <ele>606.25</ele>
        <time>2017-07-07T08:13:22Z</time>
      </trkpt>
      <trkpt lat="46.35695" lon="6.51465">
        <ele>604.33</ele>
        <time>2017-07-07T08:13:35Z</time>
      </trkpt>
      <trkpt lat="46.35705" lon="6.51471">
        <ele>603.36</ele>
        <time>2017-07-07T08:13:45Z</time>
      </trkpt>
      <trkpt lat="46.35723" lon="6.51474">
        <ele>602.4</ele>
        <time>2017-07-07T08:14:01Z</time>
      </trkpt>
      <trkpt lat="46.35729" lon="6.51479">
        <ele>601.92</ele>
        <time>2017-07-07T08:14:15Z</time>
      </trkpt>
      <trkpt lat="46.35733" lon="6.51479">
        <ele>601.44</ele>
        <time>2017-07-07T08:14:21Z</time>
      </trkpt>
      <trkpt lat="46.35755" lon="6.51478">
        <ele>601.44</ele>
        <time>2017-07-07T08:14:35Z</time>
      </trkpt>
      <trkpt lat="46.35771" lon="6.51486">
        <ele>600.96</ele>
        <time>2017-07-07T08:14:49Z</time>
      </trkpt>
      <trkpt lat="46.35785" lon="6.51498">
        <ele>599.04</ele>
        <time>2017-07-07T08:15:02Z</time>
      </trkpt>
      <trkpt lat="46.35799" lon="6.5151">
        <ele>596.15</ele>
        <time>2017-07-07T08:15:16Z</time>
      </trkpt>
      <trkpt lat="46.35802" lon="6.51514">
        <ele>596.64</ele>
        <time>2017-07-07T08:15:19Z</time>
      </trkpt>
      <trkpt lat="46.35816" lon="6.51528">
        <ele>596.64</ele>
        <time>2017-07-07T08:15:33Z</time>
      </trkpt>
      <trkpt lat="46.35828" lon="6.51537">
        <ele>596.15</ele>
        <time>2017-07-07T08:15:49Z</time>
      </trkpt>
      <trkpt lat="46.35841" lon="6.51549">
        <ele>596.64</ele>
        <time>2017-07-07T08:16:02Z</time>
      </trkpt>
      <trkpt lat="46.35853" lon="6.51566">
        <ele>597.12</ele>
        <time>2017-07-07T08:16:18Z</time>
      </trkpt>
      <trkpt lat="46.35846" lon="6.51576">
        <ele>597.6</ele>
        <time>2017-07-07T08:16:28Z</time>
      </trkpt>
      <trkpt lat="46.35836" lon="6.51589">
        <ele>598.56</ele>
        <time>2017-07-07T08:16:42Z</time>
      </trkpt>
      <trkpt lat="46.35824" lon="6.51598">
        <ele>600.96</ele>
        <time>2017-07-07T08:16:57Z</time>
      </trkpt>
      <trkpt lat="46.35816" lon="6.51608">
        <ele>602.4</ele>
        <time>2017-07-07T08:17:10Z</time>
      </trkpt>
      <trkpt lat="46.35805" lon="6.51616">
        <ele>604.33</ele>
        <time>2017-07-07T08:17:24Z</time>
      </trkpt>
      <trkpt lat="46.35794" lon="6.51625">
        <ele>605.29</ele>
        <time>2017-07-07T08:17:38Z</time>
      </trkpt>
      <trkpt lat="46.35785" lon="6.51629">
        <ele>605.77</ele>
        <time>2017-07-07T08:17:48Z</time>
      </trkpt>
      <trkpt lat="46.35772" lon="6.51633">
        <ele>607.69</ele>
        <time>2017-07-07T08:18:03Z</time>
      </trkpt>
      <trkpt lat="46.35761" lon="6.51628">
        <ele>609.13</ele>
        <time>2017-07-07T08:18:16Z</time>
      </trkpt>
      <trkpt lat="46.35759" lon="6.51628">
        <ele>609.61</ele>
        <time>2017-07-07T08:18:19Z</time>
      </trkpt>
      <trkpt lat="46.35755" lon="6.51628">
        <ele>610.09</ele>
        <time>2017-07-07T08:18:23Z</time>
      </trkpt>
      <trkpt lat="46.35744" lon="6.51627">
        <ele>610.57</ele>
        <time>2017-07-07T08:18:38Z</time>
      </trkpt>
      <trkpt lat="46.35733" lon="6.5162">
        <ele>612.5</ele>
        <time>2017-07-07T08:18:51Z</time>
      </trkpt>
      <trkpt lat="46.35721" lon="6.5162">
        <ele>613.94</ele>
        <time>2017-07-07T08:19:03Z</time>
      </trkpt>
      <trkpt lat="46.35709" lon="6.51625">
        <ele>615.86</ele>
        <time>2017-07-07T08:19:19Z</time>
      </trkpt>
      <trkpt lat="46.35701" lon="6.51631">
        <ele>616.34</ele>
        <time>2017-07-07T08:19:29Z</time>
      </trkpt>
      <trkpt lat="46.3569" lon="6.51643">
        <ele>616.82</ele>
        <time>2017-07-07T08:19:44Z</time>
      </trkpt>
      <trkpt lat="46.3568" lon="6.51664">
        <ele>617.3</ele>
        <time>2017-07-07T08:20:01Z</time>
      </trkpt>
      <trkpt lat="46.35666" lon="6.51678">
        <ele>617.3</ele>
        <time>2017-07-07T08:20:17Z</time>
      </trkpt>
      <trkpt lat="46.35651" lon="6.51684">
        <ele>617.3</ele>
        <time>2017-07-07T08:20:32Z</time>
      </trkpt>
      <trkpt lat="46.35647" lon="6.51685">
        <ele>617.3</ele>
        <time>2017-07-07T08:20:35Z</time>
      </trkpt>
      <trkpt lat="46.3563" lon="6.5169">
        <ele>617.3</ele>
        <time>2017-07-07T08:20:49Z</time>
      </trkpt>
      <trkpt lat="46.35627" lon="6.51692">
        <ele>616.82</ele>
        <time>2017-07-07T08:20:52Z</time>
      </trkpt>
      <trkpt lat="46.35611" lon="6.51701">
        <ele>617.3</ele>
        <time>2017-07-07T08:21:08Z</time>
      </trkpt>
      <trkpt lat="46.35596" lon="6.5171">
        <ele>617.78</ele>
        <time>2017-07-07T08:21:24Z</time>
      </trkpt>
      <trkpt lat="46.35583" lon="6.5172">
        <ele>618.26</ele>
        <time>2017-07-07T08:21:40Z</time>
      </trkpt>
      <trkpt lat="46.35574" lon="6.51725">
        <ele>618.26</ele>
        <time>2017-07-07T08:21:48Z</time>
      </trkpt>
      <trkpt lat="46.35559" lon="6.51743">
        <ele>618.75</ele>
        <time>2017-07-07T08:22:06Z</time>
      </trkpt>
      <trkpt lat="46.35551" lon="6.51748">
        <ele>619.23</ele>
        <time>2017-07-07T08:22:14Z</time>
      </trkpt>
      <trkpt lat="46.3555" lon="6.51746">
        <ele>619.23</ele>
        <time>2017-07-07T08:22:16Z</time>
      </trkpt>
      <trkpt lat="46.35549" lon="6.51745">
        <ele>615.86</ele>
        <time>2017-07-07T08:22:26Z</time>
      </trkpt>
      <trkpt lat="46.35549" lon="6.51745">
        <ele>619.71</ele>
        <time>2017-07-07T08:22:27Z</time>
      </trkpt>
      <trkpt lat="46.35547" lon="6.51746">
        <ele>619.71</ele>
        <time>2017-07-07T08:22:37Z</time>
      </trkpt>
      <trkpt lat="46.35528" lon="6.51754">
        <ele>619.23</ele>
        <time>2017-07-07T08:22:54Z</time>
      </trkpt>
      <trkpt lat="46.35514" lon="6.51759">
        <ele>619.71</ele>
        <time>2017-07-07T08:23:11Z</time>
      </trkpt>
      <trkpt lat="46.35504" lon="6.51762">
        <ele>620.19</ele>
        <time>2017-07-07T08:23:22Z</time>
      </trkpt>
      <trkpt lat="46.35501" lon="6.51764">
        <ele>620.19</ele>
        <time>2017-07-07T08:23:25Z</time>
      </trkpt>
      <trkpt lat="46.35484" lon="6.51765">
        <ele>620.19</ele>
        <time>2017-07-07T08:23:40Z</time>
      </trkpt>
      <trkpt lat="46.3547" lon="6.5177">
        <ele>620.67</ele>
        <time>2017-07-07T08:23:56Z</time>
      </trkpt>
      <trkpt lat="46.35458" lon="6.51774">
        <ele>621.15</ele>
        <time>2017-07-07T08:24:11Z</time>
      </trkpt>
      <trkpt lat="46.35443" lon="6.5178">
        <ele>621.15</ele>
        <time>2017-07-07T08:24:26Z</time>
      </trkpt>
      <trkpt lat="46.35423" lon="6.51787">
        <ele>621.15</ele>
        <time>2017-07-07T08:24:44Z</time>
      </trkpt>
      <trkpt lat="46.35407" lon="6.51794">
        <ele>621.63</ele>
        <time>2017-07-07T08:25:00Z</time>
      </trkpt>
      <trkpt lat="46.35392" lon="6.51802">
        <ele>622.59</ele>
        <time>2017-07-07T08:25:16Z</time>
      </trkpt>
      <trkpt lat="46.3538" lon="6.51796">
        <ele>622.59</ele>
        <time>2017-07-07T08:25:30Z</time>
      </trkpt>
      <trkpt lat="46.35382" lon="6.51796">
        <ele>622.59</ele>
        <time>2017-07-07T08:25:32Z</time>
      </trkpt>
      <trkpt lat="46.35389" lon="6.51805">
        <ele>622.59</ele>
        <time>2017-07-07T08:25:40Z</time>
      </trkpt>
      <trkpt lat="46.35396" lon="6.5182">
        <ele>622.59</ele>
        <time>2017-07-07T08:25:54Z</time>
      </trkpt>
      <trkpt lat="46.35392" lon="6.51825">
        <ele>623.07</ele>
        <time>2017-07-07T08:26:07Z</time>
      </trkpt>
      <trkpt lat="46.35392" lon="6.5182">
        <ele>623.07</ele>
        <time>2017-07-07T08:26:10Z</time>
      </trkpt>
      <trkpt lat="46.35389" lon="6.51804">
        <ele>623.07</ele>
        <time>2017-07-07T08:26:25Z</time>
      </trkpt>
      <trkpt lat="46.35389" lon="6.51804">
        <ele>623.07</ele>
        <time>2017-07-07T08:26:47Z</time>
      </trkpt>
      <trkpt lat="46.35382" lon="6.51795">
        <ele>622.11</ele>
        <time>2017-07-07T08:26:59Z</time>
      </trkpt>
      <trkpt lat="46.35373" lon="6.51781">
        <ele>622.59</ele>
        <time>2017-07-07T08:27:13Z</time>
      </trkpt>
      <trkpt lat="46.3537" lon="6.51773">
        <ele>622.11</ele>
        <time>2017-07-07T08:27:27Z</time>
      </trkpt>
      <trkpt lat="46.35367" lon="6.51764">
        <ele>622.59</ele>
        <time>2017-07-07T08:27:34Z</time>
      </trkpt>
      <trkpt lat="46.35362" lon="6.51759">
        <ele>622.11</ele>
        <time>2017-07-07T08:27:49Z</time>
      </trkpt>
      <trkpt lat="46.35362" lon="6.51759">
        <ele>625.47</ele>
        <time>2017-07-07T08:27:52Z</time>
      </trkpt>
      <trkpt lat="46.3536" lon="6.51761">
        <ele>622.59</ele>
        <time>2017-07-07T08:27:59Z</time>
      </trkpt>
      <trkpt lat="46.35354" lon="6.51763">
        <ele>622.11</ele>
        <time>2017-07-07T08:28:03Z</time>
      </trkpt>
      <trkpt lat="46.35348" lon="6.5177">
        <ele>622.59</ele>
        <time>2017-07-07T08:28:10Z</time>
      </trkpt>
      <trkpt lat="46.35347" lon="6.51773">
        <ele>623.07</ele>
        <time>2017-07-07T08:28:13Z</time>
      </trkpt>
      <trkpt lat="46.35342" lon="6.51778">
        <ele>623.07</ele>
        <time>2017-07-07T08:28:18Z</time>
      </trkpt>
      <trkpt lat="46.35327" lon="6.51796">
        <ele>623.07</ele>
        <time>2017-07-07T08:28:36Z</time>
      </trkpt>
      <trkpt lat="46.35313" lon="6.51813">
        <ele>623.55</ele>
        <time>2017-07-07T08:28:52Z</time>
      </trkpt>
      <trkpt lat="46.35302" lon="6.51825">
        <ele>623.55</ele>
        <time>2017-07-07T08:29:06Z</time>
      </trkpt>
      <trkpt lat="46.35296" lon="6.51831">
        <ele>623.55</ele>
        <time>2017-07-07T08:29:12Z</time>
      </trkpt>
      <trkpt lat="46.35289" lon="6.51839">
        <ele>624.03</ele>
        <time>2017-07-07T08:29:19Z</time>
      </trkpt>
      <trkpt lat="46.35272" lon="6.51859">
        <ele>624.03</ele>
        <time>2017-07-07T08:29:38Z</time>
      </trkpt>
      <trkpt lat="46.35257" lon="6.51869">
        <ele>624.51</ele>
        <time>2017-07-07T08:29:54Z</time>
      </trkpt>
      <trkpt lat="46.35245" lon="6.51876">
        <ele>624.51</ele>
        <time>2017-07-07T08:30:09Z</time>
      </trkpt>
      <trkpt lat="46.35241" lon="6.51879">
        <ele>624.99</ele>
        <time>2017-07-07T08:30:25Z</time>
      </trkpt>
      <trkpt lat="46.35238" lon="6.51882">
        <ele>624.99</ele>
        <time>2017-07-07T08:30:29Z</time>
      </trkpt>
      <trkpt lat="46.35236" lon="6.51886">
        <ele>624.99</ele>
        <time>2017-07-07T08:30:41Z</time>
      </trkpt>
      <trkpt lat="46.35223" lon="6.51898">
        <ele>624.99</ele>
        <time>2017-07-07T08:30:57Z</time>
      </trkpt>
      <trkpt lat="46.35209" lon="6.51908">
        <ele>624.99</ele>
        <time>2017-07-07T08:31:12Z</time>
      </trkpt>
      <trkpt lat="46.35196" lon="6.51917">
        <ele>625.47</ele>
        <time>2017-07-07T08:31:27Z</time>
      </trkpt>
      <trkpt lat="46.3518" lon="6.51928">
        <ele>625.47</ele>
        <time>2017-07-07T08:31:43Z</time>
      </trkpt>
      <trkpt lat="46.35159" lon="6.51939">
        <ele>625.96</ele>
        <time>2017-07-07T08:32:01Z</time>
      </trkpt>
      <trkpt lat="46.35144" lon="6.51949">
        <ele>626.92</ele>
        <time>2017-07-07T08:32:17Z</time>
      </trkpt>
      <trkpt lat="46.3513" lon="6.51958">
        <ele>626.92</ele>
        <time>2017-07-07T08:32:31Z</time>
      </trkpt>
      <trkpt lat="46.35109" lon="6.51971">
        <ele>626.92</ele>
        <time>2017-07-07T08:32:51Z</time>
      </trkpt>
      <trkpt lat="46.35093" lon="6.5198">
        <ele>627.4</ele>
        <time>2017-07-07T08:33:06Z</time>
      </trkpt>
      <trkpt lat="46.35075" lon="6.5199">
        <ele>628.36</ele>
        <time>2017-07-07T08:33:24Z</time>
      </trkpt>
      <trkpt lat="46.35068" lon="6.51999">
        <ele>629.32</ele>
        <time>2017-07-07T08:33:33Z</time>
      </trkpt>
      <trkpt lat="46.35059" lon="6.52016">
        <ele>630.76</ele>
        <time>2017-07-07T08:33:49Z</time>
      </trkpt>
      <trkpt lat="46.35051" lon="6.52034">
        <ele>633.65</ele>
        <time>2017-07-07T08:34:06Z</time>
      </trkpt>
      <trkpt lat="46.35046" lon="6.52049">
        <ele>635.09</ele>
        <time>2017-07-07T08:34:19Z</time>
      </trkpt>
      <trkpt lat="46.35043" lon="6.52056">
        <ele>635.57</ele>
        <time>2017-07-07T08:34:26Z</time>
      </trkpt>
      <trkpt lat="46.35036" lon="6.52072">
        <ele>637.97</ele>
        <time>2017-07-07T08:34:40Z</time>
      </trkpt>
      <trkpt lat="46.35028" lon="6.52083">
        <ele>637.97</ele>
        <time>2017-07-07T08:34:52Z</time>
      </trkpt>
      <trkpt lat="46.35023" lon="6.52098">
        <ele>638.45</ele>
        <time>2017-07-07T08:35:04Z</time>
      </trkpt>
      <trkpt lat="46.35022" lon="6.52104">
        <ele>637.97</ele>
        <time>2017-07-07T08:35:16Z</time>
      </trkpt>
      <trkpt lat="46.3502" lon="6.52114">
        <ele>638.93</ele>
        <time>2017-07-07T08:35:24Z</time>
      </trkpt>
      <trkpt lat="46.35017" lon="6.52117">
        <ele>639.41</ele>
        <time>2017-07-07T08:35:43Z</time>
      </trkpt>
      <trkpt lat="46.35019" lon="6.52118">
        <ele>639.89</ele>
        <time>2017-07-07T08:36:03Z</time>
      </trkpt>
      <trkpt lat="46.35017" lon="6.5211">
        <ele>638.45</ele>
        <time>2017-07-07T08:36:17Z</time>
      </trkpt>
      <trkpt lat="46.35015" lon="6.52108">
        <ele>638.93</ele>
        <time>2017-07-07T08:36:29Z</time>
      </trkpt>
      <trkpt lat="46.35011" lon="6.52106">
        <ele>638.93</ele>
        <time>2017-07-07T08:36:38Z</time>
      </trkpt>
      <trkpt lat="46.3501" lon="6.52108">
        <ele>639.41</ele>
        <time>2017-07-07T08:36:40Z</time>
      </trkpt>
      <trkpt lat="46.34996" lon="6.52124">
        <ele>639.89</ele>
        <time>2017-07-07T08:36:57Z</time>
      </trkpt>
      <trkpt lat="46.34987" lon="6.52129">
        <ele>639.89</ele>
        <time>2017-07-07T08:37:07Z</time>
      </trkpt>
      <trkpt lat="46.34965" lon="6.52128">
        <ele>639.89</ele>
        <time>2017-07-07T08:37:25Z</time>
      </trkpt>
      <trkpt lat="46.34948" lon="6.52125">
        <ele>640.38</ele>
        <time>2017-07-07T08:37:40Z</time>
      </trkpt>
      <trkpt lat="46.34938" lon="6.52123">
        <ele>639.89</ele>
        <time>2017-07-07T08:37:49Z</time>
      </trkpt>
      <trkpt lat="46.34934" lon="6.52121">
        <ele>640.38</ele>
        <time>2017-07-07T08:37:54Z</time>
      </trkpt>
      <trkpt lat="46.34926" lon="6.52118">
        <ele>640.38</ele>
        <time>2017-07-07T08:38:09Z</time>
      </trkpt>
      <trkpt lat="46.34915" lon="6.52099">
        <ele>641.34</ele>
        <time>2017-07-07T08:38:26Z</time>
      </trkpt>
      <trkpt lat="46.34911" lon="6.52094">
        <ele>641.82</ele>
        <time>2017-07-07T08:38:32Z</time>
      </trkpt>
      <trkpt lat="46.34897" lon="6.52076">
        <ele>642.3</ele>
        <time>2017-07-07T08:38:50Z</time>
      </trkpt>
      <trkpt lat="46.34887" lon="6.52062">
        <ele>642.3</ele>
        <time>2017-07-07T08:39:04Z</time>
      </trkpt>
      <trkpt lat="46.34872" lon="6.52045">
        <ele>642.3</ele>
        <time>2017-07-07T08:39:21Z</time>
      </trkpt>
      <trkpt lat="46.34859" lon="6.52032">
        <ele>641.82</ele>
        <time>2017-07-07T08:39:36Z</time>
      </trkpt>
      <trkpt lat="46.3484" lon="6.52023">
        <ele>642.78</ele>
        <time>2017-07-07T08:39:53Z</time>
      </trkpt>
      <trkpt lat="46.34823" lon="6.52017">
        <ele>642.78</ele>
        <time>2017-07-07T08:40:08Z</time>
      </trkpt>
      <trkpt lat="46.34808" lon="6.52017">
        <ele>642.3</ele>
        <time>2017-07-07T08:40:23Z</time>
      </trkpt>
      <trkpt lat="46.34802" lon="6.52018">
        <ele>642.3</ele>
        <time>2017-07-07T08:40:39Z</time>
      </trkpt>
      <trkpt lat="46.34798" lon="6.52021">
        <ele>642.78</ele>
        <time>2017-07-07T08:40:50Z</time>
      </trkpt>
      <trkpt lat="46.34792" lon="6.52021">
        <ele>642.3</ele>
        <time>2017-07-07T08:41:05Z</time>
      </trkpt>
      <trkpt lat="46.34792" lon="6.52023">
        <ele>643.26</ele>
        <time>2017-07-07T08:41:24Z</time>
      </trkpt>
      <trkpt lat="46.34794" lon="6.52032">
        <ele>642.78</ele>
        <time>2017-07-07T08:41:38Z</time>
      </trkpt>
      <trkpt lat="46.34796" lon="6.52033">
        <ele>642.78</ele>
        <time>2017-07-07T08:41:41Z</time>
      </trkpt>
      <trkpt lat="46.34806" lon="6.5204">
        <ele>643.74</ele>
        <time>2017-07-07T08:41:56Z</time>
      </trkpt>
      <trkpt lat="46.34806" lon="6.52039">
        <ele>642.78</ele>
        <time>2017-07-07T08:42:09Z</time>
      </trkpt>
      <trkpt lat="46.34806" lon="6.52039">
        <ele>643.26</ele>
        <time>2017-07-07T08:42:22Z</time>
      </trkpt>
      <trkpt lat="46.34806" lon="6.52039">
        <ele>637.97</ele>
        <time>2017-07-07T08:42:25Z</time>
      </trkpt>
      <trkpt lat="46.34806" lon="6.52039">
        <ele>644.7</ele>
        <time>2017-07-07T08:42:26Z</time>
      </trkpt>
      <trkpt lat="46.34806" lon="6.5204">
        <ele>643.26</ele>
        <time>2017-07-07T08:42:41Z</time>
      </trkpt>
      <trkpt lat="46.34806" lon="6.5204">
        <ele>642.78</ele>
        <time>2017-07-07T08:43:06Z</time>
      </trkpt>
      <trkpt lat="46.34806" lon="6.5204">
        <ele>638.45</ele>
        <time>2017-07-07T08:43:11Z</time>
      </trkpt>
      <trkpt lat="46.34806" lon="6.5204">
        <ele>641.82</ele>
        <time>2017-07-07T08:43:12Z</time>
      </trkpt>
      <trkpt lat="46.34806" lon="6.52041">
        <ele>643.26</ele>
        <time>2017-07-07T08:43:14Z</time>
      </trkpt>
      <trkpt lat="46.34806" lon="6.52041">
        <ele>639.89</ele>
        <time>2017-07-07T08:43:17Z</time>
      </trkpt>
      <trkpt lat="46.34806" lon="6.52041">
        <ele>643.74</ele>
        <time>2017-07-07T08:43:18Z</time>
      </trkpt>
      <trkpt lat="46.34806" lon="6.52041">
        <ele>641.34</ele>
        <time>2017-07-07T08:43:22Z</time>
      </trkpt>
      <trkpt lat="46.34806" lon="6.52041">
        <ele>644.22</ele>
        <time>2017-07-07T08:43:37Z</time>
      </trkpt>
      <trkpt lat="46.34809" lon="6.52042">
        <ele>641.34</ele>
        <time>2017-07-07T08:43:50Z</time>
      </trkpt>
      <trkpt lat="46.34809" lon="6.52042">
        <ele>643.26</ele>
        <time>2017-07-07T08:43:57Z</time>
      </trkpt>
      <trkpt lat="46.34809" lon="6.52042">
        <ele>642.78</ele>
        <time>2017-07-07T08:44:25Z</time>
      </trkpt>
      <trkpt lat="46.34805" lon="6.5204">
        <ele>642.78</ele>
        <time>2017-07-07T08:44:42Z</time>
      </trkpt>
      <trkpt lat="46.34805" lon="6.5204">
        <ele>642.78</ele>
        <time>2017-07-07T08:45:09Z</time>
      </trkpt>
      <trkpt lat="46.34805" lon="6.52039">
        <ele>642.78</ele>
        <time>2017-07-07T08:45:53Z</time>
      </trkpt>
      <trkpt lat="46.34806" lon="6.52039">
        <ele>642.78</ele>
        <time>2017-07-07T08:46:41Z</time>
      </trkpt>
      <trkpt lat="46.34805" lon="6.5204">
        <ele>642.78</ele>
        <time>2017-07-07T08:47:07Z</time>
      </trkpt>
      <trkpt lat="46.34805" lon="6.5204">
        <ele>643.26</ele>
        <time>2017-07-07T08:47:34Z</time>
      </trkpt>
      <trkpt lat="46.34804" lon="6.5204">
        <ele>643.26</ele>
        <time>2017-07-07T08:48:08Z</time>
      </trkpt>
      <trkpt lat="46.34804" lon="6.5204">
        <ele>643.26</ele>
        <time>2017-07-07T08:48:38Z</time>
      </trkpt>
      <trkpt lat="46.34804" lon="6.5204">
        <ele>643.26</ele>
        <time>2017-07-07T08:49:06Z</time>
      </trkpt>
      <trkpt lat="46.34804" lon="6.5204">
        <ele>643.26</ele>
        <time>2017-07-07T08:49:37Z</time>
      </trkpt>
      <trkpt lat="46.34804" lon="6.5204">
        <ele>642.78</ele>
        <time>2017-07-07T08:50:03Z</time>
      </trkpt>
      <trkpt lat="46.34805" lon="6.5204">
        <ele>643.26</ele>
        <time>2017-07-07T08:50:24Z</time>
      </trkpt>
      <trkpt lat="46.34804" lon="6.52039">
        <ele>643.74</ele>
        <time>2017-07-07T08:50:39Z</time>
      </trkpt>
      <trkpt lat="46.34804" lon="6.52038">
        <ele>643.74</ele>
        <time>2017-07-07T08:51:03Z</time>
      </trkpt>
      <trkpt lat="46.34805" lon="6.52035">
        <ele>643.74</ele>
        <time>2017-07-07T08:51:08Z</time>
      </trkpt>
      <trkpt lat="46.34807" lon="6.52031">
        <ele>643.74</ele>
        <time>2017-07-07T08:51:12Z</time>
      </trkpt>
      <trkpt lat="46.34808" lon="6.52022">
        <ele>643.26</ele>
        <time>2017-07-07T08:51:25Z</time>
      </trkpt>
      <trkpt lat="46.34811" lon="6.52019">
        <ele>643.26</ele>
        <time>2017-07-07T08:51:28Z</time>
      </trkpt>
      <trkpt lat="46.34814" lon="6.52017">
        <ele>643.74</ele>
        <time>2017-07-07T08:51:32Z</time>
      </trkpt>
      <trkpt lat="46.34818" lon="6.52014">
        <ele>642.78</ele>
        <time>2017-07-07T08:51:36Z</time>
      </trkpt>
      <trkpt lat="46.34821" lon="6.52012">
        <ele>643.26</ele>
        <time>2017-07-07T08:51:39Z</time>
      </trkpt>
      <trkpt lat="46.3484" lon="6.52021">
        <ele>643.26</ele>
        <time>2017-07-07T08:51:55Z</time>
      </trkpt>
      <trkpt lat="46.34852" lon="6.52024">
        <ele>643.74</ele>
        <time>2017-07-07T08:52:05Z</time>
      </trkpt>
      <trkpt lat="46.34872" lon="6.52038">
        <ele>643.74</ele>
        <time>2017-07-07T08:52:23Z</time>
      </trkpt>
      <trkpt lat="46.3489" lon="6.52056">
        <ele>643.74</ele>
        <time>2017-07-07T08:52:41Z</time>
      </trkpt>
      <trkpt lat="46.34905" lon="6.52074">
        <ele>642.78</ele>
        <time>2017-07-07T08:52:57Z</time>
      </trkpt>
      <trkpt lat="46.34921" lon="6.52096">
        <ele>642.78</ele>
        <time>2017-07-07T08:53:16Z</time>
      </trkpt>
      <trkpt lat="46.34933" lon="6.52115">
        <ele>642.3</ele>
        <time>2017-07-07T08:53:31Z</time>
      </trkpt>
      <trkpt lat="46.34941" lon="6.52123">
        <ele>642.3</ele>
        <time>2017-07-07T08:53:40Z</time>
      </trkpt>
      <trkpt lat="46.3496" lon="6.52125">
        <ele>642.3</ele>
        <time>2017-07-07T08:53:56Z</time>
      </trkpt>
      <trkpt lat="46.34968" lon="6.52125">
        <ele>641.34</ele>
        <time>2017-07-07T08:54:03Z</time>
      </trkpt>
      <trkpt lat="46.34979" lon="6.52125">
        <ele>641.82</ele>
        <time>2017-07-07T08:54:13Z</time>
      </trkpt>
      <trkpt lat="46.34997" lon="6.52119">
        <ele>641.34</ele>
        <time>2017-07-07T08:54:30Z</time>
      </trkpt>
      <trkpt lat="46.35004" lon="6.52121">
        <ele>642.3</ele>
        <time>2017-07-07T08:54:38Z</time>
      </trkpt>
      <trkpt lat="46.35015" lon="6.5212">
        <ele>640.86</ele>
        <time>2017-07-07T08:54:50Z</time>
      </trkpt>
      <trkpt lat="46.35026" lon="6.52127">
        <ele>638.45</ele>
        <time>2017-07-07T08:55:06Z</time>
      </trkpt>
      <trkpt lat="46.35027" lon="6.52127">
        <ele>638.45</ele>
        <time>2017-07-07T08:55:07Z</time>
      </trkpt>
      <trkpt lat="46.35029" lon="6.5213">
        <ele>638.45</ele>
        <time>2017-07-07T08:55:10Z</time>
      </trkpt>
      <trkpt lat="46.35033" lon="6.52138">
        <ele>637.49</ele>
        <time>2017-07-07T08:55:15Z</time>
      </trkpt>
      <trkpt lat="46.35043" lon="6.52161">
        <ele>635.09</ele>
        <time>2017-07-07T08:55:32Z</time>
      </trkpt>
      <trkpt lat="46.35045" lon="6.52175">
        <ele>633.65</ele>
        <time>2017-07-07T08:55:41Z</time>
      </trkpt>
      <trkpt lat="46.35051" lon="6.52197">
        <ele>630.76</ele>
        <time>2017-07-07T08:55:59Z</time>
      </trkpt>
      <trkpt lat="46.35059" lon="6.52219">
        <ele>629.32</ele>
        <time>2017-07-07T08:56:15Z</time>
      </trkpt>
      <trkpt lat="46.35054" lon="6.52239">
        <ele>628.36</ele>
        <time>2017-07-07T08:56:29Z</time>
      </trkpt>
      <trkpt lat="46.35043" lon="6.52261">
        <ele>627.88</ele>
        <time>2017-07-07T08:56:46Z</time>
      </trkpt>
      <trkpt lat="46.3503" lon="6.52282">
        <ele>625.47</ele>
        <time>2017-07-07T08:57:03Z</time>
      </trkpt>
      <trkpt lat="46.35025" lon="6.52298">
        <ele>624.99</ele>
        <time>2017-07-07T08:57:13Z</time>
      </trkpt>
      <trkpt lat="46.35022" lon="6.5232">
        <ele>623.55</ele>
        <time>2017-07-07T08:57:27Z</time>
      </trkpt>
      <trkpt lat="46.35021" lon="6.52331">
        <ele>623.55</ele>
        <time>2017-07-07T08:57:34Z</time>
      </trkpt>
      <trkpt lat="46.35019" lon="6.52336">
        <ele>622.59</ele>
        <time>2017-07-07T08:57:37Z</time>
      </trkpt>
      <trkpt lat="46.35014" lon="6.52357">
        <ele>622.59</ele>
        <time>2017-07-07T08:57:52Z</time>
      </trkpt>
      <trkpt lat="46.35012" lon="6.52361">
        <ele>622.11</ele>
        <time>2017-07-07T08:58:06Z</time>
      </trkpt>
      <trkpt lat="46.3501" lon="6.52366">
        <ele>624.99</ele>
        <time>2017-07-07T08:58:18Z</time>
      </trkpt>
      <trkpt lat="46.35009" lon="6.52375">
        <ele>625.96</ele>
        <time>2017-07-07T08:58:36Z</time>
      </trkpt>
      <trkpt lat="46.35003" lon="6.52386">
        <ele>628.36</ele>
        <time>2017-07-07T08:58:52Z</time>
      </trkpt>
      <trkpt lat="46.35002" lon="6.5239">
        <ele>629.8</ele>
        <time>2017-07-07T08:59:07Z</time>
      </trkpt>
      <trkpt lat="46.35001" lon="6.52401">
        <ele>631.24</ele>
        <time>2017-07-07T08:59:26Z</time>
      </trkpt>
      <trkpt lat="46.35" lon="6.52407">
        <ele>633.17</ele>
        <time>2017-07-07T08:59:39Z</time>
      </trkpt>
      <trkpt lat="46.34992" lon="6.52421">
        <ele>633.65</ele>
        <time>2017-07-07T08:59:53Z</time>
      </trkpt>
      <trkpt lat="46.34981" lon="6.52428">
        <ele>635.57</ele>
        <time>2017-07-07T09:00:08Z</time>
      </trkpt>
      <trkpt lat="46.34974" lon="6.52436">
        <ele>635.09</ele>
        <time>2017-07-07T09:00:24Z</time>
      </trkpt>
      <trkpt lat="46.34961" lon="6.52444">
        <ele>637.01</ele>
        <time>2017-07-07T09:00:38Z</time>
      </trkpt>
      <trkpt lat="46.34954" lon="6.52444">
        <ele>639.41</ele>
        <time>2017-07-07T09:00:54Z</time>
      </trkpt>
      <trkpt lat="46.34943" lon="6.52446">
        <ele>639.89</ele>
        <time>2017-07-07T09:01:09Z</time>
      </trkpt>
      <trkpt lat="46.34926" lon="6.52456">
        <ele>640.38</ele>
        <time>2017-07-07T09:01:27Z</time>
      </trkpt>
      <trkpt lat="46.34914" lon="6.52465">
        <ele>641.82</ele>
        <time>2017-07-07T09:01:42Z</time>
      </trkpt>
      <trkpt lat="46.34905" lon="6.5247">
        <ele>644.22</ele>
        <time>2017-07-07T09:01:55Z</time>
      </trkpt>
      <trkpt lat="46.34893" lon="6.52484">
        <ele>644.22</ele>
        <time>2017-07-07T09:02:11Z</time>
      </trkpt>
      <trkpt lat="46.34887" lon="6.52492">
        <ele>644.7</ele>
        <time>2017-07-07T09:02:23Z</time>
      </trkpt>
      <trkpt lat="46.34878" lon="6.52512">
        <ele>644.7</ele>
        <time>2017-07-07T09:02:39Z</time>
      </trkpt>
      <trkpt lat="46.34867" lon="6.52526">
        <ele>646.14</ele>
        <time>2017-07-07T09:02:54Z</time>
      </trkpt>
      <trkpt lat="46.3486" lon="6.52539">
        <ele>646.62</ele>
        <time>2017-07-07T09:03:08Z</time>
      </trkpt>
      <trkpt lat="46.34852" lon="6.52558">
        <ele>646.14</ele>
        <time>2017-07-07T09:03:23Z</time>
      </trkpt>
      <trkpt lat="46.34847" lon="6.52581">
        <ele>646.62</ele>
        <time>2017-07-07T09:03:40Z</time>
      </trkpt>
      <trkpt lat="46.34842" lon="6.52597">
        <ele>647.59</ele>
        <time>2017-07-07T09:03:53Z</time>
      </trkpt>
      <trkpt lat="46.34836" lon="6.52615">
        <ele>647.59</ele>
        <time>2017-07-07T09:04:08Z</time>
      </trkpt>
      <trkpt lat="46.34837" lon="6.5262">
        <ele>647.59</ele>
        <time>2017-07-07T09:04:12Z</time>
      </trkpt>
      <trkpt lat="46.34838" lon="6.52646">
        <ele>647.59</ele>
        <time>2017-07-07T09:04:29Z</time>
      </trkpt>
      <trkpt lat="46.34839" lon="6.52671">
        <ele>648.55</ele>
        <time>2017-07-07T09:04:45Z</time>
      </trkpt>
      <trkpt lat="46.34839" lon="6.52695">
        <ele>648.07</ele>
        <time>2017-07-07T09:05:00Z</time>
      </trkpt>
      <trkpt lat="46.34839" lon="6.52722">
        <ele>648.55</ele>
        <time>2017-07-07T09:05:16Z</time>
      </trkpt>
      <trkpt lat="46.34837" lon="6.52748">
        <ele>649.03</ele>
        <time>2017-07-07T09:05:32Z</time>
      </trkpt>
      <trkpt lat="46.34835" lon="6.52769">
        <ele>649.51</ele>
        <time>2017-07-07T09:05:48Z</time>
      </trkpt>
      <trkpt lat="46.34835" lon="6.5279">
        <ele>649.03</ele>
        <time>2017-07-07T09:06:04Z</time>
      </trkpt>
      <trkpt lat="46.34836" lon="6.52813">
        <ele>649.51</ele>
        <time>2017-07-07T09:06:19Z</time>
      </trkpt>
      <trkpt lat="46.34829" lon="6.52833">
        <ele>649.03</ele>
        <time>2017-07-07T09:06:33Z</time>
      </trkpt>
      <trkpt lat="46.34824" lon="6.52843">
        <ele>648.55</ele>
        <time>2017-07-07T09:06:41Z</time>
      </trkpt>
      <trkpt lat="46.3481" lon="6.52856">
        <ele>647.1</ele>
        <time>2017-07-07T09:06:56Z</time>
      </trkpt>
      <trkpt lat="46.34796" lon="6.52863">
        <ele>645.18</ele>
        <time>2017-07-07T09:07:11Z</time>
      </trkpt>
      <trkpt lat="46.34788" lon="6.52863">
        <ele>644.22</ele>
        <time>2017-07-07T09:07:18Z</time>
      </trkpt>
      <trkpt lat="46.34776" lon="6.52866">
        <ele>644.22</ele>
        <time>2017-07-07T09:07:35Z</time>
      </trkpt>
      <trkpt lat="46.34756" lon="6.52859">
        <ele>643.26</ele>
        <time>2017-07-07T09:07:54Z</time>
      </trkpt>
      <trkpt lat="46.3474" lon="6.52847">
        <ele>643.26</ele>
        <time>2017-07-07T09:08:10Z</time>
      </trkpt>
      <trkpt lat="46.34725" lon="6.52836">
        <ele>643.74</ele>
        <time>2017-07-07T09:08:25Z</time>
      </trkpt>
      <trkpt lat="46.3471" lon="6.5282">
        <ele>644.22</ele>
        <time>2017-07-07T09:08:42Z</time>
      </trkpt>
      <trkpt lat="46.34698" lon="6.52806">
        <ele>645.18</ele>
        <time>2017-07-07T09:08:56Z</time>
      </trkpt>
      <trkpt lat="46.34685" lon="6.52794">
        <ele>646.62</ele>
        <time>2017-07-07T09:09:13Z</time>
      </trkpt>
      <trkpt lat="46.34675" lon="6.52787">
        <ele>648.07</ele>
        <time>2017-07-07T09:09:28Z</time>
      </trkpt>
      <trkpt lat="46.34672" lon="6.52794">
        <ele>648.07</ele>
        <time>2017-07-07T09:09:33Z</time>
      </trkpt>
      <trkpt lat="46.3466" lon="6.52812">
        <ele>647.1</ele>
        <time>2017-07-07T09:09:49Z</time>
      </trkpt>
      <trkpt lat="46.3465" lon="6.52818">
        <ele>646.62</ele>
        <time>2017-07-07T09:10:00Z</time>
      </trkpt>
      <trkpt lat="46.34648" lon="6.52821">
        <ele>647.1</ele>
        <time>2017-07-07T09:10:03Z</time>
      </trkpt>
      <trkpt lat="46.34646" lon="6.52821">
        <ele>646.62</ele>
        <time>2017-07-07T09:10:05Z</time>
      </trkpt>
      <trkpt lat="46.34633" lon="6.52828">
        <ele>646.62</ele>
        <time>2017-07-07T09:10:21Z</time>
      </trkpt>
      <trkpt lat="46.34619" lon="6.52833">
        <ele>646.62</ele>
        <time>2017-07-07T09:10:35Z</time>
      </trkpt>
      <trkpt lat="46.34619" lon="6.52833">
        <ele>646.62</ele>
        <time>2017-07-07T09:10:36Z</time>
      </trkpt>
      <trkpt lat="46.34609" lon="6.52832">
        <ele>646.62</ele>
        <time>2017-07-07T09:10:43Z</time>
      </trkpt>
      <trkpt lat="46.34604" lon="6.5283">
        <ele>647.59</ele>
        <time>2017-07-07T09:10:49Z</time>
      </trkpt>
      <trkpt lat="46.34599" lon="6.52825">
        <ele>647.59</ele>
        <time>2017-07-07T09:10:54Z</time>
      </trkpt>
      <trkpt lat="46.34584" lon="6.52825">
        <ele>646.62</ele>
        <time>2017-07-07T09:11:09Z</time>
      </trkpt>
      <trkpt lat="46.34583" lon="6.52826">
        <ele>646.62</ele>
        <time>2017-07-07T09:11:11Z</time>
      </trkpt>
      <trkpt lat="46.34577" lon="6.52827">
        <ele>645.18</ele>
        <time>2017-07-07T09:11:20Z</time>
      </trkpt>
      <trkpt lat="46.34569" lon="6.52846">
        <ele>646.14</ele>
        <time>2017-07-07T09:11:37Z</time>
      </trkpt>
      <trkpt lat="46.34562" lon="6.52859">
        <ele>646.14</ele>
        <time>2017-07-07T09:11:51Z</time>
      </trkpt>
      <trkpt lat="46.34561" lon="6.52864">
        <ele>646.14</ele>
        <time>2017-07-07T09:11:54Z</time>
      </trkpt>
      <trkpt lat="46.34554" lon="6.52891">
        <ele>646.14</ele>
        <time>2017-07-07T09:12:11Z</time>
      </trkpt>
      <trkpt lat="46.3454" lon="6.52904">
        <ele>646.14</ele>
        <time>2017-07-07T09:12:25Z</time>
      </trkpt>
      <trkpt lat="46.34531" lon="6.52925">
        <ele>646.62</ele>
        <time>2017-07-07T09:12:44Z</time>
      </trkpt>
      <trkpt lat="46.34518" lon="6.52932">
        <ele>646.14</ele>
        <time>2017-07-07T09:12:58Z</time>
      </trkpt>
      <trkpt lat="46.34517" lon="6.52932">
        <ele>645.66</ele>
        <time>2017-07-07T09:12:59Z</time>
      </trkpt>
      <trkpt lat="46.3451" lon="6.52932">
        <ele>646.14</ele>
        <time>2017-07-07T09:13:05Z</time>
      </trkpt>
      <trkpt lat="46.34505" lon="6.52932">
        <ele>646.14</ele>
        <time>2017-07-07T09:13:09Z</time>
      </trkpt>
      <trkpt lat="46.34492" lon="6.52921">
        <ele>645.66</ele>
        <time>2017-07-07T09:13:26Z</time>
      </trkpt>
      <trkpt lat="46.34489" lon="6.5292">
        <ele>646.62</ele>
        <time>2017-07-07T09:13:37Z</time>
      </trkpt>
      <trkpt lat="46.34483" lon="6.52922">
        <ele>646.14</ele>
        <time>2017-07-07T09:13:40Z</time>
      </trkpt>
      <trkpt lat="46.3448" lon="6.52928">
        <ele>646.14</ele>
        <time>2017-07-07T09:13:45Z</time>
      </trkpt>
      <trkpt lat="46.3447" lon="6.52954">
        <ele>646.14</ele>
        <time>2017-07-07T09:14:01Z</time>
      </trkpt>
      <trkpt lat="46.34467" lon="6.52972">
        <ele>646.14</ele>
        <time>2017-07-07T09:14:13Z</time>
      </trkpt>
      <trkpt lat="46.34465" lon="6.52977">
        <ele>646.14</ele>
        <time>2017-07-07T09:14:18Z</time>
      </trkpt>
      <trkpt lat="46.34464" lon="6.52985">
        <ele>646.14</ele>
        <time>2017-07-07T09:14:23Z</time>
      </trkpt>
      <trkpt lat="46.34464" lon="6.52995">
        <ele>646.14</ele>
        <time>2017-07-07T09:14:33Z</time>
      </trkpt>
      <trkpt lat="46.34465" lon="6.53004">
        <ele>646.14</ele>
        <time>2017-07-07T09:14:38Z</time>
      </trkpt>
      <trkpt lat="46.34459" lon="6.5302">
        <ele>646.14</ele>
        <time>2017-07-07T09:14:53Z</time>
      </trkpt>
      <trkpt lat="46.34444" lon="6.53023">
        <ele>646.14</ele>
        <time>2017-07-07T09:15:08Z</time>
      </trkpt>
      <trkpt lat="46.3443" lon="6.53028">
        <ele>646.14</ele>
        <time>2017-07-07T09:15:24Z</time>
      </trkpt>
      <trkpt lat="46.34422" lon="6.53036">
        <ele>646.14</ele>
        <time>2017-07-07T09:15:39Z</time>
      </trkpt>
      <trkpt lat="46.34419" lon="6.5304">
        <ele>644.7</ele>
        <time>2017-07-07T09:15:54Z</time>
      </trkpt>
      <trkpt lat="46.34417" lon="6.53045">
        <ele>643.74</ele>
        <time>2017-07-07T09:16:10Z</time>
      </trkpt>
      <trkpt lat="46.34412" lon="6.53054">
        <ele>644.7</ele>
        <time>2017-07-07T09:16:22Z</time>
      </trkpt>
      <trkpt lat="46.34411" lon="6.53067">
        <ele>647.59</ele>
        <time>2017-07-07T09:16:39Z</time>
      </trkpt>
      <trkpt lat="46.34412" lon="6.53073">
        <ele>648.07</ele>
        <time>2017-07-07T09:16:46Z</time>
      </trkpt>
      <trkpt lat="46.34413" lon="6.53079">
        <ele>649.99</ele>
        <time>2017-07-07T09:17:01Z</time>
      </trkpt>
      <trkpt lat="46.34417" lon="6.53084">
        <ele>650.95</ele>
        <time>2017-07-07T09:17:17Z</time>
      </trkpt>
      <trkpt lat="46.34418" lon="6.53087">
        <ele>649.99</ele>
        <time>2017-07-07T09:17:20Z</time>
      </trkpt>
      <trkpt lat="46.34422" lon="6.53091">
        <ele>650.47</ele>
        <time>2017-07-07T09:17:24Z</time>
      </trkpt>
      <trkpt lat="46.3443" lon="6.53103">
        <ele>651.43</ele>
        <time>2017-07-07T09:17:39Z</time>
      </trkpt>
      <trkpt lat="46.34436" lon="6.53117">
        <ele>651.91</ele>
        <time>2017-07-07T09:17:53Z</time>
      </trkpt>
      <trkpt lat="46.3444" lon="6.53122">
        <ele>653.35</ele>
        <time>2017-07-07T09:18:00Z</time>
      </trkpt>
      <trkpt lat="46.34446" lon="6.5313">
        <ele>654.31</ele>
        <time>2017-07-07T09:18:16Z</time>
      </trkpt>
      <trkpt lat="46.34448" lon="6.5313">
        <ele>656.24</ele>
        <time>2017-07-07T09:18:29Z</time>
      </trkpt>
      <trkpt lat="46.34453" lon="6.53144">
        <ele>658.16</ele>
        <time>2017-07-07T09:18:47Z</time>
      </trkpt>
      <trkpt lat="46.34455" lon="6.53149">
        <ele>659.12</ele>
        <time>2017-07-07T09:18:53Z</time>
      </trkpt>
      <trkpt lat="46.34467" lon="6.53159">
        <ele>658.16</ele>
        <time>2017-07-07T09:19:07Z</time>
      </trkpt>
      <trkpt lat="46.34469" lon="6.53159">
        <ele>658.16</ele>
        <time>2017-07-07T09:19:09Z</time>
      </trkpt>
      <trkpt lat="46.34474" lon="6.53169">
        <ele>659.6</ele>
        <time>2017-07-07T09:19:22Z</time>
      </trkpt>
      <trkpt lat="46.34481" lon="6.53179">
        <ele>662.49</ele>
        <time>2017-07-07T09:19:40Z</time>
      </trkpt>
      <trkpt lat="46.34483" lon="6.53184">
        <ele>664.41</ele>
        <time>2017-07-07T09:19:57Z</time>
      </trkpt>
      <trkpt lat="46.34481" lon="6.53186">
        <ele>664.89</ele>
        <time>2017-07-07T09:20:04Z</time>
      </trkpt>
      <trkpt lat="46.3447" lon="6.53198">
        <ele>666.81</ele>
        <time>2017-07-07T09:20:19Z</time>
      </trkpt>
      <trkpt lat="46.34456" lon="6.53194">
        <ele>666.81</ele>
        <time>2017-07-07T09:20:35Z</time>
      </trkpt>
      <trkpt lat="46.3445" lon="6.53191">
        <ele>668.73</ele>
        <time>2017-07-07T09:20:51Z</time>
      </trkpt>
      <trkpt lat="46.34438" lon="6.53189">
        <ele>670.66</ele>
        <time>2017-07-07T09:21:05Z</time>
      </trkpt>
      <trkpt lat="46.34436" lon="6.53189">
        <ele>671.62</ele>
        <time>2017-07-07T09:21:21Z</time>
      </trkpt>
      <trkpt lat="46.34436" lon="6.53189">
        <ele>671.62</ele>
        <time>2017-07-07T09:21:49Z</time>
      </trkpt>
      <trkpt lat="46.3443" lon="6.53186">
        <ele>673.54</ele>
        <time>2017-07-07T09:22:11Z</time>
      </trkpt>
      <trkpt lat="46.34422" lon="6.53186">
        <ele>675.94</ele>
        <time>2017-07-07T09:22:27Z</time>
      </trkpt>
      <trkpt lat="46.34419" lon="6.53185">
        <ele>676.91</ele>
        <time>2017-07-07T09:22:33Z</time>
      </trkpt>
      <trkpt lat="46.3441" lon="6.53179">
        <ele>678.35</ele>
        <time>2017-07-07T09:22:44Z</time>
      </trkpt>
      <trkpt lat="46.34401" lon="6.53176">
        <ele>679.79</ele>
        <time>2017-07-07T09:22:58Z</time>
      </trkpt>
      <trkpt lat="46.344" lon="6.53175">
        <ele>681.23</ele>
        <time>2017-07-07T09:23:16Z</time>
      </trkpt>
      <trkpt lat="46.34385" lon="6.53158">
        <ele>682.19</ele>
        <time>2017-07-07T09:23:32Z</time>
      </trkpt>
      <trkpt lat="46.3438" lon="6.5315">
        <ele>684.6</ele>
        <time>2017-07-07T09:23:49Z</time>
      </trkpt>
      <trkpt lat="46.3437" lon="6.53139">
        <ele>686.52</ele>
        <time>2017-07-07T09:24:05Z</time>
      </trkpt>
      <trkpt lat="46.34363" lon="6.53125">
        <ele>688.44</ele>
        <time>2017-07-07T09:24:22Z</time>
      </trkpt>
      <trkpt lat="46.3436" lon="6.53119">
        <ele>689.4</ele>
        <time>2017-07-07T09:24:38Z</time>
      </trkpt>
      <trkpt lat="46.34351" lon="6.53112">
        <ele>691.33</ele>
        <time>2017-07-07T09:24:54Z</time>
      </trkpt>
      <trkpt lat="46.34342" lon="6.53106">
        <ele>692.29</ele>
        <time>2017-07-07T09:25:09Z</time>
      </trkpt>
      <trkpt lat="46.34332" lon="6.53099">
        <ele>693.25</ele>
        <time>2017-07-07T09:25:22Z</time>
      </trkpt>
      <trkpt lat="46.34317" lon="6.53087">
        <ele>694.69</ele>
        <time>2017-07-07T09:25:41Z</time>
      </trkpt>
      <trkpt lat="46.34309" lon="6.53078">
        <ele>694.69</ele>
        <time>2017-07-07T09:25:55Z</time>
      </trkpt>
      <trkpt lat="46.34294" lon="6.53064">
        <ele>694.21</ele>
        <time>2017-07-07T09:26:11Z</time>
      </trkpt>
      <trkpt lat="46.34293" lon="6.53063">
        <ele>694.21</ele>
        <time>2017-07-07T09:26:12Z</time>
      </trkpt>
      <trkpt lat="46.34296" lon="6.53035">
        <ele>693.25</ele>
        <time>2017-07-07T09:26:28Z</time>
      </trkpt>
      <trkpt lat="46.343" lon="6.53">
        <ele>691.81</ele>
        <time>2017-07-07T09:26:50Z</time>
      </trkpt>
      <trkpt lat="46.34303" lon="6.52989">
        <ele>691.81</ele>
        <time>2017-07-07T09:26:58Z</time>
      </trkpt>
      <trkpt lat="46.34301" lon="6.5298">
        <ele>693.25</ele>
        <time>2017-07-07T09:27:12Z</time>
      </trkpt>
      <trkpt lat="46.34295" lon="6.52969">
        <ele>695.17</ele>
        <time>2017-07-07T09:27:26Z</time>
      </trkpt>
      <trkpt lat="46.34292" lon="6.5297">
        <ele>695.17</ele>
        <time>2017-07-07T09:27:29Z</time>
      </trkpt>
      <trkpt lat="46.3428" lon="6.52981">
        <ele>695.65</ele>
        <time>2017-07-07T09:27:43Z</time>
      </trkpt>
      <trkpt lat="46.34269" lon="6.52994">
        <ele>695.65</ele>
        <time>2017-07-07T09:27:58Z</time>
      </trkpt>
      <trkpt lat="46.34253" lon="6.53007">
        <ele>696.61</ele>
        <time>2017-07-07T09:28:16Z</time>
      </trkpt>
      <trkpt lat="46.34238" lon="6.53016">
        <ele>698.05</ele>
        <time>2017-07-07T09:28:33Z</time>
      </trkpt>
      <trkpt lat="46.34225" lon="6.53025">
        <ele>699.5</ele>
        <time>2017-07-07T09:28:49Z</time>
      </trkpt>
      <trkpt lat="46.34211" lon="6.53033">
        <ele>701.42</ele>
        <time>2017-07-07T09:29:06Z</time>
      </trkpt>
      <trkpt lat="46.34195" lon="6.53042">
        <ele>702.86</ele>
        <time>2017-07-07T09:29:23Z</time>
      </trkpt>
      <trkpt lat="46.34181" lon="6.53054">
        <ele>704.3</ele>
        <time>2017-07-07T09:29:41Z</time>
      </trkpt>
      <trkpt lat="46.3418" lon="6.53054">
        <ele>704.3</ele>
        <time>2017-07-07T09:29:58Z</time>
      </trkpt>
      <trkpt lat="46.34179" lon="6.53055">
        <ele>704.3</ele>
        <time>2017-07-07T09:30:24Z</time>
      </trkpt>
      <trkpt lat="46.34166" lon="6.53065">
        <ele>704.78</ele>
        <time>2017-07-07T09:30:39Z</time>
      </trkpt>
      <trkpt lat="46.34154" lon="6.53076">
        <ele>706.23</ele>
        <time>2017-07-07T09:30:54Z</time>
      </trkpt>
      <trkpt lat="46.3414" lon="6.53089">
        <ele>708.15</ele>
        <time>2017-07-07T09:31:12Z</time>
      </trkpt>
      <trkpt lat="46.34127" lon="6.53099">
        <ele>709.11</ele>
        <time>2017-07-07T09:31:30Z</time>
      </trkpt>
      <trkpt lat="46.34122" lon="6.53102">
        <ele>710.07</ele>
        <time>2017-07-07T09:31:48Z</time>
      </trkpt>
      <trkpt lat="46.34109" lon="6.5311">
        <ele>711.03</ele>
        <time>2017-07-07T09:32:04Z</time>
      </trkpt>
      <trkpt lat="46.34097" lon="6.53117">
        <ele>712.47</ele>
        <time>2017-07-07T09:32:18Z</time>
      </trkpt>
      <trkpt lat="46.34082" lon="6.53126">
        <ele>714.4</ele>
        <time>2017-07-07T09:32:35Z</time>
      </trkpt>
      <trkpt lat="46.34071" lon="6.53135">
        <ele>716.32</ele>
        <time>2017-07-07T09:32:50Z</time>
      </trkpt>
      <trkpt lat="46.34063" lon="6.53144">
        <ele>718.24</ele>
        <time>2017-07-07T09:33:04Z</time>
      </trkpt>
      <trkpt lat="46.34057" lon="6.53152">
        <ele>719.2</ele>
        <time>2017-07-07T09:33:13Z</time>
      </trkpt>
      <trkpt lat="46.34047" lon="6.53163">
        <ele>719.68</ele>
        <time>2017-07-07T09:33:28Z</time>
      </trkpt>
      <trkpt lat="46.34038" lon="6.53175">
        <ele>721.13</ele>
        <time>2017-07-07T09:33:42Z</time>
      </trkpt>
      <trkpt lat="46.34027" lon="6.53187">
        <ele>721.61</ele>
        <time>2017-07-07T09:33:56Z</time>
      </trkpt>
      <trkpt lat="46.34023" lon="6.53192">
        <ele>722.09</ele>
        <time>2017-07-07T09:34:00Z</time>
      </trkpt>
      <trkpt lat="46.34019" lon="6.53194">
        <ele>722.09</ele>
        <time>2017-07-07T09:34:05Z</time>
      </trkpt>
      <trkpt lat="46.34016" lon="6.53196">
        <ele>721.61</ele>
        <time>2017-07-07T09:34:08Z</time>
      </trkpt>
      <trkpt lat="46.34003" lon="6.5321">
        <ele>722.57</ele>
        <time>2017-07-07T09:34:24Z</time>
      </trkpt>
      <trkpt lat="46.33993" lon="6.53219">
        <ele>722.57</ele>
        <time>2017-07-07T09:34:40Z</time>
      </trkpt>
      <trkpt lat="46.33989" lon="6.53223">
        <ele>722.57</ele>
        <time>2017-07-07T09:34:55Z</time>
      </trkpt>
      <trkpt lat="46.33991" lon="6.53224">
        <ele>722.57</ele>
        <time>2017-07-07T09:35:09Z</time>
      </trkpt>
      <trkpt lat="46.33992" lon="6.53225">
        <ele>722.57</ele>
        <time>2017-07-07T09:35:11Z</time>
      </trkpt>
      <trkpt lat="46.33992" lon="6.53234">
        <ele>722.57</ele>
        <time>2017-07-07T09:35:18Z</time>
      </trkpt>
      <trkpt lat="46.33987" lon="6.53255">
        <ele>723.05</ele>
        <time>2017-07-07T09:35:34Z</time>
      </trkpt>
      <trkpt lat="46.33984" lon="6.53276">
        <ele>723.53</ele>
        <time>2017-07-07T09:35:50Z</time>
      </trkpt>
      <trkpt lat="46.33979" lon="6.53289">
        <ele>723.53</ele>
        <time>2017-07-07T09:36:05Z</time>
      </trkpt>
      <trkpt lat="46.33975" lon="6.533">
        <ele>723.53</ele>
        <time>2017-07-07T09:36:21Z</time>
      </trkpt>
      <trkpt lat="46.33969" lon="6.53313">
        <ele>723.53</ele>
        <time>2017-07-07T09:36:46Z</time>
      </trkpt>
      <trkpt lat="46.3396" lon="6.53333">
        <ele>723.53</ele>
        <time>2017-07-07T09:37:02Z</time>
      </trkpt>
      <trkpt lat="46.3395" lon="6.53359">
        <ele>724.49</ele>
        <time>2017-07-07T09:37:21Z</time>
      </trkpt>
      <trkpt lat="46.33942" lon="6.53378">
        <ele>724.97</ele>
        <time>2017-07-07T09:37:36Z</time>
      </trkpt>
      <trkpt lat="46.33943" lon="6.53382">
        <ele>725.45</ele>
        <time>2017-07-07T09:37:39Z</time>
      </trkpt>
      <trkpt lat="46.33941" lon="6.53385">
        <ele>724.97</ele>
        <time>2017-07-07T09:37:42Z</time>
      </trkpt>
      <trkpt lat="46.33942" lon="6.53404">
        <ele>725.45</ele>
        <time>2017-07-07T09:37:55Z</time>
      </trkpt>
      <trkpt lat="46.33941" lon="6.53406">
        <ele>725.45</ele>
        <time>2017-07-07T09:37:58Z</time>
      </trkpt>
      <trkpt lat="46.33936" lon="6.53409">
        <ele>726.41</ele>
        <time>2017-07-07T09:38:03Z</time>
      </trkpt>
      <trkpt lat="46.33933" lon="6.53415">
        <ele>725.93</ele>
        <time>2017-07-07T09:38:09Z</time>
      </trkpt>
      <trkpt lat="46.33926" lon="6.5343">
        <ele>726.89</ele>
        <time>2017-07-07T09:38:23Z</time>
      </trkpt>
      <trkpt lat="46.33921" lon="6.53449">
        <ele>728.82</ele>
        <time>2017-07-07T09:38:38Z</time>
      </trkpt>
      <trkpt lat="46.33914" lon="6.5347">
        <ele>729.78</ele>
        <time>2017-07-07T09:38:56Z</time>
      </trkpt>
      <trkpt lat="46.33909" lon="6.53487">
        <ele>730.74</ele>
        <time>2017-07-07T09:39:12Z</time>
      </trkpt>
      <trkpt lat="46.33909" lon="6.53487">
        <ele>731.22</ele>
        <time>2017-07-07T09:39:16Z</time>
      </trkpt>
      <trkpt lat="46.33908" lon="6.53493">
        <ele>731.7</ele>
        <time>2017-07-07T09:39:21Z</time>
      </trkpt>
      <trkpt lat="46.33906" lon="6.535">
        <ele>732.18</ele>
        <time>2017-07-07T09:39:27Z</time>
      </trkpt>
      <trkpt lat="46.33902" lon="6.53508">
        <ele>732.18</ele>
        <time>2017-07-07T09:39:34Z</time>
      </trkpt>
      <trkpt lat="46.33896" lon="6.53526">
        <ele>733.14</ele>
        <time>2017-07-07T09:39:49Z</time>
      </trkpt>
      <trkpt lat="46.33893" lon="6.53547">
        <ele>735.55</ele>
        <time>2017-07-07T09:40:06Z</time>
      </trkpt>
      <trkpt lat="46.33891" lon="6.53556">
        <ele>736.03</ele>
        <time>2017-07-07T09:40:14Z</time>
      </trkpt>
      <trkpt lat="46.33891" lon="6.53562">
        <ele>736.51</ele>
        <time>2017-07-07T09:40:19Z</time>
      </trkpt>
      <trkpt lat="46.33894" lon="6.5358">
        <ele>736.99</ele>
        <time>2017-07-07T09:40:34Z</time>
      </trkpt>
      <trkpt lat="46.33897" lon="6.536">
        <ele>738.43</ele>
        <time>2017-07-07T09:40:51Z</time>
      </trkpt>
      <trkpt lat="46.33902" lon="6.53618">
        <ele>739.39</ele>
        <time>2017-07-07T09:41:06Z</time>
      </trkpt>
      <trkpt lat="46.33908" lon="6.53634">
        <ele>740.83</ele>
        <time>2017-07-07T09:41:21Z</time>
      </trkpt>
      <trkpt lat="46.33909" lon="6.53652">
        <ele>742.28</ele>
        <time>2017-07-07T09:41:36Z</time>
      </trkpt>
      <trkpt lat="46.33909" lon="6.53669">
        <ele>743.72</ele>
        <time>2017-07-07T09:41:50Z</time>
      </trkpt>
      <trkpt lat="46.3391" lon="6.53688">
        <ele>744.68</ele>
        <time>2017-07-07T09:42:05Z</time>
      </trkpt>
      <trkpt lat="46.3391" lon="6.53702">
        <ele>745.16</ele>
        <time>2017-07-07T09:42:18Z</time>
      </trkpt>
      <trkpt lat="46.3391" lon="6.53712">
        <ele>746.6</ele>
        <time>2017-07-07T09:42:26Z</time>
      </trkpt>
      <trkpt lat="46.33912" lon="6.53732">
        <ele>747.56</ele>
        <time>2017-07-07T09:42:43Z</time>
      </trkpt>
      <trkpt lat="46.33912" lon="6.5375">
        <ele>748.52</ele>
        <time>2017-07-07T09:42:59Z</time>
      </trkpt>
      <trkpt lat="46.33915" lon="6.53766">
        <ele>749.97</ele>
        <time>2017-07-07T09:43:13Z</time>
      </trkpt>
      <trkpt lat="46.33918" lon="6.53785">
        <ele>751.41</ele>
        <time>2017-07-07T09:43:29Z</time>
      </trkpt>
      <trkpt lat="46.3392" lon="6.53799">
        <ele>753.33</ele>
        <time>2017-07-07T09:43:44Z</time>
      </trkpt>
      <trkpt lat="46.33924" lon="6.53807">
        <ele>754.29</ele>
        <time>2017-07-07T09:43:58Z</time>
      </trkpt>
      <trkpt lat="46.33925" lon="6.53818">
        <ele>754.29</ele>
        <time>2017-07-07T09:44:13Z</time>
      </trkpt>
      <trkpt lat="46.33925" lon="6.5382">
        <ele>754.29</ele>
        <time>2017-07-07T09:44:32Z</time>
      </trkpt>
      <trkpt lat="46.33925" lon="6.53821">
        <ele>753.81</ele>
        <time>2017-07-07T09:44:44Z</time>
      </trkpt>
      <trkpt lat="46.33925" lon="6.53821">
        <ele>753.81</ele>
        <time>2017-07-07T09:45:03Z</time>
      </trkpt>
      <trkpt lat="46.33925" lon="6.53821">
        <ele>748.52</ele>
        <time>2017-07-07T09:45:18Z</time>
      </trkpt>
      <trkpt lat="46.33925" lon="6.53821">
        <ele>755.25</ele>
        <time>2017-07-07T09:45:19Z</time>
      </trkpt>
      <trkpt lat="46.33925" lon="6.53821">
        <ele>751.89</ele>
        <time>2017-07-07T09:45:37Z</time>
      </trkpt>
      <trkpt lat="46.33925" lon="6.53821">
        <ele>756.21</ele>
        <time>2017-07-07T09:45:38Z</time>
      </trkpt>
      <trkpt lat="46.33925" lon="6.53821">
        <ele>752.37</ele>
        <time>2017-07-07T09:45:41Z</time>
      </trkpt>
      <trkpt lat="46.33925" lon="6.53821">
        <ele>757.18</ele>
        <time>2017-07-07T09:45:56Z</time>
      </trkpt>
      <trkpt lat="46.33925" lon="6.53821">
        <ele>753.81</ele>
        <time>2017-07-07T09:45:57Z</time>
      </trkpt>
      <trkpt lat="46.33925" lon="6.53821">
        <ele>754.29</ele>
        <time>2017-07-07T09:46:16Z</time>
      </trkpt>
      <trkpt lat="46.33929" lon="6.53823">
        <ele>754.29</ele>
        <time>2017-07-07T09:46:32Z</time>
      </trkpt>
      <trkpt lat="46.33929" lon="6.53823">
        <ele>754.29</ele>
        <time>2017-07-07T09:46:57Z</time>
      </trkpt>
      <trkpt lat="46.33929" lon="6.53823">
        <ele>754.77</ele>
        <time>2017-07-07T09:47:26Z</time>
      </trkpt>
      <trkpt lat="46.33928" lon="6.53823">
        <ele>754.29</ele>
        <time>2017-07-07T09:47:55Z</time>
      </trkpt>
      <trkpt lat="46.33926" lon="6.53828">
        <ele>755.25</ele>
        <time>2017-07-07T09:48:12Z</time>
      </trkpt>
      <trkpt lat="46.33925" lon="6.53843">
        <ele>755.73</ele>
        <time>2017-07-07T09:48:27Z</time>
      </trkpt>
      <trkpt lat="46.33927" lon="6.53864">
        <ele>757.66</ele>
        <time>2017-07-07T09:48:43Z</time>
      </trkpt>
      <trkpt lat="46.33931" lon="6.53881">
        <ele>758.62</ele>
        <time>2017-07-07T09:48:58Z</time>
      </trkpt>
      <trkpt lat="46.33934" lon="6.53889">
        <ele>758.62</ele>
        <time>2017-07-07T09:49:04Z</time>
      </trkpt>
      <trkpt lat="46.33942" lon="6.53909">
        <ele>760.54</ele>
        <time>2017-07-07T09:49:22Z</time>
      </trkpt>
      <trkpt lat="46.33943" lon="6.53917">
        <ele>761.02</ele>
        <time>2017-07-07T09:49:28Z</time>
      </trkpt>
      <trkpt lat="46.33946" lon="6.53927">
        <ele>762.46</ele>
        <time>2017-07-07T09:49:38Z</time>
      </trkpt>
      <trkpt lat="46.33952" lon="6.53944">
        <ele>763.42</ele>
        <time>2017-07-07T09:49:52Z</time>
      </trkpt>
      <trkpt lat="46.33954" lon="6.5396">
        <ele>763.9</ele>
        <time>2017-07-07T09:50:07Z</time>
      </trkpt>
      <trkpt lat="46.33961" lon="6.53979">
        <ele>765.35</ele>
        <time>2017-07-07T09:50:22Z</time>
      </trkpt>
      <trkpt lat="46.33965" lon="6.53998">
        <ele>766.31</ele>
        <time>2017-07-07T09:50:38Z</time>
      </trkpt>
      <trkpt lat="46.33967" lon="6.54016">
        <ele>766.79</ele>
        <time>2017-07-07T09:50:51Z</time>
      </trkpt>
      <trkpt lat="46.33967" lon="6.54038">
        <ele>767.75</ele>
        <time>2017-07-07T09:51:06Z</time>
      </trkpt>
      <trkpt lat="46.33966" lon="6.54043">
        <ele>767.75</ele>
        <time>2017-07-07T09:51:09Z</time>
      </trkpt>
      <trkpt lat="46.33964" lon="6.54056">
        <ele>767.75</ele>
        <time>2017-07-07T09:51:18Z</time>
      </trkpt>
      <trkpt lat="46.33961" lon="6.54076">
        <ele>768.23</ele>
        <time>2017-07-07T09:51:33Z</time>
      </trkpt>
      <trkpt lat="46.33961" lon="6.54077">
        <ele>768.71</ele>
        <time>2017-07-07T09:51:34Z</time>
      </trkpt>
      <trkpt lat="46.33959" lon="6.54097">
        <ele>770.15</ele>
        <time>2017-07-07T09:51:50Z</time>
      </trkpt>
      <trkpt lat="46.33957" lon="6.54116">
        <ele>770.63</ele>
        <time>2017-07-07T09:52:05Z</time>
      </trkpt>
      <trkpt lat="46.33955" lon="6.54132">
        <ele>772.08</ele>
        <time>2017-07-07T09:52:20Z</time>
      </trkpt>
      <trkpt lat="46.33951" lon="6.54144">
        <ele>772.56</ele>
        <time>2017-07-07T09:52:34Z</time>
      </trkpt>
      <trkpt lat="46.33949" lon="6.54157">
        <ele>773.04</ele>
        <time>2017-07-07T09:52:49Z</time>
      </trkpt>
      <trkpt lat="46.33949" lon="6.54157">
        <ele>773.52</ele>
        <time>2017-07-07T09:53:14Z</time>
      </trkpt>
      <trkpt lat="46.33947" lon="6.54166">
        <ele>774</ele>
        <time>2017-07-07T09:53:30Z</time>
      </trkpt>
      <trkpt lat="46.33945" lon="6.5418">
        <ele>775.44</ele>
        <time>2017-07-07T09:53:45Z</time>
      </trkpt>
      <trkpt lat="46.33944" lon="6.54202">
        <ele>776.4</ele>
        <time>2017-07-07T09:54:00Z</time>
      </trkpt>
      <trkpt lat="46.33943" lon="6.54204">
        <ele>776.4</ele>
        <time>2017-07-07T09:54:01Z</time>
      </trkpt>
      <trkpt lat="46.33942" lon="6.5422">
        <ele>777.84</ele>
        <time>2017-07-07T09:54:17Z</time>
      </trkpt>
      <trkpt lat="46.33941" lon="6.54233">
        <ele>777.36</ele>
        <time>2017-07-07T09:54:28Z</time>
      </trkpt>
      <trkpt lat="46.33941" lon="6.54244">
        <ele>778.32</ele>
        <time>2017-07-07T09:54:42Z</time>
      </trkpt>
      <trkpt lat="46.33941" lon="6.54255">
        <ele>778.32</ele>
        <time>2017-07-07T09:54:55Z</time>
      </trkpt>
      <trkpt lat="46.33941" lon="6.5426">
        <ele>777.84</ele>
        <time>2017-07-07T09:55:01Z</time>
      </trkpt>
      <trkpt lat="46.33942" lon="6.54264">
        <ele>777.84</ele>
        <time>2017-07-07T09:55:17Z</time>
      </trkpt>
      <trkpt lat="46.33941" lon="6.54265">
        <ele>778.32</ele>
        <time>2017-07-07T09:55:37Z</time>
      </trkpt>
      <trkpt lat="46.33941" lon="6.54266">
        <ele>778.81</ele>
        <time>2017-07-07T09:55:59Z</time>
      </trkpt>
      <trkpt lat="46.33941" lon="6.54266">
        <ele>779.29</ele>
        <time>2017-07-07T09:56:10Z</time>
      </trkpt>
      <trkpt lat="46.33941" lon="6.54266">
        <ele>777.84</ele>
        <time>2017-07-07T09:56:13Z</time>
      </trkpt>
      <trkpt lat="46.33941" lon="6.54266">
        <ele>779.29</ele>
        <time>2017-07-07T09:56:16Z</time>
      </trkpt>
      <trkpt lat="46.33941" lon="6.54266">
        <ele>779.77</ele>
        <time>2017-07-07T09:56:41Z</time>
      </trkpt>
      <trkpt lat="46.33941" lon="6.54266">
        <ele>777.84</ele>
        <time>2017-07-07T09:56:46Z</time>
      </trkpt>
      <trkpt lat="46.33941" lon="6.54266">
        <ele>777.84</ele>
        <time>2017-07-07T09:57:09Z</time>
      </trkpt>
      <trkpt lat="46.33941" lon="6.54266">
        <ele>778.32</ele>
        <time>2017-07-07T09:57:29Z</time>
      </trkpt>
      <trkpt lat="46.33942" lon="6.54276">
        <ele>778.32</ele>
        <time>2017-07-07T09:57:46Z</time>
      </trkpt>
      <trkpt lat="46.33941" lon="6.54289">
        <ele>778.32</ele>
        <time>2017-07-07T09:57:54Z</time>
      </trkpt>
      <trkpt lat="46.3394" lon="6.54297">
        <ele>778.81</ele>
        <time>2017-07-07T09:57:58Z</time>
      </trkpt>
      <trkpt lat="46.33938" lon="6.54326">
        <ele>780.25</ele>
        <time>2017-07-07T09:58:16Z</time>
      </trkpt>
      <trkpt lat="46.33946" lon="6.54349">
        <ele>781.21</ele>
        <time>2017-07-07T09:58:29Z</time>
      </trkpt>
      <trkpt lat="46.33947" lon="6.5436">
        <ele>781.21</ele>
        <time>2017-07-07T09:58:37Z</time>
      </trkpt>
      <trkpt lat="46.33947" lon="6.54367">
        <ele>782.17</ele>
        <time>2017-07-07T09:58:42Z</time>
      </trkpt>
      <trkpt lat="46.33954" lon="6.54388">
        <ele>784.09</ele>
        <time>2017-07-07T09:58:59Z</time>
      </trkpt>
      <trkpt lat="46.33957" lon="6.54401">
        <ele>784.57</ele>
        <time>2017-07-07T09:59:14Z</time>
      </trkpt>
      <trkpt lat="46.33954" lon="6.54418">
        <ele>786.5</ele>
        <time>2017-07-07T09:59:28Z</time>
      </trkpt>
      <trkpt lat="46.33952" lon="6.54434">
        <ele>786.5</ele>
        <time>2017-07-07T09:59:40Z</time>
      </trkpt>
      <trkpt lat="46.3395" lon="6.54438">
        <ele>786.5</ele>
        <time>2017-07-07T09:59:43Z</time>
      </trkpt>
      <trkpt lat="46.33949" lon="6.54443">
        <ele>786.5</ele>
        <time>2017-07-07T09:59:47Z</time>
      </trkpt>
      <trkpt lat="46.3394" lon="6.5446">
        <ele>786.02</ele>
        <time>2017-07-07T10:00:01Z</time>
      </trkpt>
      <trkpt lat="46.33926" lon="6.54476">
        <ele>785.53</ele>
        <time>2017-07-07T10:00:16Z</time>
      </trkpt>
      <trkpt lat="46.3391" lon="6.54489">
        <ele>784.09</ele>
        <time>2017-07-07T10:00:32Z</time>
      </trkpt>
      <trkpt lat="46.339" lon="6.54498">
        <ele>784.09</ele>
        <time>2017-07-07T10:00:45Z</time>
      </trkpt>
      <trkpt lat="46.33896" lon="6.54499">
        <ele>784.09</ele>
        <time>2017-07-07T10:01:02Z</time>
      </trkpt>
      <trkpt lat="46.33895" lon="6.545">
        <ele>784.09</ele>
        <time>2017-07-07T10:01:17Z</time>
      </trkpt>
      <trkpt lat="46.33888" lon="6.54508">
        <ele>783.61</ele>
        <time>2017-07-07T10:01:28Z</time>
      </trkpt>
      <trkpt lat="46.33887" lon="6.54508">
        <ele>784.09</ele>
        <time>2017-07-07T10:01:29Z</time>
      </trkpt>
      <trkpt lat="46.33876" lon="6.54513">
        <ele>784.09</ele>
        <time>2017-07-07T10:01:41Z</time>
      </trkpt>
      <trkpt lat="46.33875" lon="6.54514">
        <ele>784.09</ele>
        <time>2017-07-07T10:01:43Z</time>
      </trkpt>
      <trkpt lat="46.33861" lon="6.54523">
        <ele>783.61</ele>
        <time>2017-07-07T10:01:58Z</time>
      </trkpt>
      <trkpt lat="46.33848" lon="6.54525">
        <ele>783.61</ele>
        <time>2017-07-07T10:02:12Z</time>
      </trkpt>
      <trkpt lat="46.33847" lon="6.54524">
        <ele>783.61</ele>
        <time>2017-07-07T10:02:15Z</time>
      </trkpt>
      <trkpt lat="46.33841" lon="6.54529">
        <ele>783.61</ele>
        <time>2017-07-07T10:02:20Z</time>
      </trkpt>
      <trkpt lat="46.3383" lon="6.54537">
        <ele>784.09</ele>
        <time>2017-07-07T10:02:33Z</time>
      </trkpt>
      <trkpt lat="46.33813" lon="6.54538">
        <ele>782.65</ele>
        <time>2017-07-07T10:02:45Z</time>
      </trkpt>
      <trkpt lat="46.33809" lon="6.54537">
        <ele>782.65</ele>
        <time>2017-07-07T10:02:49Z</time>
      </trkpt>
      <trkpt lat="46.33806" lon="6.54538">
        <ele>783.13</ele>
        <time>2017-07-07T10:02:51Z</time>
      </trkpt>
      <trkpt lat="46.33805" lon="6.54543">
        <ele>778.81</ele>
        <time>2017-07-07T10:03:04Z</time>
      </trkpt>
      <trkpt lat="46.33805" lon="6.54543">
        <ele>784.09</ele>
        <time>2017-07-07T10:03:05Z</time>
      </trkpt>
      <trkpt lat="46.33805" lon="6.54543">
        <ele>782.17</ele>
        <time>2017-07-07T10:03:09Z</time>
      </trkpt>
      <trkpt lat="46.33805" lon="6.54543">
        <ele>784.09</ele>
        <time>2017-07-07T10:03:20Z</time>
      </trkpt>
      <trkpt lat="46.33805" lon="6.54543">
        <ele>782.65</ele>
        <time>2017-07-07T10:03:34Z</time>
      </trkpt>
      <trkpt lat="46.33803" lon="6.54543">
        <ele>783.13</ele>
        <time>2017-07-07T10:03:41Z</time>
      </trkpt>
      <trkpt lat="46.33799" lon="6.54543">
        <ele>783.13</ele>
        <time>2017-07-07T10:03:43Z</time>
      </trkpt>
      <trkpt lat="46.33785" lon="6.54559">
        <ele>784.57</ele>
        <time>2017-07-07T10:03:58Z</time>
      </trkpt>
      <trkpt lat="46.3378" lon="6.54561">
        <ele>784.57</ele>
        <time>2017-07-07T10:04:05Z</time>
      </trkpt>
      <trkpt lat="46.33772" lon="6.54565">
        <ele>784.57</ele>
        <time>2017-07-07T10:04:15Z</time>
      </trkpt>
      <trkpt lat="46.33769" lon="6.54566">
        <ele>785.05</ele>
        <time>2017-07-07T10:04:18Z</time>
      </trkpt>
      <trkpt lat="46.33754" lon="6.54568">
        <ele>784.09</ele>
        <time>2017-07-07T10:04:37Z</time>
      </trkpt>
      <trkpt lat="46.33748" lon="6.54571">
        <ele>785.05</ele>
        <time>2017-07-07T10:04:40Z</time>
      </trkpt>
      <trkpt lat="46.3374" lon="6.54584">
        <ele>786.02</ele>
        <time>2017-07-07T10:04:49Z</time>
      </trkpt>
      <trkpt lat="46.33737" lon="6.54605">
        <ele>786.98</ele>
        <time>2017-07-07T10:05:08Z</time>
      </trkpt>
      <trkpt lat="46.33741" lon="6.54613">
        <ele>786.02</ele>
        <time>2017-07-07T10:05:16Z</time>
      </trkpt>
      <trkpt lat="46.33752" lon="6.54626">
        <ele>785.05</ele>
        <time>2017-07-07T10:05:28Z</time>
      </trkpt>
      <trkpt lat="46.33759" lon="6.5465">
        <ele>784.09</ele>
        <time>2017-07-07T10:05:43Z</time>
      </trkpt>
      <trkpt lat="46.33752" lon="6.54672">
        <ele>785.05</ele>
        <time>2017-07-07T10:06:00Z</time>
      </trkpt>
      <trkpt lat="46.3375" lon="6.54679">
        <ele>786.02</ele>
        <time>2017-07-07T10:06:06Z</time>
      </trkpt>
      <trkpt lat="46.33746" lon="6.54682">
        <ele>786.5</ele>
        <time>2017-07-07T10:06:10Z</time>
      </trkpt>
      <trkpt lat="46.33743" lon="6.54705">
        <ele>785.53</ele>
        <time>2017-07-07T10:06:27Z</time>
      </trkpt>
      <trkpt lat="46.33742" lon="6.54728">
        <ele>783.13</ele>
        <time>2017-07-07T10:06:47Z</time>
      </trkpt>
      <trkpt lat="46.33742" lon="6.54729">
        <ele>783.61</ele>
        <time>2017-07-07T10:06:48Z</time>
      </trkpt>
      <trkpt lat="46.33743" lon="6.54737">
        <ele>782.65</ele>
        <time>2017-07-07T10:06:55Z</time>
      </trkpt>
      <trkpt lat="46.33743" lon="6.54741">
        <ele>783.13</ele>
        <time>2017-07-07T10:06:58Z</time>
      </trkpt>
      <trkpt lat="46.33742" lon="6.54749">
        <ele>782.65</ele>
        <time>2017-07-07T10:07:02Z</time>
      </trkpt>
      <trkpt lat="46.33746" lon="6.54766">
        <ele>781.21</ele>
        <time>2017-07-07T10:07:19Z</time>
      </trkpt>
      <trkpt lat="46.33746" lon="6.54772">
        <ele>780.25</ele>
        <time>2017-07-07T10:07:24Z</time>
      </trkpt>
      <trkpt lat="46.33747" lon="6.54775">
        <ele>780.25</ele>
        <time>2017-07-07T10:07:26Z</time>
      </trkpt>
      <trkpt lat="46.33755" lon="6.54795">
        <ele>778.81</ele>
        <time>2017-07-07T10:07:42Z</time>
      </trkpt>
      <trkpt lat="46.33762" lon="6.54813">
        <ele>778.32</ele>
        <time>2017-07-07T10:07:56Z</time>
      </trkpt>
      <trkpt lat="46.33765" lon="6.54836">
        <ele>778.32</ele>
        <time>2017-07-07T10:08:08Z</time>
      </trkpt>
      <trkpt lat="46.33764" lon="6.54844">
        <ele>779.77</ele>
        <time>2017-07-07T10:08:14Z</time>
      </trkpt>
      <trkpt lat="46.33756" lon="6.54865">
        <ele>781.21</ele>
        <time>2017-07-07T10:08:33Z</time>
      </trkpt>
      <trkpt lat="46.33746" lon="6.54883">
        <ele>783.13</ele>
        <time>2017-07-07T10:08:51Z</time>
      </trkpt>
      <trkpt lat="46.33735" lon="6.54897">
        <ele>783.61</ele>
        <time>2017-07-07T10:09:11Z</time>
      </trkpt>
      <trkpt lat="46.33732" lon="6.54899">
        <ele>781.21</ele>
        <time>2017-07-07T10:09:30Z</time>
      </trkpt>
      <trkpt lat="46.3373" lon="6.549">
        <ele>781.69</ele>
        <time>2017-07-07T10:09:33Z</time>
      </trkpt>
      <trkpt lat="46.33716" lon="6.54911">
        <ele>780.73</ele>
        <time>2017-07-07T10:09:38Z</time>
      </trkpt>
      <trkpt lat="46.33709" lon="6.54915">
        <ele>779.77</ele>
        <time>2017-07-07T10:09:45Z</time>
      </trkpt>
      <trkpt lat="46.33704" lon="6.5492">
        <ele>779.29</ele>
        <time>2017-07-07T10:09:51Z</time>
      </trkpt>
      <trkpt lat="46.33702" lon="6.54925">
        <ele>779.29</ele>
        <time>2017-07-07T10:09:55Z</time>
      </trkpt>
      <trkpt lat="46.33696" lon="6.5493">
        <ele>778.81</ele>
        <time>2017-07-07T10:10:01Z</time>
      </trkpt>
      <trkpt lat="46.33689" lon="6.54945">
        <ele>778.81</ele>
        <time>2017-07-07T10:10:16Z</time>
      </trkpt>
      <trkpt lat="46.33683" lon="6.54957">
        <ele>778.32</ele>
        <time>2017-07-07T10:10:24Z</time>
      </trkpt>
      <trkpt lat="46.33679" lon="6.54963">
        <ele>778.81</ele>
        <time>2017-07-07T10:10:30Z</time>
      </trkpt>
      <trkpt lat="46.33675" lon="6.54968">
        <ele>777.84</ele>
        <time>2017-07-07T10:10:34Z</time>
      </trkpt>
      <trkpt lat="46.3366" lon="6.54987">
        <ele>777.36</ele>
        <time>2017-07-07T10:10:54Z</time>
      </trkpt>
      <trkpt lat="46.33656" lon="6.54994">
        <ele>777.36</ele>
        <time>2017-07-07T10:11:01Z</time>
      </trkpt>
      <trkpt lat="46.33644" lon="6.55013">
        <ele>775.92</ele>
        <time>2017-07-07T10:11:18Z</time>
      </trkpt>
      <trkpt lat="46.33627" lon="6.55038">
        <ele>775.44</ele>
        <time>2017-07-07T10:11:37Z</time>
      </trkpt>
      <trkpt lat="46.33613" lon="6.5506">
        <ele>776.4</ele>
        <time>2017-07-07T10:11:56Z</time>
      </trkpt>
      <trkpt lat="46.33609" lon="6.55078">
        <ele>776.88</ele>
        <time>2017-07-07T10:12:14Z</time>
      </trkpt>
      <trkpt lat="46.33603" lon="6.55097">
        <ele>776.4</ele>
        <time>2017-07-07T10:12:29Z</time>
      </trkpt>
      <trkpt lat="46.336" lon="6.55111">
        <ele>777.36</ele>
        <time>2017-07-07T10:12:45Z</time>
      </trkpt>
      <trkpt lat="46.33599" lon="6.55118">
        <ele>778.32</ele>
        <time>2017-07-07T10:12:54Z</time>
      </trkpt>
      <trkpt lat="46.33601" lon="6.55132">
        <ele>779.29</ele>
        <time>2017-07-07T10:13:08Z</time>
      </trkpt>
      <trkpt lat="46.33596" lon="6.5514">
        <ele>779.77</ele>
        <time>2017-07-07T10:13:14Z</time>
      </trkpt>
      <trkpt lat="46.33596" lon="6.55145">
        <ele>779.77</ele>
        <time>2017-07-07T10:13:20Z</time>
      </trkpt>
      <trkpt lat="46.33596" lon="6.55148">
        <ele>779.29</ele>
        <time>2017-07-07T10:13:22Z</time>
      </trkpt>
      <trkpt lat="46.33593" lon="6.55157">
        <ele>780.25</ele>
        <time>2017-07-07T10:13:29Z</time>
      </trkpt>
      <trkpt lat="46.33588" lon="6.55173">
        <ele>781.69</ele>
        <time>2017-07-07T10:13:46Z</time>
      </trkpt>
      <trkpt lat="46.33583" lon="6.55189">
        <ele>782.65</ele>
        <time>2017-07-07T10:14:04Z</time>
      </trkpt>
      <trkpt lat="46.33573" lon="6.55208">
        <ele>784.09</ele>
        <time>2017-07-07T10:14:22Z</time>
      </trkpt>
      <trkpt lat="46.33568" lon="6.55223">
        <ele>784.57</ele>
        <time>2017-07-07T10:14:39Z</time>
      </trkpt>
      <trkpt lat="46.33566" lon="6.55231">
        <ele>785.05</ele>
        <time>2017-07-07T10:14:47Z</time>
      </trkpt>
      <trkpt lat="46.33565" lon="6.55237">
        <ele>785.05</ele>
        <time>2017-07-07T10:14:53Z</time>
      </trkpt>
      <trkpt lat="46.33556" lon="6.55256">
        <ele>786.5</ele>
        <time>2017-07-07T10:15:12Z</time>
      </trkpt>
      <trkpt lat="46.33556" lon="6.55261">
        <ele>787.46</ele>
        <time>2017-07-07T10:15:27Z</time>
      </trkpt>
      <trkpt lat="46.33551" lon="6.55276">
        <ele>788.9</ele>
        <time>2017-07-07T10:15:42Z</time>
      </trkpt>
      <trkpt lat="46.33547" lon="6.55286">
        <ele>791.3</ele>
        <time>2017-07-07T10:15:59Z</time>
      </trkpt>
      <trkpt lat="46.33542" lon="6.55298">
        <ele>791.78</ele>
        <time>2017-07-07T10:16:15Z</time>
      </trkpt>
      <trkpt lat="46.33538" lon="6.55302">
        <ele>792.26</ele>
        <time>2017-07-07T10:16:20Z</time>
      </trkpt>
      <trkpt lat="46.3353" lon="6.55318">
        <ele>793.22</ele>
        <time>2017-07-07T10:16:38Z</time>
      </trkpt>
      <trkpt lat="46.33524" lon="6.55334">
        <ele>794.67</ele>
        <time>2017-07-07T10:16:54Z</time>
      </trkpt>
      <trkpt lat="46.33519" lon="6.55347">
        <ele>795.63</ele>
        <time>2017-07-07T10:17:09Z</time>
      </trkpt>
      <trkpt lat="46.33518" lon="6.55352">
        <ele>795.63</ele>
        <time>2017-07-07T10:17:13Z</time>
      </trkpt>
      <trkpt lat="46.33514" lon="6.55363">
        <ele>796.11</ele>
        <time>2017-07-07T10:17:23Z</time>
      </trkpt>
      <trkpt lat="46.33509" lon="6.5538">
        <ele>798.51</ele>
        <time>2017-07-07T10:17:39Z</time>
      </trkpt>
      <trkpt lat="46.33509" lon="6.55396">
        <ele>799.95</ele>
        <time>2017-07-07T10:17:54Z</time>
      </trkpt>
      <trkpt lat="46.33514" lon="6.55407">
        <ele>801.88</ele>
        <time>2017-07-07T10:18:07Z</time>
      </trkpt>
      <trkpt lat="46.33517" lon="6.55412">
        <ele>801.4</ele>
        <time>2017-07-07T10:18:12Z</time>
      </trkpt>
      <trkpt lat="46.33523" lon="6.55426">
        <ele>802.36</ele>
        <time>2017-07-07T10:18:28Z</time>
      </trkpt>
      <trkpt lat="46.33523" lon="6.55432">
        <ele>802.84</ele>
        <time>2017-07-07T10:18:32Z</time>
      </trkpt>
      <trkpt lat="46.33522" lon="6.55444">
        <ele>803.8</ele>
        <time>2017-07-07T10:18:42Z</time>
      </trkpt>
      <trkpt lat="46.33518" lon="6.55467">
        <ele>805.24</ele>
        <time>2017-07-07T10:19:01Z</time>
      </trkpt>
      <trkpt lat="46.33518" lon="6.55484">
        <ele>806.2</ele>
        <time>2017-07-07T10:19:16Z</time>
      </trkpt>
      <trkpt lat="46.33518" lon="6.55487">
        <ele>806.68</ele>
        <time>2017-07-07T10:19:19Z</time>
      </trkpt>
      <trkpt lat="46.33513" lon="6.55505">
        <ele>808.13</ele>
        <time>2017-07-07T10:19:34Z</time>
      </trkpt>
      <trkpt lat="46.33508" lon="6.55524">
        <ele>809.57</ele>
        <time>2017-07-07T10:19:50Z</time>
      </trkpt>
      <trkpt lat="46.33505" lon="6.55528">
        <ele>810.05</ele>
        <time>2017-07-07T10:20:12Z</time>
      </trkpt>
      <trkpt lat="46.335" lon="6.55542">
        <ele>811.01</ele>
        <time>2017-07-07T10:20:29Z</time>
      </trkpt>
      <trkpt lat="46.33497" lon="6.55548">
        <ele>811.97</ele>
        <time>2017-07-07T10:20:35Z</time>
      </trkpt>
      <trkpt lat="46.33495" lon="6.55552">
        <ele>812.45</ele>
        <time>2017-07-07T10:20:40Z</time>
      </trkpt>
      <trkpt lat="46.33492" lon="6.55557">
        <ele>813.89</ele>
        <time>2017-07-07T10:20:46Z</time>
      </trkpt>
      <trkpt lat="46.33485" lon="6.55571">
        <ele>816.3</ele>
        <time>2017-07-07T10:21:05Z</time>
      </trkpt>
      <trkpt lat="46.33477" lon="6.5558">
        <ele>817.26</ele>
        <time>2017-07-07T10:21:18Z</time>
      </trkpt>
      <trkpt lat="46.33469" lon="6.55589">
        <ele>818.7</ele>
        <time>2017-07-07T10:21:30Z</time>
      </trkpt>
      <trkpt lat="46.33468" lon="6.55592">
        <ele>818.7</ele>
        <time>2017-07-07T10:21:33Z</time>
      </trkpt>
      <trkpt lat="46.33468" lon="6.55596">
        <ele>819.18</ele>
        <time>2017-07-07T10:21:36Z</time>
      </trkpt>
      <trkpt lat="46.33464" lon="6.55611">
        <ele>819.66</ele>
        <time>2017-07-07T10:21:50Z</time>
      </trkpt>
      <trkpt lat="46.33457" lon="6.55631">
        <ele>819.66</ele>
        <time>2017-07-07T10:22:07Z</time>
      </trkpt>
      <trkpt lat="46.3345" lon="6.5564">
        <ele>820.14</ele>
        <time>2017-07-07T10:22:22Z</time>
      </trkpt>
      <trkpt lat="46.33448" lon="6.55649">
        <ele>820.62</ele>
        <time>2017-07-07T10:22:38Z</time>
      </trkpt>
      <trkpt lat="46.33447" lon="6.55651">
        <ele>821.58</ele>
        <time>2017-07-07T10:23:07Z</time>
      </trkpt>
      <trkpt lat="46.33447" lon="6.5565">
        <ele>821.58</ele>
        <time>2017-07-07T10:23:25Z</time>
      </trkpt>
      <trkpt lat="46.33449" lon="6.55646">
        <ele>821.1</ele>
        <time>2017-07-07T10:23:39Z</time>
      </trkpt>
      <trkpt lat="46.3345" lon="6.55651">
        <ele>820.62</ele>
        <time>2017-07-07T10:23:52Z</time>
      </trkpt>
      <trkpt lat="46.33452" lon="6.55667">
        <ele>819.66</ele>
        <time>2017-07-07T10:24:04Z</time>
      </trkpt>
      <trkpt lat="46.33452" lon="6.55679">
        <ele>817.26</ele>
        <time>2017-07-07T10:24:15Z</time>
      </trkpt>
      <trkpt lat="46.33452" lon="6.55703">
        <ele>815.82</ele>
        <time>2017-07-07T10:24:33Z</time>
      </trkpt>
      <trkpt lat="46.33456" lon="6.55722">
        <ele>813.89</ele>
        <time>2017-07-07T10:24:49Z</time>
      </trkpt>
      <trkpt lat="46.33456" lon="6.55735">
        <ele>811.97</ele>
        <time>2017-07-07T10:25:03Z</time>
      </trkpt>
      <trkpt lat="46.33456" lon="6.5574">
        <ele>811.49</ele>
        <time>2017-07-07T10:25:07Z</time>
      </trkpt>
      <trkpt lat="46.3346" lon="6.55762">
        <ele>809.57</ele>
        <time>2017-07-07T10:25:24Z</time>
      </trkpt>
      <trkpt lat="46.3346" lon="6.55783">
        <ele>808.13</ele>
        <time>2017-07-07T10:25:41Z</time>
      </trkpt>
      <trkpt lat="46.33463" lon="6.55802">
        <ele>807.16</ele>
        <time>2017-07-07T10:25:57Z</time>
      </trkpt>
      <trkpt lat="46.33468" lon="6.55823">
        <ele>805.72</ele>
        <time>2017-07-07T10:26:13Z</time>
      </trkpt>
      <trkpt lat="46.33468" lon="6.55824">
        <ele>805.72</ele>
        <time>2017-07-07T10:26:15Z</time>
      </trkpt>
      <trkpt lat="46.33468" lon="6.55845">
        <ele>803.32</ele>
        <time>2017-07-07T10:26:34Z</time>
      </trkpt>
      <trkpt lat="46.3346" lon="6.55871">
        <ele>800.92</ele>
        <time>2017-07-07T10:26:54Z</time>
      </trkpt>
      <trkpt lat="46.3346" lon="6.55888">
        <ele>798.99</ele>
        <time>2017-07-07T10:27:10Z</time>
      </trkpt>
      <trkpt lat="46.33459" lon="6.55903">
        <ele>797.55</ele>
        <time>2017-07-07T10:27:25Z</time>
      </trkpt>
      <trkpt lat="46.3346" lon="6.55909">
        <ele>796.11</ele>
        <time>2017-07-07T10:27:32Z</time>
      </trkpt>
      <trkpt lat="46.33468" lon="6.55927">
        <ele>794.19</ele>
        <time>2017-07-07T10:27:49Z</time>
      </trkpt>
      <trkpt lat="46.33468" lon="6.55929">
        <ele>794.19</ele>
        <time>2017-07-07T10:27:51Z</time>
      </trkpt>
      <trkpt lat="46.33466" lon="6.55955">
        <ele>792.74</ele>
        <time>2017-07-07T10:28:08Z</time>
      </trkpt>
      <trkpt lat="46.33463" lon="6.55969">
        <ele>791.3</ele>
        <time>2017-07-07T10:28:20Z</time>
      </trkpt>
      <trkpt lat="46.33461" lon="6.55978">
        <ele>790.82</ele>
        <time>2017-07-07T10:28:29Z</time>
      </trkpt>
      <trkpt lat="46.33458" lon="6.56">
        <ele>788.9</ele>
        <time>2017-07-07T10:28:46Z</time>
      </trkpt>
      <trkpt lat="46.33452" lon="6.56018">
        <ele>787.46</ele>
        <time>2017-07-07T10:29:03Z</time>
      </trkpt>
      <trkpt lat="46.33452" lon="6.56027">
        <ele>786.98</ele>
        <time>2017-07-07T10:29:10Z</time>
      </trkpt>
      <trkpt lat="46.33447" lon="6.56047">
        <ele>785.53</ele>
        <time>2017-07-07T10:29:27Z</time>
      </trkpt>
      <trkpt lat="46.33445" lon="6.56059">
        <ele>784.57</ele>
        <time>2017-07-07T10:29:37Z</time>
      </trkpt>
      <trkpt lat="46.3344" lon="6.56081">
        <ele>784.57</ele>
        <time>2017-07-07T10:29:56Z</time>
      </trkpt>
      <trkpt lat="46.33439" lon="6.56083">
        <ele>784.09</ele>
        <time>2017-07-07T10:29:57Z</time>
      </trkpt>
      <trkpt lat="46.33429" lon="6.56105">
        <ele>784.09</ele>
        <time>2017-07-07T10:30:14Z</time>
      </trkpt>
      <trkpt lat="46.33427" lon="6.56112">
        <ele>784.09</ele>
        <time>2017-07-07T10:30:19Z</time>
      </trkpt>
      <trkpt lat="46.33412" lon="6.56135">
        <ele>783.61</ele>
        <time>2017-07-07T10:30:38Z</time>
      </trkpt>
      <trkpt lat="46.33413" lon="6.56142">
        <ele>783.13</ele>
        <time>2017-07-07T10:30:44Z</time>
      </trkpt>
      <trkpt lat="46.33411" lon="6.56164">
        <ele>782.17</ele>
        <time>2017-07-07T10:31:01Z</time>
      </trkpt>
      <trkpt lat="46.33412" lon="6.56167">
        <ele>781.69</ele>
        <time>2017-07-07T10:31:04Z</time>
      </trkpt>
      <trkpt lat="46.3341" lon="6.56177">
        <ele>781.69</ele>
        <time>2017-07-07T10:31:13Z</time>
      </trkpt>
      <trkpt lat="46.33399" lon="6.56199">
        <ele>781.21</ele>
        <time>2017-07-07T10:31:30Z</time>
      </trkpt>
      <trkpt lat="46.334" lon="6.56201">
        <ele>780.73</ele>
        <time>2017-07-07T10:31:32Z</time>
      </trkpt>
      <trkpt lat="46.33398" lon="6.56212">
        <ele>779.77</ele>
        <time>2017-07-07T10:31:41Z</time>
      </trkpt>
      <trkpt lat="46.33397" lon="6.56217">
        <ele>779.29</ele>
        <time>2017-07-07T10:31:45Z</time>
      </trkpt>
      <trkpt lat="46.33389" lon="6.56234">
        <ele>777.36</ele>
        <time>2017-07-07T10:32:01Z</time>
      </trkpt>
      <trkpt lat="46.33387" lon="6.56236">
        <ele>777.36</ele>
        <time>2017-07-07T10:32:03Z</time>
      </trkpt>
      <trkpt lat="46.33379" lon="6.5625">
        <ele>775.44</ele>
        <time>2017-07-07T10:32:23Z</time>
      </trkpt>
      <trkpt lat="46.33377" lon="6.56252">
        <ele>775.44</ele>
        <time>2017-07-07T10:32:26Z</time>
      </trkpt>
      <trkpt lat="46.3336" lon="6.56279">
        <ele>774.96</ele>
        <time>2017-07-07T10:32:47Z</time>
      </trkpt>
      <trkpt lat="46.33349" lon="6.56292">
        <ele>774.96</ele>
        <time>2017-07-07T10:33:01Z</time>
      </trkpt>
      <trkpt lat="46.33338" lon="6.56313">
        <ele>774</ele>
        <time>2017-07-07T10:33:18Z</time>
      </trkpt>
      <trkpt lat="46.33329" lon="6.56332">
        <ele>772.56</ele>
        <time>2017-07-07T10:33:34Z</time>
      </trkpt>
      <trkpt lat="46.3332" lon="6.56346">
        <ele>770.15</ele>
        <time>2017-07-07T10:33:50Z</time>
      </trkpt>
      <trkpt lat="46.33316" lon="6.56357">
        <ele>768.71</ele>
        <time>2017-07-07T10:34:02Z</time>
      </trkpt>
      <trkpt lat="46.33315" lon="6.5636">
        <ele>767.75</ele>
        <time>2017-07-07T10:34:04Z</time>
      </trkpt>
      <trkpt lat="46.33306" lon="6.56377">
        <ele>766.79</ele>
        <time>2017-07-07T10:34:22Z</time>
      </trkpt>
      <trkpt lat="46.33301" lon="6.56392">
        <ele>765.83</ele>
        <time>2017-07-07T10:34:35Z</time>
      </trkpt>
      <trkpt lat="46.33297" lon="6.564">
        <ele>765.83</ele>
        <time>2017-07-07T10:34:43Z</time>
      </trkpt>
      <trkpt lat="46.33295" lon="6.56406">
        <ele>765.35</ele>
        <time>2017-07-07T10:34:48Z</time>
      </trkpt>
      <trkpt lat="46.33292" lon="6.56414">
        <ele>765.35</ele>
        <time>2017-07-07T10:34:53Z</time>
      </trkpt>
      <trkpt lat="46.33284" lon="6.56429">
        <ele>765.35</ele>
        <time>2017-07-07T10:35:06Z</time>
      </trkpt>
      <trkpt lat="46.33271" lon="6.5645">
        <ele>765.83</ele>
        <time>2017-07-07T10:35:28Z</time>
      </trkpt>
      <trkpt lat="46.33271" lon="6.56454">
        <ele>766.31</ele>
        <time>2017-07-07T10:35:32Z</time>
      </trkpt>
      <trkpt lat="46.33265" lon="6.56457">
        <ele>766.31</ele>
        <time>2017-07-07T10:35:35Z</time>
      </trkpt>
      <trkpt lat="46.33246" lon="6.56469">
        <ele>767.75</ele>
        <time>2017-07-07T10:35:56Z</time>
      </trkpt>
      <trkpt lat="46.33231" lon="6.56491">
        <ele>767.27</ele>
        <time>2017-07-07T10:36:15Z</time>
      </trkpt>
      <trkpt lat="46.3322" lon="6.56504">
        <ele>767.27</ele>
        <time>2017-07-07T10:36:32Z</time>
      </trkpt>
      <trkpt lat="46.33219" lon="6.56506">
        <ele>766.31</ele>
        <time>2017-07-07T10:36:37Z</time>
      </trkpt>
      <trkpt lat="46.33216" lon="6.56509">
        <ele>765.83</ele>
        <time>2017-07-07T10:36:42Z</time>
      </trkpt>
      <trkpt lat="46.3321" lon="6.56513">
        <ele>765.35</ele>
        <time>2017-07-07T10:37:01Z</time>
      </trkpt>
      <trkpt lat="46.33206" lon="6.56512">
        <ele>764.87</ele>
        <time>2017-07-07T10:37:04Z</time>
      </trkpt>
      <trkpt lat="46.33191" lon="6.56518">
        <ele>762.94</ele>
        <time>2017-07-07T10:37:20Z</time>
      </trkpt>
      <trkpt lat="46.33176" lon="6.56523">
        <ele>762.46</ele>
        <time>2017-07-07T10:37:37Z</time>
      </trkpt>
      <trkpt lat="46.3317" lon="6.56522">
        <ele>762.46</ele>
        <time>2017-07-07T10:37:45Z</time>
      </trkpt>
      <trkpt lat="46.33161" lon="6.56518">
        <ele>760.54</ele>
        <time>2017-07-07T10:37:56Z</time>
      </trkpt>
      <trkpt lat="46.33154" lon="6.56517">
        <ele>761.02</ele>
        <time>2017-07-07T10:38:01Z</time>
      </trkpt>
      <trkpt lat="46.33149" lon="6.56521">
        <ele>760.54</ele>
        <time>2017-07-07T10:38:07Z</time>
      </trkpt>
      <trkpt lat="46.33141" lon="6.56527">
        <ele>759.58</ele>
        <time>2017-07-07T10:38:15Z</time>
      </trkpt>
      <trkpt lat="46.33128" lon="6.5653">
        <ele>758.14</ele>
        <time>2017-07-07T10:38:31Z</time>
      </trkpt>
      <trkpt lat="46.33124" lon="6.56532">
        <ele>756.21</ele>
        <time>2017-07-07T10:38:41Z</time>
      </trkpt>
      <trkpt lat="46.33117" lon="6.56535">
        <ele>755.25</ele>
        <time>2017-07-07T10:38:50Z</time>
      </trkpt>
      <trkpt lat="46.33104" lon="6.56539">
        <ele>752.85</ele>
        <time>2017-07-07T10:39:07Z</time>
      </trkpt>
      <trkpt lat="46.33101" lon="6.56539">
        <ele>752.85</ele>
        <time>2017-07-07T10:39:10Z</time>
      </trkpt>
      <trkpt lat="46.33085" lon="6.5654">
        <ele>750.45</ele>
        <time>2017-07-07T10:39:30Z</time>
      </trkpt>
      <trkpt lat="46.33072" lon="6.5653">
        <ele>748.52</ele>
        <time>2017-07-07T10:39:45Z</time>
      </trkpt>
      <trkpt lat="46.33061" lon="6.56524">
        <ele>747.08</ele>
        <time>2017-07-07T10:40:00Z</time>
      </trkpt>
      <trkpt lat="46.33057" lon="6.56524">
        <ele>746.6</ele>
        <time>2017-07-07T10:40:05Z</time>
      </trkpt>
      <trkpt lat="46.33041" lon="6.56536">
        <ele>745.16</ele>
        <time>2017-07-07T10:40:22Z</time>
      </trkpt>
      <trkpt lat="46.3304" lon="6.56536">
        <ele>745.16</ele>
        <time>2017-07-07T10:40:24Z</time>
      </trkpt>
      <trkpt lat="46.33036" lon="6.56535">
        <ele>743.72</ele>
        <time>2017-07-07T10:40:27Z</time>
      </trkpt>
      <trkpt lat="46.3303" lon="6.56536">
        <ele>744.2</ele>
        <time>2017-07-07T10:40:31Z</time>
      </trkpt>
      <trkpt lat="46.33019" lon="6.56536">
        <ele>742.28</ele>
        <time>2017-07-07T10:40:47Z</time>
      </trkpt>
      <trkpt lat="46.33009" lon="6.5654">
        <ele>740.83</ele>
        <time>2017-07-07T10:40:59Z</time>
      </trkpt>
      <trkpt lat="46.33007" lon="6.56542">
        <ele>740.35</ele>
        <time>2017-07-07T10:41:12Z</time>
      </trkpt>
      <trkpt lat="46.33006" lon="6.56548">
        <ele>738.43</ele>
        <time>2017-07-07T10:41:17Z</time>
      </trkpt>
      <trkpt lat="46.32993" lon="6.56556">
        <ele>737.95</ele>
        <time>2017-07-07T10:41:34Z</time>
      </trkpt>
      <trkpt lat="46.32992" lon="6.56557">
        <ele>737.95</ele>
        <time>2017-07-07T10:41:35Z</time>
      </trkpt>
      <trkpt lat="46.32979" lon="6.56568">
        <ele>736.51</ele>
        <time>2017-07-07T10:41:51Z</time>
      </trkpt>
      <trkpt lat="46.32964" lon="6.5658">
        <ele>735.07</ele>
        <time>2017-07-07T10:42:07Z</time>
      </trkpt>
      <trkpt lat="46.32962" lon="6.56581">
        <ele>735.07</ele>
        <time>2017-07-07T10:42:09Z</time>
      </trkpt>
      <trkpt lat="46.32952" lon="6.56587">
        <ele>733.62</ele>
        <time>2017-07-07T10:42:21Z</time>
      </trkpt>
      <trkpt lat="46.32946" lon="6.56589">
        <ele>733.62</ele>
        <time>2017-07-07T10:42:26Z</time>
      </trkpt>
      <trkpt lat="46.32941" lon="6.56592">
        <ele>733.14</ele>
        <time>2017-07-07T10:42:33Z</time>
      </trkpt>
      <trkpt lat="46.32937" lon="6.56615">
        <ele>731.22</ele>
        <time>2017-07-07T10:42:51Z</time>
      </trkpt>
      <trkpt lat="46.32935" lon="6.56637">
        <ele>729.78</ele>
        <time>2017-07-07T10:43:07Z</time>
      </trkpt>
      <trkpt lat="46.32936" lon="6.56638">
        <ele>729.78</ele>
        <time>2017-07-07T10:43:09Z</time>
      </trkpt>
      <trkpt lat="46.32931" lon="6.56664">
        <ele>729.3</ele>
        <time>2017-07-07T10:43:27Z</time>
      </trkpt>
      <trkpt lat="46.32924" lon="6.56687">
        <ele>729.3</ele>
        <time>2017-07-07T10:43:45Z</time>
      </trkpt>
      <trkpt lat="46.32919" lon="6.56702">
        <ele>728.82</ele>
        <time>2017-07-07T10:44:00Z</time>
      </trkpt>
      <trkpt lat="46.32919" lon="6.56702">
        <ele>727.86</ele>
        <time>2017-07-07T10:44:18Z</time>
      </trkpt>
      <trkpt lat="46.32919" lon="6.56701">
        <ele>728.34</ele>
        <time>2017-07-07T10:44:53Z</time>
      </trkpt>
      <trkpt lat="46.32919" lon="6.56701">
        <ele>727.37</ele>
        <time>2017-07-07T10:45:28Z</time>
      </trkpt>
      <trkpt lat="46.32919" lon="6.56701">
        <ele>727.37</ele>
        <time>2017-07-07T10:45:57Z</time>
      </trkpt>
      <trkpt lat="46.32919" lon="6.56701">
        <ele>727.86</ele>
        <time>2017-07-07T10:46:25Z</time>
      </trkpt>
      <trkpt lat="46.32919" lon="6.567">
        <ele>727.86</ele>
        <time>2017-07-07T10:46:52Z</time>
      </trkpt>
      <trkpt lat="46.32919" lon="6.567">
        <ele>727.86</ele>
        <time>2017-07-07T10:47:19Z</time>
      </trkpt>
      <trkpt lat="46.32919" lon="6.567">
        <ele>727.86</ele>
        <time>2017-07-07T10:47:52Z</time>
      </trkpt>
      <trkpt lat="46.32919" lon="6.567">
        <ele>728.34</ele>
        <time>2017-07-07T10:48:22Z</time>
      </trkpt>
      <trkpt lat="46.32919" lon="6.567">
        <ele>727.37</ele>
        <time>2017-07-07T10:48:56Z</time>
      </trkpt>
      <trkpt lat="46.32919" lon="6.567">
        <ele>728.34</ele>
        <time>2017-07-07T10:49:32Z</time>
      </trkpt>
      <trkpt lat="46.32919" lon="6.567">
        <ele>727.37</ele>
        <time>2017-07-07T10:49:51Z</time>
      </trkpt>
      <trkpt lat="46.32919" lon="6.567">
        <ele>727.37</ele>
        <time>2017-07-07T10:50:20Z</time>
      </trkpt>
      <trkpt lat="46.32919" lon="6.567">
        <ele>727.86</ele>
        <time>2017-07-07T10:50:49Z</time>
      </trkpt>
      <trkpt lat="46.32919" lon="6.567">
        <ele>728.34</ele>
        <time>2017-07-07T10:51:07Z</time>
      </trkpt>
      <trkpt lat="46.3292" lon="6.56709">
        <ele>727.37</ele>
        <time>2017-07-07T10:51:23Z</time>
      </trkpt>
      <trkpt lat="46.3292" lon="6.56736">
        <ele>726.89</ele>
        <time>2017-07-07T10:51:41Z</time>
      </trkpt>
      <trkpt lat="46.32914" lon="6.56753">
        <ele>725.93</ele>
        <time>2017-07-07T10:51:55Z</time>
      </trkpt>
      <trkpt lat="46.32906" lon="6.56776">
        <ele>723.53</ele>
        <time>2017-07-07T10:52:15Z</time>
      </trkpt>
      <trkpt lat="46.329" lon="6.56793">
        <ele>722.09</ele>
        <time>2017-07-07T10:52:31Z</time>
      </trkpt>
      <trkpt lat="46.32896" lon="6.56806">
        <ele>720.16</ele>
        <time>2017-07-07T10:52:45Z</time>
      </trkpt>
      <trkpt lat="46.3289" lon="6.56824">
        <ele>718.72</ele>
        <time>2017-07-07T10:53:00Z</time>
      </trkpt>
      <trkpt lat="46.32888" lon="6.56829">
        <ele>718.72</ele>
        <time>2017-07-07T10:53:03Z</time>
      </trkpt>
      <trkpt lat="46.32885" lon="6.56843">
        <ele>717.76</ele>
        <time>2017-07-07T10:53:13Z</time>
      </trkpt>
      <trkpt lat="46.32876" lon="6.56867">
        <ele>716.8</ele>
        <time>2017-07-07T10:53:34Z</time>
      </trkpt>
      <trkpt lat="46.32869" lon="6.56887">
        <ele>715.84</ele>
        <time>2017-07-07T10:53:52Z</time>
      </trkpt>
      <trkpt lat="46.32867" lon="6.56892">
        <ele>714.88</ele>
        <time>2017-07-07T10:53:56Z</time>
      </trkpt>
      <trkpt lat="46.32866" lon="6.56903">
        <ele>715.84</ele>
        <time>2017-07-07T10:54:03Z</time>
      </trkpt>
      <trkpt lat="46.32863" lon="6.5693">
        <ele>714.88</ele>
        <time>2017-07-07T10:54:22Z</time>
      </trkpt>
      <trkpt lat="46.32859" lon="6.56958">
        <ele>713.92</ele>
        <time>2017-07-07T10:54:43Z</time>
      </trkpt>
      <trkpt lat="46.32854" lon="6.56985">
        <ele>712.95</ele>
        <time>2017-07-07T10:55:00Z</time>
      </trkpt>
      <trkpt lat="46.32848" lon="6.5701">
        <ele>712.47</ele>
        <time>2017-07-07T10:55:18Z</time>
      </trkpt>
      <trkpt lat="46.32843" lon="6.57039">
        <ele>711.51</ele>
        <time>2017-07-07T10:55:38Z</time>
      </trkpt>
      <trkpt lat="46.32839" lon="6.57067">
        <ele>709.59</ele>
        <time>2017-07-07T10:55:57Z</time>
      </trkpt>
      <trkpt lat="46.32838" lon="6.57089">
        <ele>708.63</ele>
        <time>2017-07-07T10:56:14Z</time>
      </trkpt>
      <trkpt lat="46.32838" lon="6.57093">
        <ele>708.63</ele>
        <time>2017-07-07T10:56:27Z</time>
      </trkpt>
      <trkpt lat="46.32829" lon="6.57117">
        <ele>708.15</ele>
        <time>2017-07-07T10:56:46Z</time>
      </trkpt>
      <trkpt lat="46.3282" lon="6.57133">
        <ele>707.67</ele>
        <time>2017-07-07T10:57:01Z</time>
      </trkpt>
      <trkpt lat="46.32819" lon="6.5714">
        <ele>708.15</ele>
        <time>2017-07-07T10:57:06Z</time>
      </trkpt>
      <trkpt lat="46.32816" lon="6.57163">
        <ele>708.63</ele>
        <time>2017-07-07T10:57:20Z</time>
      </trkpt>
      <trkpt lat="46.32811" lon="6.57177">
        <ele>710.55</ele>
        <time>2017-07-07T10:57:32Z</time>
      </trkpt>
      <trkpt lat="46.32802" lon="6.57195">
        <ele>710.55</ele>
        <time>2017-07-07T10:57:49Z</time>
      </trkpt>
      <trkpt lat="46.32791" lon="6.5722">
        <ele>711.03</ele>
        <time>2017-07-07T10:58:09Z</time>
      </trkpt>
      <trkpt lat="46.32781" lon="6.5724">
        <ele>711.51</ele>
        <time>2017-07-07T10:58:27Z</time>
      </trkpt>
      <trkpt lat="46.32771" lon="6.57254">
        <ele>712.47</ele>
        <time>2017-07-07T10:58:43Z</time>
      </trkpt>
      <trkpt lat="46.3277" lon="6.57255">
        <ele>712.95</ele>
        <time>2017-07-07T10:58:59Z</time>
      </trkpt>
      <trkpt lat="46.32769" lon="6.57257">
        <ele>712.47</ele>
        <time>2017-07-07T10:59:01Z</time>
      </trkpt>
      <trkpt lat="46.3276" lon="6.57274">
        <ele>713.44</ele>
        <time>2017-07-07T10:59:16Z</time>
      </trkpt>
      <trkpt lat="46.32757" lon="6.57278">
        <ele>714.4</ele>
        <time>2017-07-07T10:59:34Z</time>
      </trkpt>
      <trkpt lat="46.32756" lon="6.57281">
        <ele>714.88</ele>
        <time>2017-07-07T10:59:37Z</time>
      </trkpt>
      <trkpt lat="46.32744" lon="6.573">
        <ele>715.36</ele>
        <time>2017-07-07T10:59:54Z</time>
      </trkpt>
      <trkpt lat="46.32737" lon="6.57326">
        <ele>715.36</ele>
        <time>2017-07-07T11:00:12Z</time>
      </trkpt>
      <trkpt lat="46.32737" lon="6.57349">
        <ele>715.84</ele>
        <time>2017-07-07T11:00:28Z</time>
      </trkpt>
      <trkpt lat="46.32734" lon="6.57374">
        <ele>715.36</ele>
        <time>2017-07-07T11:00:44Z</time>
      </trkpt>
      <trkpt lat="46.32727" lon="6.57405">
        <ele>715.84</ele>
        <time>2017-07-07T11:01:04Z</time>
      </trkpt>
      <trkpt lat="46.32724" lon="6.57431">
        <ele>714.88</ele>
        <time>2017-07-07T11:01:21Z</time>
      </trkpt>
      <trkpt lat="46.32719" lon="6.57452">
        <ele>714.88</ele>
        <time>2017-07-07T11:01:37Z</time>
      </trkpt>
      <trkpt lat="46.32715" lon="6.57475">
        <ele>715.84</ele>
        <time>2017-07-07T11:01:52Z</time>
      </trkpt>
      <trkpt lat="46.32709" lon="6.57497">
        <ele>716.32</ele>
        <time>2017-07-07T11:02:08Z</time>
      </trkpt>
      <trkpt lat="46.32704" lon="6.57508">
        <ele>716.8</ele>
        <time>2017-07-07T11:02:19Z</time>
      </trkpt>
      <trkpt lat="46.327" lon="6.5752">
        <ele>717.76</ele>
        <time>2017-07-07T11:02:28Z</time>
      </trkpt>
      <trkpt lat="46.3269" lon="6.57542">
        <ele>719.68</ele>
        <time>2017-07-07T11:02:48Z</time>
      </trkpt>
      <trkpt lat="46.32683" lon="6.57559">
        <ele>719.2</ele>
        <time>2017-07-07T11:03:06Z</time>
      </trkpt>
      <trkpt lat="46.32676" lon="6.5757">
        <ele>717.28</ele>
        <time>2017-07-07T11:03:22Z</time>
      </trkpt>
      <trkpt lat="46.32661" lon="6.57585">
        <ele>717.28</ele>
        <time>2017-07-07T11:03:40Z</time>
      </trkpt>
      <trkpt lat="46.32647" lon="6.57605">
        <ele>717.28</ele>
        <time>2017-07-07T11:03:59Z</time>
      </trkpt>
      <trkpt lat="46.32636" lon="6.57626">
        <ele>717.76</ele>
        <time>2017-07-07T11:04:16Z</time>
      </trkpt>
      <trkpt lat="46.32625" lon="6.57646">
        <ele>717.28</ele>
        <time>2017-07-07T11:04:33Z</time>
      </trkpt>
      <trkpt lat="46.32609" lon="6.5766">
        <ele>716.8</ele>
        <time>2017-07-07T11:04:51Z</time>
      </trkpt>
      <trkpt lat="46.32591" lon="6.57673">
        <ele>715.36</ele>
        <time>2017-07-07T11:05:11Z</time>
      </trkpt>
      <trkpt lat="46.32575" lon="6.57689">
        <ele>713.92</ele>
        <time>2017-07-07T11:05:31Z</time>
      </trkpt>
      <trkpt lat="46.32562" lon="6.57707">
        <ele>712.95</ele>
        <time>2017-07-07T11:05:48Z</time>
      </trkpt>
      <trkpt lat="46.32565" lon="6.57715">
        <ele>712.95</ele>
        <time>2017-07-07T11:06:02Z</time>
      </trkpt>
      <trkpt lat="46.32563" lon="6.57714">
        <ele>712.95</ele>
        <time>2017-07-07T11:06:19Z</time>
      </trkpt>
      <trkpt lat="46.32564" lon="6.57714">
        <ele>712.47</ele>
        <time>2017-07-07T11:06:34Z</time>
      </trkpt>
      <trkpt lat="46.32566" lon="6.57719">
        <ele>711.99</ele>
        <time>2017-07-07T11:06:52Z</time>
      </trkpt>
      <trkpt lat="46.32567" lon="6.5772">
        <ele>711.99</ele>
        <time>2017-07-07T11:07:11Z</time>
      </trkpt>
      <trkpt lat="46.32568" lon="6.57731">
        <ele>711.99</ele>
        <time>2017-07-07T11:07:19Z</time>
      </trkpt>
      <trkpt lat="46.32568" lon="6.57734">
        <ele>711.03</ele>
        <time>2017-07-07T11:07:34Z</time>
      </trkpt>
      <trkpt lat="46.32567" lon="6.5772">
        <ele>712.47</ele>
        <time>2017-07-07T11:07:44Z</time>
      </trkpt>
      <trkpt lat="46.32563" lon="6.57714">
        <ele>711.99</ele>
        <time>2017-07-07T11:07:59Z</time>
      </trkpt>
      <trkpt lat="46.32557" lon="6.57717">
        <ele>710.07</ele>
        <time>2017-07-07T11:08:13Z</time>
      </trkpt>
      <trkpt lat="46.32554" lon="6.57724">
        <ele>708.15</ele>
        <time>2017-07-07T11:08:27Z</time>
      </trkpt>
      <trkpt lat="46.32551" lon="6.57727">
        <ele>707.67</ele>
        <time>2017-07-07T11:08:31Z</time>
      </trkpt>
      <trkpt lat="46.32547" lon="6.57727">
        <ele>708.63</ele>
        <time>2017-07-07T11:08:35Z</time>
      </trkpt>
      <trkpt lat="46.32546" lon="6.57724">
        <ele>708.63</ele>
        <time>2017-07-07T11:08:38Z</time>
      </trkpt>
      <trkpt lat="46.32543" lon="6.57721">
        <ele>709.11</ele>
        <time>2017-07-07T11:08:55Z</time>
      </trkpt>
      <trkpt lat="46.32546" lon="6.57723">
        <ele>708.63</ele>
        <time>2017-07-07T11:09:04Z</time>
      </trkpt>
      <trkpt lat="46.32556" lon="6.57717">
        <ele>709.59</ele>
        <time>2017-07-07T11:09:22Z</time>
      </trkpt>
      <trkpt lat="46.32558" lon="6.57714">
        <ele>710.55</ele>
        <time>2017-07-07T11:09:27Z</time>
      </trkpt>
      <trkpt lat="46.3256" lon="6.57712">
        <ele>711.51</ele>
        <time>2017-07-07T11:09:47Z</time>
      </trkpt>
      <trkpt lat="46.32562" lon="6.57709">
        <ele>712.47</ele>
        <time>2017-07-07T11:10:03Z</time>
      </trkpt>
      <trkpt lat="46.32564" lon="6.57698">
        <ele>712.47</ele>
        <time>2017-07-07T11:10:16Z</time>
      </trkpt>
      <trkpt lat="46.32567" lon="6.57696">
        <ele>712.95</ele>
        <time>2017-07-07T11:10:24Z</time>
      </trkpt>
      <trkpt lat="46.32569" lon="6.57692">
        <ele>712.95</ele>
        <time>2017-07-07T11:10:27Z</time>
      </trkpt>
      <trkpt lat="46.32584" lon="6.57677">
        <ele>713.44</ele>
        <time>2017-07-07T11:10:45Z</time>
      </trkpt>
      <trkpt lat="46.32586" lon="6.5768">
        <ele>713.44</ele>
        <time>2017-07-07T11:11:00Z</time>
      </trkpt>
      <trkpt lat="46.32586" lon="6.5768">
        <ele>714.4</ele>
        <time>2017-07-07T11:11:05Z</time>
      </trkpt>
      <trkpt lat="46.32589" lon="6.57674">
        <ele>713.92</ele>
        <time>2017-07-07T11:11:09Z</time>
      </trkpt>
      <trkpt lat="46.32604" lon="6.57662">
        <ele>714.88</ele>
        <time>2017-07-07T11:11:26Z</time>
      </trkpt>
      <trkpt lat="46.32604" lon="6.57662">
        <ele>715.36</ele>
        <time>2017-07-07T11:11:34Z</time>
      </trkpt>
      <trkpt lat="46.32601" lon="6.57664">
        <ele>715.36</ele>
        <time>2017-07-07T11:11:37Z</time>
      </trkpt>
      <trkpt lat="46.32583" lon="6.57678">
        <ele>713.92</ele>
        <time>2017-07-07T11:11:55Z</time>
      </trkpt>
      <trkpt lat="46.32569" lon="6.57696">
        <ele>712.47</ele>
        <time>2017-07-07T11:12:13Z</time>
      </trkpt>
      <trkpt lat="46.32564" lon="6.57713">
        <ele>711.51</ele>
        <time>2017-07-07T11:12:28Z</time>
      </trkpt>
      <trkpt lat="46.32569" lon="6.57728">
        <ele>711.03</ele>
        <time>2017-07-07T11:12:40Z</time>
      </trkpt>
      <trkpt lat="46.3257" lon="6.57755">
        <ele>708.63</ele>
        <time>2017-07-07T11:12:59Z</time>
      </trkpt>
      <trkpt lat="46.3257" lon="6.5777">
        <ele>707.67</ele>
        <time>2017-07-07T11:13:16Z</time>
      </trkpt>
      <trkpt lat="46.32569" lon="6.57781">
        <ele>707.67</ele>
        <time>2017-07-07T11:13:31Z</time>
      </trkpt>
      <trkpt lat="46.3257" lon="6.57787">
        <ele>707.19</ele>
        <time>2017-07-07T11:13:46Z</time>
      </trkpt>
      <trkpt lat="46.3257" lon="6.57792">
        <ele>706.23</ele>
        <time>2017-07-07T11:14:02Z</time>
      </trkpt>
      <trkpt lat="46.3257" lon="6.57786">
        <ele>706.71</ele>
        <time>2017-07-07T11:14:12Z</time>
      </trkpt>
      <trkpt lat="46.32569" lon="6.57756">
        <ele>708.15</ele>
        <time>2017-07-07T11:14:32Z</time>
      </trkpt>
      <trkpt lat="46.32568" lon="6.5773">
        <ele>710.07</ele>
        <time>2017-07-07T11:14:51Z</time>
      </trkpt>
      <trkpt lat="46.32564" lon="6.57714">
        <ele>711.03</ele>
        <time>2017-07-07T11:15:06Z</time>
      </trkpt>
      <trkpt lat="46.3256" lon="6.57714">
        <ele>710.55</ele>
        <time>2017-07-07T11:15:22Z</time>
      </trkpt>
      <trkpt lat="46.32557" lon="6.57719">
        <ele>709.11</ele>
        <time>2017-07-07T11:15:42Z</time>
      </trkpt>
      <trkpt lat="46.32556" lon="6.57721">
        <ele>708.15</ele>
        <time>2017-07-07T11:15:46Z</time>
      </trkpt>
      <trkpt lat="46.32553" lon="6.57725">
        <ele>706.71</ele>
        <time>2017-07-07T11:15:51Z</time>
      </trkpt>
      <trkpt lat="46.32547" lon="6.57727">
        <ele>707.19</ele>
        <time>2017-07-07T11:16:00Z</time>
      </trkpt>
      <trkpt lat="46.3254" lon="6.57718">
        <ele>706.23</ele>
        <time>2017-07-07T11:16:16Z</time>
      </trkpt>
      <trkpt lat="46.32537" lon="6.57713">
        <ele>706.71</ele>
        <time>2017-07-07T11:16:21Z</time>
      </trkpt>
      <trkpt lat="46.32525" lon="6.57699">
        <ele>706.23</ele>
        <time>2017-07-07T11:16:37Z</time>
      </trkpt>
      <trkpt lat="46.32516" lon="6.57695">
        <ele>704.78</ele>
        <time>2017-07-07T11:16:51Z</time>
      </trkpt>
      <trkpt lat="46.32512" lon="6.57681">
        <ele>705.75</ele>
        <time>2017-07-07T11:17:06Z</time>
      </trkpt>
      <trkpt lat="46.32508" lon="6.57669">
        <ele>707.19</ele>
        <time>2017-07-07T11:17:19Z</time>
      </trkpt>
      <trkpt lat="46.32507" lon="6.57663">
        <ele>707.19</ele>
        <time>2017-07-07T11:17:28Z</time>
      </trkpt>
      <trkpt lat="46.32499" lon="6.57651">
        <ele>708.63</ele>
        <time>2017-07-07T11:17:44Z</time>
      </trkpt>
      <trkpt lat="46.3249" lon="6.57645">
        <ele>709.11</ele>
        <time>2017-07-07T11:17:58Z</time>
      </trkpt>
      <trkpt lat="46.32482" lon="6.57635">
        <ele>708.63</ele>
        <time>2017-07-07T11:18:14Z</time>
      </trkpt>
      <trkpt lat="46.32476" lon="6.57628">
        <ele>709.11</ele>
        <time>2017-07-07T11:18:30Z</time>
      </trkpt>
      <trkpt lat="46.32472" lon="6.57623">
        <ele>710.55</ele>
        <time>2017-07-07T11:18:45Z</time>
      </trkpt>
      <trkpt lat="46.32475" lon="6.57613">
        <ele>711.03</ele>
        <time>2017-07-07T11:18:59Z</time>
      </trkpt>
      <trkpt lat="46.3247" lon="6.57593">
        <ele>711.99</ele>
        <time>2017-07-07T11:19:17Z</time>
      </trkpt>
      <trkpt lat="46.32463" lon="6.57576">
        <ele>713.92</ele>
        <time>2017-07-07T11:19:35Z</time>
      </trkpt>
      <trkpt lat="46.32461" lon="6.57571">
        <ele>714.4</ele>
        <time>2017-07-07T11:19:54Z</time>
      </trkpt>
      <trkpt lat="46.32459" lon="6.57564">
        <ele>714.4</ele>
        <time>2017-07-07T11:20:12Z</time>
      </trkpt>
      <trkpt lat="46.32459" lon="6.57564">
        <ele>714.4</ele>
        <time>2017-07-07T11:20:33Z</time>
      </trkpt>
      <trkpt lat="46.32459" lon="6.57564">
        <ele>714.4</ele>
        <time>2017-07-07T11:21:02Z</time>
      </trkpt>
      <trkpt lat="46.32459" lon="6.57564">
        <ele>713.92</ele>
        <time>2017-07-07T11:21:31Z</time>
      </trkpt>
      <trkpt lat="46.32459" lon="6.57564">
        <ele>713.92</ele>
        <time>2017-07-07T11:22:03Z</time>
      </trkpt>
      <trkpt lat="46.32454" lon="6.57556">
        <ele>714.88</ele>
        <time>2017-07-07T11:22:18Z</time>
      </trkpt>
      <trkpt lat="46.32444" lon="6.57539">
        <ele>716.8</ele>
        <time>2017-07-07T11:22:37Z</time>
      </trkpt>
      <trkpt lat="46.32437" lon="6.57529">
        <ele>717.76</ele>
        <time>2017-07-07T11:22:49Z</time>
      </trkpt>
      <trkpt lat="46.32428" lon="6.57514">
        <ele>718.24</ele>
        <time>2017-07-07T11:23:06Z</time>
      </trkpt>
      <trkpt lat="46.32425" lon="6.5751">
        <ele>718.72</ele>
        <time>2017-07-07T11:23:11Z</time>
      </trkpt>
      <trkpt lat="46.32415" lon="6.57494">
        <ele>719.2</ele>
        <time>2017-07-07T11:23:27Z</time>
      </trkpt>
      <trkpt lat="46.32407" lon="6.57481">
        <ele>720.65</ele>
        <time>2017-07-07T11:23:42Z</time>
      </trkpt>
      <trkpt lat="46.32397" lon="6.57467">
        <ele>721.61</ele>
        <time>2017-07-07T11:24:00Z</time>
      </trkpt>
      <trkpt lat="46.32386" lon="6.57448">
        <ele>721.61</ele>
        <time>2017-07-07T11:24:19Z</time>
      </trkpt>
      <trkpt lat="46.32383" lon="6.57438">
        <ele>723.53</ele>
        <time>2017-07-07T11:24:35Z</time>
      </trkpt>
      <trkpt lat="46.3238" lon="6.57431">
        <ele>724.49</ele>
        <time>2017-07-07T11:24:56Z</time>
      </trkpt>
      <trkpt lat="46.32378" lon="6.57427">
        <ele>724.49</ele>
        <time>2017-07-07T11:25:25Z</time>
      </trkpt>
      <trkpt lat="46.32377" lon="6.57423">
        <ele>724.01</ele>
        <time>2017-07-07T11:25:44Z</time>
      </trkpt>
      <trkpt lat="46.32376" lon="6.57421">
        <ele>724.49</ele>
        <time>2017-07-07T11:25:53Z</time>
      </trkpt>
      <trkpt lat="46.32375" lon="6.57419">
        <ele>725.45</ele>
        <time>2017-07-07T11:25:55Z</time>
      </trkpt>
      <trkpt lat="46.32369" lon="6.57399">
        <ele>727.37</ele>
        <time>2017-07-07T11:26:13Z</time>
      </trkpt>
      <trkpt lat="46.32364" lon="6.57381">
        <ele>729.3</ele>
        <time>2017-07-07T11:26:32Z</time>
      </trkpt>
      <trkpt lat="46.32362" lon="6.57378">
        <ele>729.3</ele>
        <time>2017-07-07T11:26:38Z</time>
      </trkpt>
      <trkpt lat="46.32359" lon="6.57367">
        <ele>731.7</ele>
        <time>2017-07-07T11:26:54Z</time>
      </trkpt>
      <trkpt lat="46.32358" lon="6.57365">
        <ele>732.66</ele>
        <time>2017-07-07T11:26:56Z</time>
      </trkpt>
      <trkpt lat="46.32356" lon="6.57359">
        <ele>731.7</ele>
        <time>2017-07-07T11:27:11Z</time>
      </trkpt>
      <trkpt lat="46.32354" lon="6.57351">
        <ele>732.18</ele>
        <time>2017-07-07T11:27:28Z</time>
      </trkpt>
      <trkpt lat="46.32354" lon="6.57351">
        <ele>733.14</ele>
        <time>2017-07-07T11:27:32Z</time>
      </trkpt>
      <trkpt lat="46.32354" lon="6.57351">
        <ele>731.7</ele>
        <time>2017-07-07T11:27:34Z</time>
      </trkpt>
      <trkpt lat="46.32354" lon="6.57351">
        <ele>725.93</ele>
        <time>2017-07-07T11:27:39Z</time>
      </trkpt>
      <trkpt lat="46.32354" lon="6.57351">
        <ele>732.18</ele>
        <time>2017-07-07T11:27:40Z</time>
      </trkpt>
      <trkpt lat="46.32354" lon="6.57351">
        <ele>731.7</ele>
        <time>2017-07-07T11:27:57Z</time>
      </trkpt>
      <trkpt lat="46.32354" lon="6.57351">
        <ele>731.22</ele>
        <time>2017-07-07T11:28:13Z</time>
      </trkpt>
      <trkpt lat="46.32354" lon="6.57351">
        <ele>732.18</ele>
        <time>2017-07-07T11:28:28Z</time>
      </trkpt>
      <trkpt lat="46.32354" lon="6.57351">
        <ele>731.22</ele>
        <time>2017-07-07T11:28:58Z</time>
      </trkpt>
      <trkpt lat="46.32355" lon="6.57351">
        <ele>731.7</ele>
        <time>2017-07-07T11:29:23Z</time>
      </trkpt>
      <trkpt lat="46.32356" lon="6.57346">
        <ele>732.18</ele>
        <time>2017-07-07T11:29:27Z</time>
      </trkpt>
      <trkpt lat="46.32355" lon="6.57341">
        <ele>731.7</ele>
        <time>2017-07-07T11:29:30Z</time>
      </trkpt>
      <trkpt lat="46.32354" lon="6.57336">
        <ele>732.18</ele>
        <time>2017-07-07T11:29:34Z</time>
      </trkpt>
      <trkpt lat="46.32354" lon="6.5733">
        <ele>732.66</ele>
        <time>2017-07-07T11:29:38Z</time>
      </trkpt>
      <trkpt lat="46.32353" lon="6.57322">
        <ele>732.18</ele>
        <time>2017-07-07T11:29:51Z</time>
      </trkpt>
      <trkpt lat="46.32353" lon="6.5733">
        <ele>732.18</ele>
        <time>2017-07-07T11:30:08Z</time>
      </trkpt>
      <trkpt lat="46.32353" lon="6.57332">
        <ele>732.18</ele>
        <time>2017-07-07T11:30:10Z</time>
      </trkpt>
      <trkpt lat="46.32354" lon="6.57354">
        <ele>732.66</ele>
        <time>2017-07-07T11:30:25Z</time>
      </trkpt>
      <trkpt lat="46.32355" lon="6.57353">
        <ele>732.18</ele>
        <time>2017-07-07T11:30:44Z</time>
      </trkpt>
      <trkpt lat="46.32354" lon="6.57352">
        <ele>732.18</ele>
        <time>2017-07-07T11:31:07Z</time>
      </trkpt>
      <trkpt lat="46.32353" lon="6.57349">
        <ele>733.14</ele>
        <time>2017-07-07T11:31:25Z</time>
      </trkpt>
      <trkpt lat="46.32353" lon="6.57348">
        <ele>733.14</ele>
        <time>2017-07-07T11:31:42Z</time>
      </trkpt>
      <trkpt lat="46.32353" lon="6.57348">
        <ele>732.66</ele>
        <time>2017-07-07T11:32:02Z</time>
      </trkpt>
      <trkpt lat="46.32352" lon="6.57348">
        <ele>731.22</ele>
        <time>2017-07-07T11:32:32Z</time>
      </trkpt>
      <trkpt lat="46.32352" lon="6.57348">
        <ele>731.7</ele>
        <time>2017-07-07T11:33:14Z</time>
      </trkpt>
      <trkpt lat="46.32352" lon="6.57347">
        <ele>736.99</ele>
        <time>2017-07-07T11:33:42Z</time>
      </trkpt>
      <trkpt lat="46.32352" lon="6.57347">
        <ele>732.18</ele>
        <time>2017-07-07T11:33:43Z</time>
      </trkpt>
      <trkpt lat="46.32352" lon="6.57347">
        <ele>729.3</ele>
        <time>2017-07-07T11:34:01Z</time>
      </trkpt>
      <trkpt lat="46.32352" lon="6.57347">
        <ele>732.66</ele>
        <time>2017-07-07T11:34:02Z</time>
      </trkpt>
      <trkpt lat="46.32352" lon="6.57347">
        <ele>728.34</ele>
        <time>2017-07-07T11:34:35Z</time>
      </trkpt>
      <trkpt lat="46.32352" lon="6.57347">
        <ele>733.14</ele>
        <time>2017-07-07T11:34:36Z</time>
      </trkpt>
      <trkpt lat="46.32352" lon="6.57347">
        <ele>732.18</ele>
        <time>2017-07-07T11:34:47Z</time>
      </trkpt>
      <trkpt lat="46.32352" lon="6.57347">
        <ele>731.7</ele>
        <time>2017-07-07T11:35:09Z</time>
      </trkpt>
      <trkpt lat="46.32352" lon="6.57347">
        <ele>733.62</ele>
        <time>2017-07-07T11:35:45Z</time>
      </trkpt>
      <trkpt lat="46.32352" lon="6.57347">
        <ele>732.18</ele>
        <time>2017-07-07T11:36:17Z</time>
      </trkpt>
      <trkpt lat="46.32352" lon="6.57347">
        <ele>733.62</ele>
        <time>2017-07-07T11:36:30Z</time>
      </trkpt>
      <trkpt lat="46.32352" lon="6.57347">
        <ele>730.26</ele>
        <time>2017-07-07T11:36:32Z</time>
      </trkpt>
      <trkpt lat="46.32352" lon="6.57347">
        <ele>734.1</ele>
        <time>2017-07-07T11:36:52Z</time>
      </trkpt>
      <trkpt lat="46.32352" lon="6.57346">
        <ele>730.74</ele>
        <time>2017-07-07T11:37:12Z</time>
      </trkpt>
      <trkpt lat="46.32352" lon="6.57346">
        <ele>732.18</ele>
        <time>2017-07-07T11:37:36Z</time>
      </trkpt>
      <trkpt lat="46.32352" lon="6.57346">
        <ele>733.62</ele>
        <time>2017-07-07T11:37:38Z</time>
      </trkpt>
      <trkpt lat="46.32352" lon="6.57346">
        <ele>729.78</ele>
        <time>2017-07-07T11:37:41Z</time>
      </trkpt>
      <trkpt lat="46.32352" lon="6.57346">
        <ele>733.14</ele>
        <time>2017-07-07T11:37:42Z</time>
      </trkpt>
      <trkpt lat="46.32352" lon="6.57347">
        <ele>732.66</ele>
        <time>2017-07-07T11:38:15Z</time>
      </trkpt>
      <trkpt lat="46.32354" lon="6.57347">
        <ele>733.14</ele>
        <time>2017-07-07T11:38:34Z</time>
      </trkpt>
      <trkpt lat="46.32354" lon="6.57347">
        <ele>733.62</ele>
        <time>2017-07-07T11:39:05Z</time>
      </trkpt>
      <trkpt lat="46.32353" lon="6.57347">
        <ele>732.66</ele>
        <time>2017-07-07T11:39:28Z</time>
      </trkpt>
      <trkpt lat="46.32353" lon="6.57344">
        <ele>733.14</ele>
        <time>2017-07-07T11:39:48Z</time>
      </trkpt>
      <trkpt lat="46.32353" lon="6.57344">
        <ele>732.18</ele>
        <time>2017-07-07T11:40:09Z</time>
      </trkpt>
      <trkpt lat="46.32353" lon="6.57345">
        <ele>733.62</ele>
        <time>2017-07-07T11:40:41Z</time>
      </trkpt>
      <trkpt lat="46.32353" lon="6.57345">
        <ele>732.18</ele>
        <time>2017-07-07T11:40:45Z</time>
      </trkpt>
      <trkpt lat="46.32353" lon="6.57345">
        <ele>734.1</ele>
        <time>2017-07-07T11:40:47Z</time>
      </trkpt>
      <trkpt lat="46.32352" lon="6.57346">
        <ele>733.62</ele>
        <time>2017-07-07T11:41:01Z</time>
      </trkpt>
      <trkpt lat="46.32352" lon="6.57345">
        <ele>733.62</ele>
        <time>2017-07-07T11:41:07Z</time>
      </trkpt>
      <trkpt lat="46.32353" lon="6.57339">
        <ele>737.95</ele>
        <time>2017-07-07T11:41:21Z</time>
      </trkpt>
      <trkpt lat="46.32353" lon="6.57339">
        <ele>734.58</ele>
        <time>2017-07-07T11:41:22Z</time>
      </trkpt>
      <trkpt lat="46.32353" lon="6.57339">
        <ele>733.62</ele>
        <time>2017-07-07T11:41:24Z</time>
      </trkpt>
      <trkpt lat="46.32353" lon="6.57329">
        <ele>733.62</ele>
        <time>2017-07-07T11:41:43Z</time>
      </trkpt>
      <trkpt lat="46.32354" lon="6.57319">
        <ele>734.58</ele>
        <time>2017-07-07T11:41:49Z</time>
      </trkpt>
      <trkpt lat="46.32353" lon="6.57314">
        <ele>733.62</ele>
        <time>2017-07-07T11:41:52Z</time>
      </trkpt>
      <trkpt lat="46.32356" lon="6.57286">
        <ele>734.58</ele>
        <time>2017-07-07T11:42:08Z</time>
      </trkpt>
      <trkpt lat="46.3236" lon="6.57278">
        <ele>734.58</ele>
        <time>2017-07-07T11:42:19Z</time>
      </trkpt>
      <trkpt lat="46.32358" lon="6.57286">
        <ele>734.58</ele>
        <time>2017-07-07T11:42:36Z</time>
      </trkpt>
      <trkpt lat="46.32358" lon="6.57286">
        <ele>734.1</ele>
        <time>2017-07-07T11:42:55Z</time>
      </trkpt>
      <trkpt lat="46.32358" lon="6.57287">
        <ele>734.58</ele>
        <time>2017-07-07T11:43:20Z</time>
      </trkpt>
      <trkpt lat="46.32358" lon="6.57287">
        <ele>734.1</ele>
        <time>2017-07-07T11:43:49Z</time>
      </trkpt>
      <trkpt lat="46.32358" lon="6.57293">
        <ele>733.62</ele>
        <time>2017-07-07T11:43:58Z</time>
      </trkpt>
      <trkpt lat="46.32357" lon="6.57301">
        <ele>733.62</ele>
        <time>2017-07-07T11:44:02Z</time>
      </trkpt>
      <trkpt lat="46.32356" lon="6.57307">
        <ele>734.1</ele>
        <time>2017-07-07T11:44:06Z</time>
      </trkpt>
      <trkpt lat="46.32354" lon="6.57331">
        <ele>733.62</ele>
        <time>2017-07-07T11:44:22Z</time>
      </trkpt>
      <trkpt lat="46.32356" lon="6.57353">
        <ele>734.1</ele>
        <time>2017-07-07T11:44:39Z</time>
      </trkpt>
      <trkpt lat="46.32359" lon="6.57361">
        <ele>733.62</ele>
        <time>2017-07-07T11:44:53Z</time>
      </trkpt>
      <trkpt lat="46.32359" lon="6.57362">
        <ele>733.62</ele>
        <time>2017-07-07T11:44:54Z</time>
      </trkpt>
      <trkpt lat="46.32366" lon="6.5738">
        <ele>731.7</ele>
        <time>2017-07-07T11:45:09Z</time>
      </trkpt>
      <trkpt lat="46.32367" lon="6.57387">
        <ele>730.74</ele>
        <time>2017-07-07T11:45:15Z</time>
      </trkpt>
      <trkpt lat="46.32369" lon="6.57402">
        <ele>728.82</ele>
        <time>2017-07-07T11:45:30Z</time>
      </trkpt>
      <trkpt lat="46.32381" lon="6.57427">
        <ele>726.89</ele>
        <time>2017-07-07T11:45:47Z</time>
      </trkpt>
      <trkpt lat="46.32388" lon="6.57446">
        <ele>723.53</ele>
        <time>2017-07-07T11:46:07Z</time>
      </trkpt>
      <trkpt lat="46.32388" lon="6.57447">
        <ele>723.53</ele>
        <time>2017-07-07T11:46:08Z</time>
      </trkpt>
      <trkpt lat="46.32398" lon="6.57467">
        <ele>723.53</ele>
        <time>2017-07-07T11:46:23Z</time>
      </trkpt>
      <trkpt lat="46.324" lon="6.57469">
        <ele>723.05</ele>
        <time>2017-07-07T11:46:25Z</time>
      </trkpt>
      <trkpt lat="46.32407" lon="6.57479">
        <ele>722.57</ele>
        <time>2017-07-07T11:46:35Z</time>
      </trkpt>
      <trkpt lat="46.32411" lon="6.57483">
        <ele>722.09</ele>
        <time>2017-07-07T11:46:43Z</time>
      </trkpt>
      <trkpt lat="46.32413" lon="6.57485">
        <ele>721.61</ele>
        <time>2017-07-07T11:46:46Z</time>
      </trkpt>
      <trkpt lat="46.32425" lon="6.57507">
        <ele>719.68</ele>
        <time>2017-07-07T11:47:04Z</time>
      </trkpt>
      <trkpt lat="46.32439" lon="6.57528">
        <ele>719.2</ele>
        <time>2017-07-07T11:47:23Z</time>
      </trkpt>
      <trkpt lat="46.32451" lon="6.57548">
        <ele>717.28</ele>
        <time>2017-07-07T11:47:40Z</time>
      </trkpt>
      <trkpt lat="46.32462" lon="6.57566">
        <ele>714.88</ele>
        <time>2017-07-07T11:47:57Z</time>
      </trkpt>
      <trkpt lat="46.32473" lon="6.57587">
        <ele>712.95</ele>
        <time>2017-07-07T11:48:15Z</time>
      </trkpt>
      <trkpt lat="46.32478" lon="6.57607">
        <ele>710.55</ele>
        <time>2017-07-07T11:48:30Z</time>
      </trkpt>
      <trkpt lat="46.32481" lon="6.5762">
        <ele>709.11</ele>
        <time>2017-07-07T11:48:45Z</time>
      </trkpt>
      <trkpt lat="46.32483" lon="6.57626">
        <ele>708.15</ele>
        <time>2017-07-07T11:49:00Z</time>
      </trkpt>
      <trkpt lat="46.32486" lon="6.57634">
        <ele>708.15</ele>
        <time>2017-07-07T11:49:13Z</time>
      </trkpt>
      <trkpt lat="46.32492" lon="6.57644">
        <ele>708.63</ele>
        <time>2017-07-07T11:49:27Z</time>
      </trkpt>
      <trkpt lat="46.32501" lon="6.57649">
        <ele>708.63</ele>
        <time>2017-07-07T11:49:41Z</time>
      </trkpt>
      <trkpt lat="46.32503" lon="6.57655">
        <ele>707.19</ele>
        <time>2017-07-07T11:49:49Z</time>
      </trkpt>
      <trkpt lat="46.32509" lon="6.57661">
        <ele>707.19</ele>
        <time>2017-07-07T11:49:56Z</time>
      </trkpt>
      <trkpt lat="46.3251" lon="6.57669">
        <ele>707.19</ele>
        <time>2017-07-07T11:50:10Z</time>
      </trkpt>
      <trkpt lat="46.32508" lon="6.57674">
        <ele>705.75</ele>
        <time>2017-07-07T11:50:25Z</time>
      </trkpt>
      <trkpt lat="46.32509" lon="6.57675">
        <ele>705.75</ele>
        <time>2017-07-07T11:50:28Z</time>
      </trkpt>
      <trkpt lat="46.32515" lon="6.57684">
        <ele>705.75</ele>
        <time>2017-07-07T11:50:40Z</time>
      </trkpt>
      <trkpt lat="46.32523" lon="6.57698">
        <ele>705.26</ele>
        <time>2017-07-07T11:50:57Z</time>
      </trkpt>
      <trkpt lat="46.32531" lon="6.57703">
        <ele>706.23</ele>
        <time>2017-07-07T11:51:08Z</time>
      </trkpt>
      <trkpt lat="46.32539" lon="6.57714">
        <ele>706.71</ele>
        <time>2017-07-07T11:51:22Z</time>
      </trkpt>
      <trkpt lat="46.32542" lon="6.57719">
        <ele>707.67</ele>
        <time>2017-07-07T11:51:35Z</time>
      </trkpt>
      <trkpt lat="46.32551" lon="6.57722">
        <ele>706.71</ele>
        <time>2017-07-07T11:51:49Z</time>
      </trkpt>
      <trkpt lat="46.32556" lon="6.57714">
        <ele>709.11</ele>
        <time>2017-07-07T11:52:05Z</time>
      </trkpt>
      <trkpt lat="46.32565" lon="6.57715">
        <ele>710.55</ele>
        <time>2017-07-07T11:52:22Z</time>
      </trkpt>
      <trkpt lat="46.32566" lon="6.57715">
        <ele>710.55</ele>
        <time>2017-07-07T11:52:24Z</time>
      </trkpt>
      <trkpt lat="46.32568" lon="6.57725">
        <ele>710.55</ele>
        <time>2017-07-07T11:52:37Z</time>
      </trkpt>
      <trkpt lat="46.3257" lon="6.57743">
        <ele>708.63</ele>
        <time>2017-07-07T11:52:50Z</time>
      </trkpt>
      <trkpt lat="46.3257" lon="6.57747">
        <ele>708.63</ele>
        <time>2017-07-07T11:52:53Z</time>
      </trkpt>
      <trkpt lat="46.32571" lon="6.5778">
        <ele>705.75</ele>
        <time>2017-07-07T11:53:15Z</time>
      </trkpt>
      <trkpt lat="46.3257" lon="6.57799">
        <ele>705.26</ele>
        <time>2017-07-07T11:53:28Z</time>
      </trkpt>
      <trkpt lat="46.32568" lon="6.57824">
        <ele>704.78</ele>
        <time>2017-07-07T11:53:45Z</time>
      </trkpt>
      <trkpt lat="46.32569" lon="6.5785">
        <ele>703.82</ele>
        <time>2017-07-07T11:54:02Z</time>
      </trkpt>
      <trkpt lat="46.32573" lon="6.57876">
        <ele>701.42</ele>
        <time>2017-07-07T11:54:20Z</time>
      </trkpt>
      <trkpt lat="46.32577" lon="6.579">
        <ele>699.5</ele>
        <time>2017-07-07T11:54:38Z</time>
      </trkpt>
      <trkpt lat="46.32581" lon="6.57929">
        <ele>698.05</ele>
        <time>2017-07-07T11:54:57Z</time>
      </trkpt>
      <trkpt lat="46.3258" lon="6.57954">
        <ele>695.65</ele>
        <time>2017-07-07T11:55:14Z</time>
      </trkpt>
      <trkpt lat="46.32575" lon="6.57978">
        <ele>695.65</ele>
        <time>2017-07-07T11:55:32Z</time>
      </trkpt>
      <trkpt lat="46.3257" lon="6.58004">
        <ele>692.77</ele>
        <time>2017-07-07T11:55:51Z</time>
      </trkpt>
      <trkpt lat="46.32563" lon="6.58025">
        <ele>691.33</ele>
        <time>2017-07-07T11:56:08Z</time>
      </trkpt>
      <trkpt lat="46.3256" lon="6.58034">
        <ele>689.88</ele>
        <time>2017-07-07T11:56:16Z</time>
      </trkpt>
      <trkpt lat="46.32559" lon="6.5804">
        <ele>689.4</ele>
        <time>2017-07-07T11:56:20Z</time>
      </trkpt>
      <trkpt lat="46.32558" lon="6.58059">
        <ele>690.36</ele>
        <time>2017-07-07T11:56:35Z</time>
      </trkpt>
      <trkpt lat="46.32555" lon="6.58078">
        <ele>691.81</ele>
        <time>2017-07-07T11:56:50Z</time>
      </trkpt>
      <trkpt lat="46.32553" lon="6.58089">
        <ele>692.29</ele>
        <time>2017-07-07T11:57:05Z</time>
      </trkpt>
      <trkpt lat="46.32553" lon="6.58093">
        <ele>691.33</ele>
        <time>2017-07-07T11:57:20Z</time>
      </trkpt>
      <trkpt lat="46.32553" lon="6.58094">
        <ele>692.29</ele>
        <time>2017-07-07T11:57:22Z</time>
      </trkpt>
      <trkpt lat="46.32551" lon="6.58097">
        <ele>691.81</ele>
        <time>2017-07-07T11:57:25Z</time>
      </trkpt>
      <trkpt lat="46.32539" lon="6.58116">
        <ele>689.88</ele>
        <time>2017-07-07T11:57:42Z</time>
      </trkpt>
      <trkpt lat="46.32534" lon="6.58132">
        <ele>688.92</ele>
        <time>2017-07-07T11:57:56Z</time>
      </trkpt>
      <trkpt lat="46.32538" lon="6.58139">
        <ele>687.48</ele>
        <time>2017-07-07T11:58:12Z</time>
      </trkpt>
      <trkpt lat="46.3254" lon="6.58138">
        <ele>687.48</ele>
        <time>2017-07-07T11:58:26Z</time>
      </trkpt>
      <trkpt lat="46.32549" lon="6.58135">
        <ele>687</ele>
        <time>2017-07-07T11:58:47Z</time>
      </trkpt>
      <trkpt lat="46.32558" lon="6.58131">
        <ele>684.6</ele>
        <time>2017-07-07T11:59:00Z</time>
      </trkpt>
      <trkpt lat="46.3257" lon="6.58131">
        <ele>683.15</ele>
        <time>2017-07-07T11:59:11Z</time>
      </trkpt>
      <trkpt lat="46.32574" lon="6.58131">
        <ele>682.67</ele>
        <time>2017-07-07T11:59:14Z</time>
      </trkpt>
      <trkpt lat="46.32586" lon="6.58137">
        <ele>679.31</ele>
        <time>2017-07-07T11:59:29Z</time>
      </trkpt>
      <trkpt lat="46.32605" lon="6.58147">
        <ele>676.91</ele>
        <time>2017-07-07T11:59:45Z</time>
      </trkpt>
      <trkpt lat="46.32606" lon="6.58154">
        <ele>676.42</ele>
        <time>2017-07-07T11:59:50Z</time>
      </trkpt>
      <trkpt lat="46.32603" lon="6.58162">
        <ele>675.46</ele>
        <time>2017-07-07T11:59:57Z</time>
      </trkpt>
      <trkpt lat="46.32592" lon="6.58166">
        <ele>674.02</ele>
        <time>2017-07-07T12:00:10Z</time>
      </trkpt>
      <trkpt lat="46.32575" lon="6.58174">
        <ele>672.1</ele>
        <time>2017-07-07T12:00:26Z</time>
      </trkpt>
      <trkpt lat="46.32558" lon="6.58187">
        <ele>670.18</ele>
        <time>2017-07-07T12:00:45Z</time>
      </trkpt>
      <trkpt lat="46.32549" lon="6.58202">
        <ele>669.22</ele>
        <time>2017-07-07T12:01:00Z</time>
      </trkpt>
      <trkpt lat="46.32537" lon="6.5821">
        <ele>667.29</ele>
        <time>2017-07-07T12:01:16Z</time>
      </trkpt>
      <trkpt lat="46.32526" lon="6.58228">
        <ele>665.37</ele>
        <time>2017-07-07T12:01:34Z</time>
      </trkpt>
      <trkpt lat="46.32523" lon="6.58246">
        <ele>662.49</ele>
        <time>2017-07-07T12:01:50Z</time>
      </trkpt>
      <trkpt lat="46.32516" lon="6.58266">
        <ele>660.56</ele>
        <time>2017-07-07T12:02:07Z</time>
      </trkpt>
      <trkpt lat="46.32504" lon="6.58268">
        <ele>659.6</ele>
        <time>2017-07-07T12:02:19Z</time>
      </trkpt>
      <trkpt lat="46.32487" lon="6.58266">
        <ele>657.2</ele>
        <time>2017-07-07T12:02:36Z</time>
      </trkpt>
      <trkpt lat="46.3248" lon="6.5828">
        <ele>654.31</ele>
        <time>2017-07-07T12:02:53Z</time>
      </trkpt>
      <trkpt lat="46.32483" lon="6.5829">
        <ele>652.87</ele>
        <time>2017-07-07T12:03:06Z</time>
      </trkpt>
      <trkpt lat="46.32493" lon="6.58294">
        <ele>650.47</ele>
        <time>2017-07-07T12:03:22Z</time>
      </trkpt>
      <trkpt lat="46.32503" lon="6.58297">
        <ele>648.07</ele>
        <time>2017-07-07T12:03:37Z</time>
      </trkpt>
      <trkpt lat="46.32516" lon="6.58296">
        <ele>646.14</ele>
        <time>2017-07-07T12:03:54Z</time>
      </trkpt>
      <trkpt lat="46.32529" lon="6.58285">
        <ele>644.22</ele>
        <time>2017-07-07T12:04:10Z</time>
      </trkpt>
      <trkpt lat="46.32535" lon="6.58281">
        <ele>643.26</ele>
        <time>2017-07-07T12:04:17Z</time>
      </trkpt>
      <trkpt lat="46.32551" lon="6.58296">
        <ele>640.86</ele>
        <time>2017-07-07T12:04:35Z</time>
      </trkpt>
      <trkpt lat="46.32556" lon="6.5831">
        <ele>638.93</ele>
        <time>2017-07-07T12:04:48Z</time>
      </trkpt>
      <trkpt lat="46.32559" lon="6.58325">
        <ele>637.49</ele>
        <time>2017-07-07T12:05:03Z</time>
      </trkpt>
      <trkpt lat="46.3256" lon="6.58342">
        <ele>636.53</ele>
        <time>2017-07-07T12:05:18Z</time>
      </trkpt>
      <trkpt lat="46.3256" lon="6.58346">
        <ele>636.05</ele>
        <time>2017-07-07T12:05:21Z</time>
      </trkpt>
      <trkpt lat="46.32563" lon="6.58363">
        <ele>634.13</ele>
        <time>2017-07-07T12:05:36Z</time>
      </trkpt>
      <trkpt lat="46.32566" lon="6.5838">
        <ele>632.2</ele>
        <time>2017-07-07T12:05:51Z</time>
      </trkpt>
      <trkpt lat="46.3257" lon="6.58393">
        <ele>630.76</ele>
        <time>2017-07-07T12:06:05Z</time>
      </trkpt>
      <trkpt lat="46.32575" lon="6.58408">
        <ele>628.84</ele>
        <time>2017-07-07T12:06:19Z</time>
      </trkpt>
      <trkpt lat="46.32583" lon="6.58418">
        <ele>626.44</ele>
        <time>2017-07-07T12:06:35Z</time>
      </trkpt>
      <trkpt lat="46.32583" lon="6.58419">
        <ele>626.44</ele>
        <time>2017-07-07T12:06:37Z</time>
      </trkpt>
      <trkpt lat="46.3259" lon="6.5843">
        <ele>624.51</ele>
        <time>2017-07-07T12:06:53Z</time>
      </trkpt>
      <trkpt lat="46.32593" lon="6.58438">
        <ele>624.03</ele>
        <time>2017-07-07T12:07:01Z</time>
      </trkpt>
      <trkpt lat="46.3259" lon="6.58448">
        <ele>623.55</ele>
        <time>2017-07-07T12:07:18Z</time>
      </trkpt>
      <trkpt lat="46.32576" lon="6.5845">
        <ele>620.67</ele>
        <time>2017-07-07T12:07:35Z</time>
      </trkpt>
      <trkpt lat="46.32566" lon="6.58446">
        <ele>618.75</ele>
        <time>2017-07-07T12:07:53Z</time>
      </trkpt>
      <trkpt lat="46.32553" lon="6.58439">
        <ele>616.34</ele>
        <time>2017-07-07T12:08:10Z</time>
      </trkpt>
      <trkpt lat="46.32547" lon="6.58436">
        <ele>614.9</ele>
        <time>2017-07-07T12:08:21Z</time>
      </trkpt>
      <trkpt lat="46.32545" lon="6.58436">
        <ele>614.42</ele>
        <time>2017-07-07T12:08:24Z</time>
      </trkpt>
      <trkpt lat="46.32541" lon="6.58435">
        <ele>614.42</ele>
        <time>2017-07-07T12:08:27Z</time>
      </trkpt>
      <trkpt lat="46.32532" lon="6.58433">
        <ele>612.98</ele>
        <time>2017-07-07T12:08:37Z</time>
      </trkpt>
      <trkpt lat="46.32513" lon="6.58434">
        <ele>610.57</ele>
        <time>2017-07-07T12:08:54Z</time>
      </trkpt>
      <trkpt lat="46.32504" lon="6.58433">
        <ele>608.65</ele>
        <time>2017-07-07T12:09:10Z</time>
      </trkpt>
      <trkpt lat="46.32493" lon="6.58435">
        <ele>607.21</ele>
        <time>2017-07-07T12:09:20Z</time>
      </trkpt>
      <trkpt lat="46.32476" lon="6.58434">
        <ele>605.29</ele>
        <time>2017-07-07T12:09:36Z</time>
      </trkpt>
      <trkpt lat="46.32466" lon="6.58435">
        <ele>603.85</ele>
        <time>2017-07-07T12:09:52Z</time>
      </trkpt>
      <trkpt lat="46.32464" lon="6.58436">
        <ele>603.85</ele>
        <time>2017-07-07T12:09:54Z</time>
      </trkpt>
      <trkpt lat="46.32459" lon="6.58443">
        <ele>602.88</ele>
        <time>2017-07-07T12:10:09Z</time>
      </trkpt>
      <trkpt lat="46.3245" lon="6.58454">
        <ele>600.48</ele>
        <time>2017-07-07T12:10:25Z</time>
      </trkpt>
      <trkpt lat="46.32449" lon="6.58455">
        <ele>600</ele>
        <time>2017-07-07T12:10:27Z</time>
      </trkpt>
      <trkpt lat="46.32445" lon="6.58456">
        <ele>600</ele>
        <time>2017-07-07T12:10:31Z</time>
      </trkpt>
      <trkpt lat="46.32435" lon="6.58467">
        <ele>598.56</ele>
        <time>2017-07-07T12:10:48Z</time>
      </trkpt>
      <trkpt lat="46.32423" lon="6.58474">
        <ele>597.6</ele>
        <time>2017-07-07T12:11:03Z</time>
      </trkpt>
      <trkpt lat="46.32406" lon="6.58478">
        <ele>596.64</ele>
        <time>2017-07-07T12:11:19Z</time>
      </trkpt>
      <trkpt lat="46.32399" lon="6.58486">
        <ele>594.23</ele>
        <time>2017-07-07T12:11:33Z</time>
      </trkpt>
      <trkpt lat="46.32397" lon="6.5849">
        <ele>593.75</ele>
        <time>2017-07-07T12:11:37Z</time>
      </trkpt>
      <trkpt lat="46.32402" lon="6.58504">
        <ele>591.35</ele>
        <time>2017-07-07T12:11:53Z</time>
      </trkpt>
      <trkpt lat="46.32407" lon="6.58507">
        <ele>590.39</ele>
        <time>2017-07-07T12:12:02Z</time>
      </trkpt>
      <trkpt lat="46.3242" lon="6.58516">
        <ele>587.98</ele>
        <time>2017-07-07T12:12:19Z</time>
      </trkpt>
      <trkpt lat="46.32423" lon="6.58531">
        <ele>586.54</ele>
        <time>2017-07-07T12:12:35Z</time>
      </trkpt>
      <trkpt lat="46.32415" lon="6.58535">
        <ele>585.1</ele>
        <time>2017-07-07T12:12:49Z</time>
      </trkpt>
      <trkpt lat="46.32414" lon="6.58534">
        <ele>585.1</ele>
        <time>2017-07-07T12:12:51Z</time>
      </trkpt>
      <trkpt lat="46.324" lon="6.58535">
        <ele>583.66</ele>
        <time>2017-07-07T12:13:06Z</time>
      </trkpt>
      <trkpt lat="46.32391" lon="6.58538">
        <ele>581.73</ele>
        <time>2017-07-07T12:13:20Z</time>
      </trkpt>
      <trkpt lat="46.32384" lon="6.58551">
        <ele>579.81</ele>
        <time>2017-07-07T12:13:37Z</time>
      </trkpt>
      <trkpt lat="46.32373" lon="6.58555">
        <ele>577.89</ele>
        <time>2017-07-07T12:13:50Z</time>
      </trkpt>
      <trkpt lat="46.32377" lon="6.58564">
        <ele>576.93</ele>
        <time>2017-07-07T12:14:04Z</time>
      </trkpt>
      <trkpt lat="46.32383" lon="6.58558">
        <ele>575.01</ele>
        <time>2017-07-07T12:14:17Z</time>
      </trkpt>
      <trkpt lat="46.32393" lon="6.58552">
        <ele>573.08</ele>
        <time>2017-07-07T12:14:34Z</time>
      </trkpt>
      <trkpt lat="46.32393" lon="6.58552">
        <ele>572.6</ele>
        <time>2017-07-07T12:14:51Z</time>
      </trkpt>
      <trkpt lat="46.32397" lon="6.58552">
        <ele>570.68</ele>
        <time>2017-07-07T12:15:05Z</time>
      </trkpt>
      <trkpt lat="46.32413" lon="6.58552">
        <ele>569.24</ele>
        <time>2017-07-07T12:15:20Z</time>
      </trkpt>
      <trkpt lat="46.3243" lon="6.58555">
        <ele>567.32</ele>
        <time>2017-07-07T12:15:39Z</time>
      </trkpt>
      <trkpt lat="46.32443" lon="6.58559">
        <ele>564.91</ele>
        <time>2017-07-07T12:15:55Z</time>
      </trkpt>
      <trkpt lat="46.32448" lon="6.58561">
        <ele>563.47</ele>
        <time>2017-07-07T12:16:02Z</time>
      </trkpt>
      <trkpt lat="46.32455" lon="6.58568">
        <ele>562.99</ele>
        <time>2017-07-07T12:16:10Z</time>
      </trkpt>
      <trkpt lat="46.32457" lon="6.58578">
        <ele>562.03</ele>
        <time>2017-07-07T12:16:17Z</time>
      </trkpt>
      <trkpt lat="46.32454" lon="6.58589">
        <ele>561.55</ele>
        <time>2017-07-07T12:16:26Z</time>
      </trkpt>
      <trkpt lat="46.32451" lon="6.58593">
        <ele>561.07</ele>
        <time>2017-07-07T12:16:31Z</time>
      </trkpt>
      <trkpt lat="46.32449" lon="6.58593">
        <ele>560.11</ele>
        <time>2017-07-07T12:16:46Z</time>
      </trkpt>
      <trkpt lat="46.32449" lon="6.58593">
        <ele>560.11</ele>
        <time>2017-07-07T12:17:04Z</time>
      </trkpt>
      <trkpt lat="46.32446" lon="6.58593">
        <ele>559.62</ele>
        <time>2017-07-07T12:17:08Z</time>
      </trkpt>
      <trkpt lat="46.32438" lon="6.58599">
        <ele>559.14</ele>
        <time>2017-07-07T12:17:22Z</time>
      </trkpt>
      <trkpt lat="46.32432" lon="6.58601">
        <ele>557.7</ele>
        <time>2017-07-07T12:17:40Z</time>
      </trkpt>
      <trkpt lat="46.3242" lon="6.58606">
        <ele>555.78</ele>
        <time>2017-07-07T12:17:56Z</time>
      </trkpt>
      <trkpt lat="46.32416" lon="6.58607">
        <ele>554.34</ele>
        <time>2017-07-07T12:18:10Z</time>
      </trkpt>
      <trkpt lat="46.32403" lon="6.58613">
        <ele>552.41</ele>
        <time>2017-07-07T12:18:25Z</time>
      </trkpt>
      <trkpt lat="46.32391" lon="6.58615">
        <ele>550.49</ele>
        <time>2017-07-07T12:18:40Z</time>
      </trkpt>
      <trkpt lat="46.32386" lon="6.58617">
        <ele>550.01</ele>
        <time>2017-07-07T12:18:56Z</time>
      </trkpt>
      <trkpt lat="46.32387" lon="6.58619">
        <ele>550.01</ele>
        <time>2017-07-07T12:19:05Z</time>
      </trkpt>
      <trkpt lat="46.3239" lon="6.58621">
        <ele>550.01</ele>
        <time>2017-07-07T12:19:08Z</time>
      </trkpt>
      <trkpt lat="46.32399" lon="6.58618">
        <ele>549.53</ele>
        <time>2017-07-07T12:19:21Z</time>
      </trkpt>
      <trkpt lat="46.32412" lon="6.58616">
        <ele>549.05</ele>
        <time>2017-07-07T12:19:37Z</time>
      </trkpt>
      <trkpt lat="46.32434" lon="6.58619">
        <ele>549.53</ele>
        <time>2017-07-07T12:19:58Z</time>
      </trkpt>
      <trkpt lat="46.32452" lon="6.58604">
        <ele>548.57</ele>
        <time>2017-07-07T12:20:21Z</time>
      </trkpt>
      <trkpt lat="46.32464" lon="6.58599">
        <ele>547.61</ele>
        <time>2017-07-07T12:20:35Z</time>
      </trkpt>
      <trkpt lat="46.32474" lon="6.586">
        <ele>547.61</ele>
        <time>2017-07-07T12:20:48Z</time>
      </trkpt>
      <trkpt lat="46.3249" lon="6.586">
        <ele>545.69</ele>
        <time>2017-07-07T12:21:05Z</time>
      </trkpt>
      <trkpt lat="46.32498" lon="6.58624">
        <ele>545.2</ele>
        <time>2017-07-07T12:21:21Z</time>
      </trkpt>
      <trkpt lat="46.32492" lon="6.58648">
        <ele>545.69</ele>
        <time>2017-07-07T12:21:36Z</time>
      </trkpt>
      <trkpt lat="46.32494" lon="6.58657">
        <ele>545.69</ele>
        <time>2017-07-07T12:21:49Z</time>
      </trkpt>
      <trkpt lat="46.32492" lon="6.58663">
        <ele>545.69</ele>
        <time>2017-07-07T12:21:55Z</time>
      </trkpt>
      <trkpt lat="46.32481" lon="6.58684">
        <ele>545.69</ele>
        <time>2017-07-07T12:22:11Z</time>
      </trkpt>
      <trkpt lat="46.32476" lon="6.58703">
        <ele>545.2</ele>
        <time>2017-07-07T12:22:26Z</time>
      </trkpt>
      <trkpt lat="46.32464" lon="6.58722">
        <ele>546.65</ele>
        <time>2017-07-07T12:22:47Z</time>
      </trkpt>
      <trkpt lat="46.32464" lon="6.58724">
        <ele>546.17</ele>
        <time>2017-07-07T12:22:50Z</time>
      </trkpt>
      <trkpt lat="46.32465" lon="6.58739">
        <ele>546.65</ele>
        <time>2017-07-07T12:23:01Z</time>
      </trkpt>
      <trkpt lat="46.32473" lon="6.58767">
        <ele>547.61</ele>
        <time>2017-07-07T12:23:22Z</time>
      </trkpt>
      <trkpt lat="46.32473" lon="6.58768">
        <ele>547.13</ele>
        <time>2017-07-07T12:23:23Z</time>
      </trkpt>
      <trkpt lat="46.32474" lon="6.58775">
        <ele>546.65</ele>
        <time>2017-07-07T12:23:28Z</time>
      </trkpt>
      <trkpt lat="46.32475" lon="6.58789">
        <ele>546.65</ele>
        <time>2017-07-07T12:23:39Z</time>
      </trkpt>
      <trkpt lat="46.32481" lon="6.58806">
        <ele>546.17</ele>
        <time>2017-07-07T12:23:57Z</time>
      </trkpt>
      <trkpt lat="46.32482" lon="6.58826">
        <ele>546.65</ele>
        <time>2017-07-07T12:24:18Z</time>
      </trkpt>
      <trkpt lat="46.32476" lon="6.58838">
        <ele>546.65</ele>
        <time>2017-07-07T12:24:33Z</time>
      </trkpt>
      <trkpt lat="46.32471" lon="6.58856">
        <ele>547.13</ele>
        <time>2017-07-07T12:24:48Z</time>
      </trkpt>
      <trkpt lat="46.32466" lon="6.58861">
        <ele>548.09</ele>
        <time>2017-07-07T12:24:56Z</time>
      </trkpt>
      <trkpt lat="46.32464" lon="6.58873">
        <ele>547.61</ele>
        <time>2017-07-07T12:25:14Z</time>
      </trkpt>
      <trkpt lat="46.32464" lon="6.58874">
        <ele>547.61</ele>
        <time>2017-07-07T12:25:36Z</time>
      </trkpt>
      <trkpt lat="46.32462" lon="6.58873">
        <ele>546.17</ele>
        <time>2017-07-07T12:25:52Z</time>
      </trkpt>
      <trkpt lat="46.32462" lon="6.58873">
        <ele>547.13</ele>
        <time>2017-07-07T12:26:19Z</time>
      </trkpt>
      <trkpt lat="46.32462" lon="6.58873">
        <ele>546.17</ele>
        <time>2017-07-07T12:26:39Z</time>
      </trkpt>
      <trkpt lat="46.32468" lon="6.5887">
        <ele>546.65</ele>
        <time>2017-07-07T12:26:54Z</time>
      </trkpt>
    </trkseg>
  </trk>
</gpx>